<?xml version="1.0" encoding="UTF-8" standalone="no" ?>
<gpx xmlns="http://www.topografix.com/GPX/1/1" xmlns:xsi="http://www.w3.org/2001/XMLSchema-instance" xsi:schemaLocation="http://www.topografix.com/GPX/1/1 http://www.topografix.com/GPX/1/1/gpx.xsd" version="1.1" creator="VisuGPX - https://www.visugpx.com">
  <metadata>
    <name>100 miles transformés en 100 kms</name>
  </metadata>
  <trk>
    <name><![CDATA[100 miles transformés en 100 kms_1]]></name>
    <trkseg>
      <trkpt lat="43.7909" lon="3.90392">
        <ele>108.7</ele>
        <time>2020-10-13T18:02:28Z</time>
      </trkpt>
      <trkpt lat="43.79093" lon="3.90299">
        <ele>112.38818359375</ele>
        <time>2020-10-13T18:02:33Z</time>
      </trkpt>
      <trkpt lat="43.79106" lon="3.90265">
        <ele>114.05992126465</ele>
        <time>2020-10-13T18:02:39Z</time>
      </trkpt>
      <trkpt lat="43.79111" lon="3.9023">
        <ele>114.29988098145</ele>
        <time>2020-10-13T18:02:45Z</time>
      </trkpt>
      <trkpt lat="43.79104" lon="3.90087">
        <ele>114.85063934326</ele>
        <time>2020-10-13T18:02:50Z</time>
      </trkpt>
      <trkpt lat="43.79113" lon="3.90088">
        <ele>114.89675140381</ele>
        <time>2020-10-13T18:02:56Z</time>
      </trkpt>
      <trkpt lat="43.79128" lon="3.90084">
        <ele>115.08871459961</ele>
        <time>2020-10-13T18:03:02Z</time>
      </trkpt>
      <trkpt lat="43.7924" lon="3.90046">
        <ele>119.91194915771</ele>
        <time>2020-10-13T18:03:08Z</time>
      </trkpt>
      <trkpt lat="43.79272" lon="3.90031">
        <ele>122.79714202881</ele>
        <time>2020-10-13T18:03:13Z</time>
      </trkpt>
      <trkpt lat="43.79284" lon="3.90009">
        <ele>126.56831359863</ele>
        <time>2020-10-13T18:03:19Z</time>
      </trkpt>
      <trkpt lat="43.79289" lon="3.90009">
        <ele>127.58814239502</ele>
        <time>2020-10-13T18:03:25Z</time>
      </trkpt>
      <trkpt lat="43.79293" lon="3.90014">
        <ele>128.04406738281</ele>
        <time>2020-10-13T18:03:31Z</time>
      </trkpt>
      <trkpt lat="43.79298" lon="3.9003">
        <ele>127.91209411621</ele>
        <time>2020-10-13T18:03:37Z</time>
      </trkpt>
      <trkpt lat="43.79307" lon="3.90043">
        <ele>128.8119354248</ele>
        <time>2020-10-13T18:03:42Z</time>
      </trkpt>
      <trkpt lat="43.79325" lon="3.90064">
        <ele>130.97158813477</ele>
        <time>2020-10-13T18:03:48Z</time>
      </trkpt>
      <trkpt lat="43.79331" lon="3.90066">
        <ele>132.05140686035</ele>
        <time>2020-10-13T18:03:54Z</time>
      </trkpt>
      <trkpt lat="43.79332" lon="3.90049">
        <ele>133.47915649414</ele>
        <time>2020-10-13T18:04:00Z</time>
      </trkpt>
      <trkpt lat="43.79327" lon="3.90011">
        <ele>135.19486999512</ele>
        <time>2020-10-13T18:04:05Z</time>
      </trkpt>
      <trkpt lat="43.79334" lon="3.9">
        <ele>137.41450500488</ele>
        <time>2020-10-13T18:04:11Z</time>
      </trkpt>
      <trkpt lat="43.79351" lon="3.90011">
        <ele>140.09005737305</ele>
        <time>2020-10-13T18:04:17Z</time>
      </trkpt>
      <trkpt lat="43.79372" lon="3.90032">
        <ele>143.67594909668</ele>
        <time>2020-10-13T18:04:23Z</time>
      </trkpt>
      <trkpt lat="43.79378" lon="3.90032">
        <ele>145.33168029785</ele>
        <time>2020-10-13T18:04:29Z</time>
      </trkpt>
      <trkpt lat="43.79399" lon="3.90063">
        <ele>147.40733337402</ele>
        <time>2020-10-13T18:04:34Z</time>
      </trkpt>
      <trkpt lat="43.7941" lon="3.90091">
        <ele>147.68687438965</ele>
        <time>2020-10-13T18:04:40Z</time>
      </trkpt>
      <trkpt lat="43.79413" lon="3.90108">
        <ele>147.06809997559</ele>
        <time>2020-10-13T18:04:46Z</time>
      </trkpt>
      <trkpt lat="43.7942" lon="3.9012">
        <ele>147.08010864258</ele>
        <time>2020-10-13T18:04:52Z</time>
      </trkpt>
      <trkpt lat="43.7949" lon="3.902">
        <ele>151.88125610352</ele>
        <time>2020-10-13T18:04:58Z</time>
      </trkpt>
      <trkpt lat="43.79509" lon="3.90209">
        <ele>154.48483276367</ele>
        <time>2020-10-13T18:05:03Z</time>
      </trkpt>
      <trkpt lat="43.79536" lon="3.90232">
        <ele>155.01577758789</ele>
        <time>2020-10-13T18:05:09Z</time>
      </trkpt>
      <trkpt lat="43.79568" lon="3.90233">
        <ele>159.55432128906</ele>
        <time>2020-10-13T18:05:15Z</time>
      </trkpt>
      <trkpt lat="43.79577" lon="3.9024">
        <ele>159.57830810547</ele>
        <time>2020-10-13T18:05:21Z</time>
      </trkpt>
      <trkpt lat="43.79588" lon="3.90264">
        <ele>156.35954284668</ele>
        <time>2020-10-13T18:05:27Z</time>
      </trkpt>
      <trkpt lat="43.79597" lon="3.90276">
        <ele>155.57177734375</ele>
        <time>2020-10-13T18:05:33Z</time>
      </trkpt>
      <trkpt lat="43.79623" lon="3.90299">
        <ele>157.91409301758</ele>
        <time>2020-10-13T18:05:38Z</time>
      </trkpt>
      <trkpt lat="43.7963" lon="3.90309">
        <ele>158.26203918457</ele>
        <time>2020-10-13T18:05:44Z</time>
      </trkpt>
      <trkpt lat="43.79628" lon="3.90366">
        <ele>152.14416503906</ele>
        <time>2020-10-13T18:05:50Z</time>
      </trkpt>
      <trkpt lat="43.7964" lon="3.90406">
        <ele>152.53355407715</ele>
        <time>2020-10-13T18:05:56Z</time>
      </trkpt>
      <trkpt lat="43.79648" lon="3.90413">
        <ele>153.72135925293</ele>
        <time>2020-10-13T18:06:02Z</time>
      </trkpt>
      <trkpt lat="43.79677" lon="3.90405">
        <ele>159.79888916016</ele>
        <time>2020-10-13T18:06:08Z</time>
      </trkpt>
      <trkpt lat="43.79687" lon="3.90408">
        <ele>161.65856933594</ele>
        <time>2020-10-13T18:06:14Z</time>
      </trkpt>
      <trkpt lat="43.79694" lon="3.90418">
        <ele>162.34970092773</ele>
        <time>2020-10-13T18:06:19Z</time>
      </trkpt>
      <trkpt lat="43.79697" lon="3.90449">
        <ele>161.86206054688</ele>
        <time>2020-10-13T18:06:25Z</time>
      </trkpt>
      <trkpt lat="43.79685" lon="3.90499">
        <ele>155.16380310059</ele>
        <time>2020-10-13T18:06:31Z</time>
      </trkpt>
      <trkpt lat="43.79681" lon="3.9055">
        <ele>152.62980651855</ele>
        <time>2020-10-13T18:06:37Z</time>
      </trkpt>
      <trkpt lat="43.79686" lon="3.90582">
        <ele>152.96574401855</ele>
        <time>2020-10-13T18:06:43Z</time>
      </trkpt>
      <trkpt lat="43.79704" lon="3.90626">
        <ele>156.28179931641</ele>
        <time>2020-10-13T18:06:49Z</time>
      </trkpt>
      <trkpt lat="43.79745" lon="3.90689">
        <ele>163.78056335449</ele>
        <time>2020-10-13T18:06:55Z</time>
      </trkpt>
      <trkpt lat="43.79796" lon="3.90731">
        <ele>168.4294128418</ele>
        <time>2020-10-13T18:07:01Z</time>
      </trkpt>
      <trkpt lat="43.79828" lon="3.90747">
        <ele>171.88484191895</ele>
        <time>2020-10-13T18:07:07Z</time>
      </trkpt>
      <trkpt lat="43.7989" lon="3.90746">
        <ele>179.79188537598</ele>
        <time>2020-10-13T18:07:13Z</time>
      </trkpt>
      <trkpt lat="43.79899" lon="3.9075">
        <ele>179.67190551758</ele>
        <time>2020-10-13T18:07:18Z</time>
      </trkpt>
      <trkpt lat="43.79907" lon="3.90761">
        <ele>178.13616943359</ele>
        <time>2020-10-13T18:07:24Z</time>
      </trkpt>
      <trkpt lat="43.79913" lon="3.90774">
        <ele>176.09826660156</ele>
        <time>2020-10-13T18:07:30Z</time>
      </trkpt>
      <trkpt lat="43.79917" lon="3.90804">
        <ele>172.06694030762</ele>
        <time>2020-10-13T18:07:36Z</time>
      </trkpt>
      <trkpt lat="43.79925" lon="3.90832">
        <ele>168.61151123047</ele>
        <time>2020-10-13T18:07:42Z</time>
      </trkpt>
      <trkpt lat="43.79953" lon="3.90852">
        <ele>170.56121826172</ele>
        <time>2020-10-13T18:07:48Z</time>
      </trkpt>
      <trkpt lat="43.79962" lon="3.90861">
        <ele>171.59075927734</ele>
        <time>2020-10-13T18:07:54Z</time>
      </trkpt>
      <trkpt lat="43.7997" lon="3.90876">
        <ele>171.36280822754</ele>
        <time>2020-10-13T18:08:00Z</time>
      </trkpt>
      <trkpt lat="43.79981" lon="3.90933">
        <ele>167.38746643066</ele>
        <time>2020-10-13T18:08:06Z</time>
      </trkpt>
      <trkpt lat="43.80021" lon="3.91023">
        <ele>162.9340057373</ele>
        <time>2020-10-13T18:08:12Z</time>
      </trkpt>
      <trkpt lat="43.80035" lon="3.91048">
        <ele>162.16241455078</ele>
        <time>2020-10-13T18:08:18Z</time>
      </trkpt>
      <trkpt lat="43.80054" lon="3.91061">
        <ele>163.86613464355</ele>
        <time>2020-10-13T18:08:24Z</time>
      </trkpt>
      <trkpt lat="43.80061" lon="3.91072">
        <ele>163.67416381836</ele>
        <time>2020-10-13T18:08:30Z</time>
      </trkpt>
      <trkpt lat="43.80066" lon="3.91101">
        <ele>160.7466583252</ele>
        <time>2020-10-13T18:08:36Z</time>
      </trkpt>
      <trkpt lat="43.80094" lon="3.91137">
        <ele>162.11975097656</ele>
        <time>2020-10-13T18:08:42Z</time>
      </trkpt>
      <trkpt lat="43.80148" lon="3.91249">
        <ele>158.32060241699</ele>
        <time>2020-10-13T18:08:48Z</time>
      </trkpt>
      <trkpt lat="43.80189" lon="3.91289">
        <ele>160.16143798828</ele>
        <time>2020-10-13T18:08:54Z</time>
      </trkpt>
      <trkpt lat="43.80191" lon="3.91332">
        <ele>157.86982727051</ele>
        <time>2020-10-13T18:09:00Z</time>
      </trkpt>
      <trkpt lat="43.80208" lon="3.91386">
        <ele>156.00758361816</ele>
        <time>2020-10-13T18:09:06Z</time>
      </trkpt>
      <trkpt lat="43.80231" lon="3.91412">
        <ele>156.21154785156</ele>
        <time>2020-10-13T18:09:12Z</time>
      </trkpt>
      <trkpt lat="43.80249" lon="3.9144">
        <ele>156.18754577637</ele>
        <time>2020-10-13T18:09:18Z</time>
      </trkpt>
      <trkpt lat="43.80286" lon="3.9145">
        <ele>157.81137084961</ele>
        <time>2020-10-13T18:09:24Z</time>
      </trkpt>
      <trkpt lat="43.80292" lon="3.9146">
        <ele>157.09149169922</ele>
        <time>2020-10-13T18:09:30Z</time>
      </trkpt>
      <trkpt lat="43.80307" lon="3.91506">
        <ele>154.43913269043</ele>
        <time>2020-10-13T18:09:36Z</time>
      </trkpt>
      <trkpt lat="43.80321" lon="3.91527">
        <ele>153.72842407227</ele>
        <time>2020-10-13T18:09:42Z</time>
      </trkpt>
      <trkpt lat="43.80339" lon="3.91544">
        <ele>153.20051574707</ele>
        <time>2020-10-13T18:09:48Z</time>
      </trkpt>
      <trkpt lat="43.80371" lon="3.9155">
        <ele>155.16818237305</ele>
        <time>2020-10-13T18:09:54Z</time>
      </trkpt>
      <trkpt lat="43.80382" lon="3.91555">
        <ele>155.49212646484</ele>
        <time>2020-10-13T18:10:00Z</time>
      </trkpt>
      <trkpt lat="43.8045" lon="3.91596">
        <ele>156.76290893555</ele>
        <time>2020-10-13T18:10:06Z</time>
      </trkpt>
      <trkpt lat="43.80485" lon="3.91596">
        <ele>157.18284606934</ele>
        <time>2020-10-13T18:10:12Z</time>
      </trkpt>
      <trkpt lat="43.80508" lon="3.916">
        <ele>156.49894714355</ele>
        <time>2020-10-13T18:10:18Z</time>
      </trkpt>
      <trkpt lat="43.80522" lon="3.91616">
        <ele>153.61595153809</ele>
        <time>2020-10-13T18:10:25Z</time>
      </trkpt>
      <trkpt lat="43.80542" lon="3.91625">
        <ele>154.85174560547</ele>
        <time>2020-10-13T18:10:31Z</time>
      </trkpt>
      <trkpt lat="43.80561" lon="3.91643">
        <ele>154.55180358887</ele>
        <time>2020-10-13T18:10:37Z</time>
      </trkpt>
      <trkpt lat="43.80588" lon="3.91686">
        <ele>151.40832519531</ele>
        <time>2020-10-13T18:10:43Z</time>
      </trkpt>
      <trkpt lat="43.80615" lon="3.91701">
        <ele>154.5888671875</ele>
        <time>2020-10-13T18:10:49Z</time>
      </trkpt>
      <trkpt lat="43.80619" lon="3.91712">
        <ele>154.67286682129</ele>
        <time>2020-10-13T18:10:55Z</time>
      </trkpt>
      <trkpt lat="43.80618" lon="3.91754">
        <ele>150.89349365234</ele>
        <time>2020-10-13T18:11:01Z</time>
      </trkpt>
      <trkpt lat="43.80624" lon="3.91767">
        <ele>151.31341552734</ele>
        <time>2020-10-13T18:11:07Z</time>
      </trkpt>
      <trkpt lat="43.80675" lon="3.91836">
        <ele>156.12329101562</ele>
        <time>2020-10-13T18:11:13Z</time>
      </trkpt>
      <trkpt lat="43.80701" lon="3.91881">
        <ele>157.40049743652</ele>
        <time>2020-10-13T18:11:19Z</time>
      </trkpt>
      <trkpt lat="43.80717" lon="3.91887">
        <ele>160.28001403809</ele>
        <time>2020-10-13T18:11:26Z</time>
      </trkpt>
      <trkpt lat="43.80732" lon="3.91902">
        <ele>162.07972717285</ele>
        <time>2020-10-13T18:11:32Z</time>
      </trkpt>
      <trkpt lat="43.80732" lon="3.91942">
        <ele>158.22026062012</ele>
        <time>2020-10-13T18:11:38Z</time>
      </trkpt>
      <trkpt lat="43.80739" lon="3.91954">
        <ele>158.43621826172</ele>
        <time>2020-10-13T18:11:44Z</time>
      </trkpt>
      <trkpt lat="43.80758" lon="3.91962">
        <ele>161.67567443848</ele>
        <time>2020-10-13T18:11:50Z</time>
      </trkpt>
      <trkpt lat="43.80768" lon="3.9197">
        <ele>162.97146606445</ele>
        <time>2020-10-13T18:11:56Z</time>
      </trkpt>
      <trkpt lat="43.808" lon="3.92022">
        <ele>166.2961730957</ele>
        <time>2020-10-13T18:12:02Z</time>
      </trkpt>
      <trkpt lat="43.80843" lon="3.9208">
        <ele>168.36016845703</ele>
        <time>2020-10-13T18:12:09Z</time>
      </trkpt>
      <trkpt lat="43.80857" lon="3.92114">
        <ele>166.21086120605</ele>
        <time>2020-10-13T18:12:15Z</time>
      </trkpt>
      <trkpt lat="43.8087" lon="3.9212">
        <ele>166.46615600586</ele>
        <time>2020-10-13T18:12:21Z</time>
      </trkpt>
      <trkpt lat="43.80883" lon="3.92118">
        <ele>168.56581115723</ele>
        <time>2020-10-13T18:12:27Z</time>
      </trkpt>
      <trkpt lat="43.80903" lon="3.92099">
        <ele>174.75654602051</ele>
        <time>2020-10-13T18:12:33Z</time>
      </trkpt>
      <trkpt lat="43.80913" lon="3.92107">
        <ele>174.63656616211</ele>
        <time>2020-10-13T18:12:39Z</time>
      </trkpt>
      <trkpt lat="43.80919" lon="3.92122">
        <ele>172.54914855957</ele>
        <time>2020-10-13T18:12:46Z</time>
      </trkpt>
      <trkpt lat="43.80948" lon="3.92122">
        <ele>176.26264953613</ele>
        <time>2020-10-13T18:12:52Z</time>
      </trkpt>
      <trkpt lat="43.80962" lon="3.9213">
        <ele>176.43101501465</ele>
        <time>2020-10-13T18:12:58Z</time>
      </trkpt>
      <trkpt lat="43.80972" lon="3.92166">
        <ele>170.69557189941</ele>
        <time>2020-10-13T18:13:04Z</time>
      </trkpt>
      <trkpt lat="43.81106" lon="3.9229">
        <ele>168.97453308105</ele>
        <time>2020-10-13T18:13:10Z</time>
      </trkpt>
      <trkpt lat="43.81126" lon="3.92323">
        <ele>167.73873901367</ele>
        <time>2020-10-13T18:13:17Z</time>
      </trkpt>
      <trkpt lat="43.81168" lon="3.92379">
        <ele>166.63565063477</ele>
        <time>2020-10-13T18:13:23Z</time>
      </trkpt>
      <trkpt lat="43.81229" lon="3.92452">
        <ele>163.63059997559</ele>
        <time>2020-10-13T18:13:29Z</time>
      </trkpt>
      <trkpt lat="43.81238" lon="3.9245">
        <ele>164.71041870117</ele>
        <time>2020-10-13T18:13:35Z</time>
      </trkpt>
      <trkpt lat="43.81258" lon="3.92456">
        <ele>165.98220825195</ele>
        <time>2020-10-13T18:13:42Z</time>
      </trkpt>
      <trkpt lat="43.81285" lon="3.92478">
        <ele>166.04098510742</ele>
        <time>2020-10-13T18:13:48Z</time>
      </trkpt>
      <trkpt lat="43.81309" lon="3.92492">
        <ele>166.54489135742</ele>
        <time>2020-10-13T18:13:54Z</time>
      </trkpt>
      <trkpt lat="43.81318" lon="3.92494">
        <ele>167.08480834961</ele>
        <time>2020-10-13T18:14:00Z</time>
      </trkpt>
      <trkpt lat="43.81375" lon="3.92475">
        <ele>166.77809143066</ele>
        <time>2020-10-13T18:14:07Z</time>
      </trkpt>
      <trkpt lat="43.8139" lon="3.92469">
        <ele>166.83654785156</ele>
        <time>2020-10-13T18:14:13Z</time>
      </trkpt>
      <trkpt lat="43.814" lon="3.9246">
        <ele>165.50476074219</ele>
        <time>2020-10-13T18:14:19Z</time>
      </trkpt>
      <trkpt lat="43.81417" lon="3.92436">
        <ele>162.5128326416</ele>
        <time>2020-10-13T18:14:25Z</time>
      </trkpt>
      <trkpt lat="43.81452" lon="3.92371">
        <ele>156.14222717285</ele>
        <time>2020-10-13T18:14:32Z</time>
      </trkpt>
      <trkpt lat="43.81485" lon="3.9227">
        <ele>150.86196899414</ele>
        <time>2020-10-13T18:14:38Z</time>
      </trkpt>
      <trkpt lat="43.81495" lon="3.92256">
        <ele>150.71798706055</ele>
        <time>2020-10-13T18:14:44Z</time>
      </trkpt>
      <trkpt lat="43.8151" lon="3.92243">
        <ele>150.0848236084</ele>
        <time>2020-10-13T18:14:51Z</time>
      </trkpt>
      <trkpt lat="43.81526" lon="3.92236">
        <ele>149.30638122559</ele>
        <time>2020-10-13T18:14:57Z</time>
      </trkpt>
      <trkpt lat="43.81589" lon="3.92226">
        <ele>145.27354431152</ele>
        <time>2020-10-13T18:15:03Z</time>
      </trkpt>
      <trkpt lat="43.81694" lon="3.92198">
        <ele>136.70539855957</ele>
        <time>2020-10-13T18:15:10Z</time>
      </trkpt>
      <trkpt lat="43.81874" lon="3.92135">
        <ele>127.21627044678</ele>
        <time>2020-10-13T18:15:16Z</time>
      </trkpt>
      <trkpt lat="43.81992" lon="3.92135">
        <ele>120.41641235352</ele>
        <time>2020-10-13T18:15:22Z</time>
      </trkpt>
      <trkpt lat="43.8203" lon="3.92129">
        <ele>118.97665405273</ele>
        <time>2020-10-13T18:15:29Z</time>
      </trkpt>
      <trkpt lat="43.82079" lon="3.92114">
        <ele>117.03297424316</ele>
        <time>2020-10-13T18:15:35Z</time>
      </trkpt>
      <trkpt lat="43.82095" lon="3.92112">
        <ele>116.43307495117</ele>
        <time>2020-10-13T18:15:41Z</time>
      </trkpt>
      <trkpt lat="43.82077" lon="3.92095">
        <ele>116.58860015869</ele>
        <time>2020-10-13T18:15:48Z</time>
      </trkpt>
      <trkpt lat="43.82034" lon="3.92041">
        <ele>116.1926651001</ele>
        <time>2020-10-13T18:15:54Z</time>
      </trkpt>
      <trkpt lat="43.81935" lon="3.91934">
        <ele>117.0053024292</ele>
        <time>2020-10-13T18:16:01Z</time>
      </trkpt>
      <trkpt lat="43.81823" lon="3.91805">
        <ele>120.06860351562</ele>
        <time>2020-10-13T18:16:07Z</time>
      </trkpt>
      <trkpt lat="43.81755" lon="3.91697">
        <ele>121.28435516357</ele>
        <time>2020-10-13T18:16:14Z</time>
      </trkpt>
      <trkpt lat="43.81684" lon="3.91561">
        <ele>122.66236114502</ele>
        <time>2020-10-13T18:16:20Z</time>
      </trkpt>
      <trkpt lat="43.81664" lon="3.91534">
        <ele>123.46622467041</ele>
        <time>2020-10-13T18:16:27Z</time>
      </trkpt>
      <trkpt lat="43.81638" lon="3.91507">
        <ele>123.61797332764</ele>
        <time>2020-10-13T18:16:33Z</time>
      </trkpt>
      <trkpt lat="43.81638" lon="3.91491">
        <ele>123.04206848145</ele>
        <time>2020-10-13T18:16:40Z</time>
      </trkpt>
      <trkpt lat="43.81661" lon="3.91452">
        <ele>121.08639526367</ele>
        <time>2020-10-13T18:16:46Z</time>
      </trkpt>
      <trkpt lat="43.8167" lon="3.9143">
        <ele>120.20143127441</ele>
        <time>2020-10-13T18:16:53Z</time>
      </trkpt>
      <trkpt lat="43.81683" lon="3.91352">
        <ele>117.1441192627</ele>
        <time>2020-10-13T18:16:59Z</time>
      </trkpt>
      <trkpt lat="43.81682" lon="3.91327">
        <ele>116.60111236572</ele>
        <time>2020-10-13T18:17:06Z</time>
      </trkpt>
      <trkpt lat="43.81658" lon="3.91213">
        <ele>116.47025299072</ele>
        <time>2020-10-13T18:17:12Z</time>
      </trkpt>
      <trkpt lat="43.81653" lon="3.91173">
        <ele>116.09114074707</ele>
        <time>2020-10-13T18:17:19Z</time>
      </trkpt>
      <trkpt lat="43.81652" lon="3.91043">
        <ele>117.42708587646</ele>
        <time>2020-10-13T18:17:25Z</time>
      </trkpt>
      <trkpt lat="43.81643" lon="3.90999">
        <ele>118.00881195068</ele>
        <time>2020-10-13T18:17:32Z</time>
      </trkpt>
      <trkpt lat="43.81634" lon="3.90975">
        <ele>117.64887237549</ele>
        <time>2020-10-13T18:17:38Z</time>
      </trkpt>
      <trkpt lat="43.81654" lon="3.90941">
        <ele>119.49656677246</ele>
        <time>2020-10-13T18:17:45Z</time>
      </trkpt>
      <trkpt lat="43.81675" lon="3.90888">
        <ele>123.05937957764</ele>
        <time>2020-10-13T18:17:52Z</time>
      </trkpt>
      <trkpt lat="43.81684" lon="3.90862">
        <ele>124.53513336182</ele>
        <time>2020-10-13T18:17:58Z</time>
      </trkpt>
      <trkpt lat="43.81689" lon="3.9082">
        <ele>125.00437164307</ele>
        <time>2020-10-13T18:18:05Z</time>
      </trkpt>
      <trkpt lat="43.81696" lon="3.90803">
        <ele>125.08836364746</ele>
        <time>2020-10-13T18:18:11Z</time>
      </trkpt>
      <trkpt lat="43.81741" lon="3.90773">
        <ele>125.6116027832</ele>
        <time>2020-10-13T18:18:18Z</time>
      </trkpt>
      <trkpt lat="43.81787" lon="3.9075">
        <ele>126.43920898438</ele>
        <time>2020-10-13T18:18:25Z</time>
      </trkpt>
      <trkpt lat="43.81799" lon="3.90741">
        <ele>126.90712738037</ele>
        <time>2020-10-13T18:18:31Z</time>
      </trkpt>
      <trkpt lat="43.81807" lon="3.90729">
        <ele>127.14708709717</ele>
        <time>2020-10-13T18:18:38Z</time>
      </trkpt>
      <trkpt lat="43.81808" lon="3.90675">
        <ele>128.81982421875</ele>
        <time>2020-10-13T18:18:44Z</time>
      </trkpt>
      <trkpt lat="43.81799" lon="3.9062">
        <ele>129.44114685059</ele>
        <time>2020-10-13T18:18:51Z</time>
      </trkpt>
      <trkpt lat="43.81804" lon="3.9058">
        <ele>131.42082214355</ele>
        <time>2020-10-13T18:18:58Z</time>
      </trkpt>
      <trkpt lat="43.81794" lon="3.90552">
        <ele>131.34883117676</ele>
        <time>2020-10-13T18:19:04Z</time>
      </trkpt>
      <trkpt lat="43.81792" lon="3.90537">
        <ele>131.44100952148</ele>
        <time>2020-10-13T18:19:11Z</time>
      </trkpt>
      <trkpt lat="43.81796" lon="3.9051">
        <ele>131.88999938965</ele>
        <time>2020-10-13T18:19:17Z</time>
      </trkpt>
      <trkpt lat="43.81793" lon="3.90495">
        <ele>131.85400390625</ele>
        <time>2020-10-13T18:19:24Z</time>
      </trkpt>
      <trkpt lat="43.81785" lon="3.90462">
        <ele>131.67404174805</ele>
        <time>2020-10-13T18:19:31Z</time>
      </trkpt>
      <trkpt lat="43.81726" lon="3.90326">
        <ele>129.71356201172</ele>
        <time>2020-10-13T18:19:37Z</time>
      </trkpt>
      <trkpt lat="43.81769" lon="3.90291">
        <ele>133.93966674805</ele>
        <time>2020-10-13T18:19:44Z</time>
      </trkpt>
      <trkpt lat="43.81776" lon="3.90281">
        <ele>134.97171020508</ele>
        <time>2020-10-13T18:19:51Z</time>
      </trkpt>
      <trkpt lat="43.81764" lon="3.90274">
        <ele>134.39558410645</ele>
        <time>2020-10-13T18:19:57Z</time>
      </trkpt>
      <trkpt lat="43.81757" lon="3.90265">
        <ele>134.12251281738</ele>
        <time>2020-10-13T18:20:04Z</time>
      </trkpt>
      <trkpt lat="43.81725" lon="3.90179">
        <ele>135.19146728516</ele>
        <time>2020-10-13T18:20:11Z</time>
      </trkpt>
      <trkpt lat="43.81701" lon="3.90095">
        <ele>135.64587402344</ele>
        <time>2020-10-13T18:20:17Z</time>
      </trkpt>
      <trkpt lat="43.81666" lon="3.89991">
        <ele>135.10777282715</ele>
        <time>2020-10-13T18:20:24Z</time>
      </trkpt>
      <trkpt lat="43.81664" lon="3.89972">
        <ele>135.80364990234</ele>
        <time>2020-10-13T18:20:31Z</time>
      </trkpt>
      <trkpt lat="43.8167" lon="3.89945">
        <ele>137.74732971191</ele>
        <time>2020-10-13T18:20:38Z</time>
      </trkpt>
      <trkpt lat="43.81669" lon="3.89855">
        <ele>142.50717163086</ele>
        <time>2020-10-13T18:20:44Z</time>
      </trkpt>
      <trkpt lat="43.8168" lon="3.89788">
        <ele>146.53829956055</ele>
        <time>2020-10-13T18:20:51Z</time>
      </trkpt>
      <trkpt lat="43.81684" lon="3.89711">
        <ele>155.99931335449</ele>
        <time>2020-10-13T18:20:58Z</time>
      </trkpt>
      <trkpt lat="43.81695" lon="3.89667">
        <ele>159.99490356445</ele>
        <time>2020-10-13T18:21:04Z</time>
      </trkpt>
      <trkpt lat="43.81692" lon="3.89645">
        <ele>161.49465942383</ele>
        <time>2020-10-13T18:21:11Z</time>
      </trkpt>
      <trkpt lat="43.81644" lon="3.89532">
        <ele>166.1496887207</ele>
        <time>2020-10-13T18:21:18Z</time>
      </trkpt>
      <trkpt lat="43.81623" lon="3.89527">
        <ele>166.07769775391</ele>
        <time>2020-10-13T18:21:25Z</time>
      </trkpt>
      <trkpt lat="43.81618" lon="3.89507">
        <ele>166.54257202148</ele>
        <time>2020-10-13T18:21:32Z</time>
      </trkpt>
      <trkpt lat="43.81541" lon="3.89355">
        <ele>156.85638427734</ele>
        <time>2020-10-13T18:21:38Z</time>
      </trkpt>
      <trkpt lat="43.81458" lon="3.89179">
        <ele>156.86962890625</ele>
        <time>2020-10-13T18:21:45Z</time>
      </trkpt>
      <trkpt lat="43.81429" lon="3.89068">
        <ele>153.80264282227</ele>
        <time>2020-10-13T18:21:52Z</time>
      </trkpt>
      <trkpt lat="43.81396" lon="3.88966">
        <ele>149.30038452148</ele>
        <time>2020-10-13T18:21:59Z</time>
      </trkpt>
      <trkpt lat="43.81451" lon="3.89011">
        <ele>148.9693145752</ele>
        <time>2020-10-13T18:22:06Z</time>
      </trkpt>
      <trkpt lat="43.81544" lon="3.89079">
        <ele>147.95083618164</ele>
        <time>2020-10-13T18:22:12Z</time>
      </trkpt>
      <trkpt lat="43.81611" lon="3.8896">
        <ele>144.82646179199</ele>
        <time>2020-10-13T18:22:19Z</time>
      </trkpt>
      <trkpt lat="43.81657" lon="3.88887">
        <ele>147.01335144043</ele>
        <time>2020-10-13T18:22:26Z</time>
      </trkpt>
      <trkpt lat="43.81706" lon="3.88813">
        <ele>146.79165649414</ele>
        <time>2020-10-13T18:22:33Z</time>
      </trkpt>
      <trkpt lat="43.81768" lon="3.88735">
        <ele>145.45748901367</ele>
        <time>2020-10-13T18:22:40Z</time>
      </trkpt>
      <trkpt lat="43.81809" lon="3.88724">
        <ele>146.41053771973</ele>
        <time>2020-10-13T18:22:47Z</time>
      </trkpt>
      <trkpt lat="43.81846" lon="3.88708">
        <ele>146.21856689453</ele>
        <time>2020-10-13T18:22:54Z</time>
      </trkpt>
      <trkpt lat="43.81945" lon="3.88674">
        <ele>147.26522827148</ele>
        <time>2020-10-13T18:23:01Z</time>
      </trkpt>
      <trkpt lat="43.82079" lon="3.88529">
        <ele>152.29626464844</ele>
        <time>2020-10-13T18:23:08Z</time>
      </trkpt>
      <trkpt lat="43.82104" lon="3.88512">
        <ele>153.24961853027</ele>
        <time>2020-10-13T18:23:15Z</time>
      </trkpt>
      <trkpt lat="43.82138" lon="3.88496">
        <ele>153.65000915527</ele>
        <time>2020-10-13T18:23:22Z</time>
      </trkpt>
      <trkpt lat="43.82156" lon="3.88479">
        <ele>153.6487121582</ele>
        <time>2020-10-13T18:23:29Z</time>
      </trkpt>
      <trkpt lat="43.82172" lon="3.88446">
        <ele>152.67686462402</ele>
        <time>2020-10-13T18:23:36Z</time>
      </trkpt>
      <trkpt lat="43.82302" lon="3.88071">
        <ele>157.06500244141</ele>
        <time>2020-10-13T18:23:43Z</time>
      </trkpt>
      <trkpt lat="43.82361" lon="3.88058">
        <ele>157.02619934082</ele>
        <time>2020-10-13T18:23:50Z</time>
      </trkpt>
      <trkpt lat="43.8252" lon="3.88049">
        <ele>152.05056762695</ele>
        <time>2020-10-13T18:23:57Z</time>
      </trkpt>
      <trkpt lat="43.82566" lon="3.88051">
        <ele>150.61087036133</ele>
        <time>2020-10-13T18:24:04Z</time>
      </trkpt>
      <trkpt lat="43.82663" lon="3.88064">
        <ele>151.380859375</ele>
        <time>2020-10-13T18:24:11Z</time>
      </trkpt>
      <trkpt lat="43.82695" lon="3.88081">
        <ele>152.07437133789</ele>
        <time>2020-10-13T18:24:18Z</time>
      </trkpt>
      <trkpt lat="43.82746" lon="3.88138">
        <ele>152.30654907227</ele>
        <time>2020-10-13T18:24:25Z</time>
      </trkpt>
      <trkpt lat="43.82814" lon="3.88179">
        <ele>152.63049316406</ele>
        <time>2020-10-13T18:24:33Z</time>
      </trkpt>
      <trkpt lat="43.82829" lon="3.88191">
        <ele>152.66648864746</ele>
        <time>2020-10-13T18:24:40Z</time>
      </trkpt>
      <trkpt lat="43.82857" lon="3.8822">
        <ele>152.61840820312</ele>
        <time>2020-10-13T18:24:47Z</time>
      </trkpt>
      <trkpt lat="43.82926" lon="3.88304">
        <ele>150.41133117676</ele>
        <time>2020-10-13T18:24:54Z</time>
      </trkpt>
      <trkpt lat="43.8294" lon="3.88316">
        <ele>149.98315429688</ele>
        <time>2020-10-13T18:25:01Z</time>
      </trkpt>
      <trkpt lat="43.82974" lon="3.88332">
        <ele>150.00715637207</ele>
        <time>2020-10-13T18:25:08Z</time>
      </trkpt>
      <trkpt lat="43.83004" lon="3.88353">
        <ele>149.86317443848</ele>
        <time>2020-10-13T18:25:15Z</time>
      </trkpt>
      <trkpt lat="43.83038" lon="3.88404">
        <ele>149.99784851074</ele>
        <time>2020-10-13T18:25:23Z</time>
      </trkpt>
      <trkpt lat="43.83081" lon="3.88459">
        <ele>150.65463256836</ele>
        <time>2020-10-13T18:25:30Z</time>
      </trkpt>
      <trkpt lat="43.83096" lon="3.88491">
        <ele>150.42666625977</ele>
        <time>2020-10-13T18:25:37Z</time>
      </trkpt>
      <trkpt lat="43.83108" lon="3.88529">
        <ele>149.88768005371</ele>
        <time>2020-10-13T18:25:44Z</time>
      </trkpt>
      <trkpt lat="43.83134" lon="3.88573">
        <ele>149.14379882812</ele>
        <time>2020-10-13T18:25:51Z</time>
      </trkpt>
      <trkpt lat="43.83252" lon="3.8856">
        <ele>152.07162475586</ele>
        <time>2020-10-13T18:25:59Z</time>
      </trkpt>
      <trkpt lat="43.83398" lon="3.8852">
        <ele>159.1649017334</ele>
        <time>2020-10-13T18:26:06Z</time>
      </trkpt>
      <trkpt lat="43.83404" lon="3.88516">
        <ele>159.74081420898</ele>
        <time>2020-10-13T18:26:13Z</time>
      </trkpt>
      <trkpt lat="43.83407" lon="3.8852">
        <ele>159.81278991699</ele>
        <time>2020-10-13T18:26:20Z</time>
      </trkpt>
      <trkpt lat="43.83413" lon="3.88519">
        <ele>160.28071594238</ele>
        <time>2020-10-13T18:26:28Z</time>
      </trkpt>
      <trkpt lat="43.8345" lon="3.88609">
        <ele>155.90768432617</ele>
        <time>2020-10-13T18:26:35Z</time>
      </trkpt>
      <trkpt lat="43.83466" lon="3.88639">
        <ele>154.82786560059</ele>
        <time>2020-10-13T18:26:42Z</time>
      </trkpt>
      <trkpt lat="43.83488" lon="3.88668">
        <ele>153.7840423584</ele>
        <time>2020-10-13T18:26:49Z</time>
      </trkpt>
      <trkpt lat="43.83525" lon="3.88675">
        <ele>153.69560241699</ele>
        <time>2020-10-13T18:26:57Z</time>
      </trkpt>
      <trkpt lat="43.83539" lon="3.88681">
        <ele>154.31950378418</ele>
        <time>2020-10-13T18:27:04Z</time>
      </trkpt>
      <trkpt lat="43.83554" lon="3.88672">
        <ele>155.54330444336</ele>
        <time>2020-10-13T18:27:11Z</time>
      </trkpt>
      <trkpt lat="43.83589" lon="3.88633">
        <ele>156.15559387207</ele>
        <time>2020-10-13T18:27:18Z</time>
      </trkpt>
      <trkpt lat="43.83605" lon="3.88622">
        <ele>155.56768798828</ele>
        <time>2020-10-13T18:27:26Z</time>
      </trkpt>
      <trkpt lat="43.83619" lon="3.88622">
        <ele>156.20230102539</ele>
        <time>2020-10-13T18:27:33Z</time>
      </trkpt>
      <trkpt lat="43.83631" lon="3.88631">
        <ele>157.10214233398</ele>
        <time>2020-10-13T18:27:40Z</time>
      </trkpt>
      <trkpt lat="43.8365" lon="3.88694">
        <ele>160.33221435547</ele>
        <time>2020-10-13T18:27:48Z</time>
      </trkpt>
      <trkpt lat="43.83712" lon="3.88838">
        <ele>167.93431091309</ele>
        <time>2020-10-13T18:27:55Z</time>
      </trkpt>
      <trkpt lat="43.83721" lon="3.88842">
        <ele>168.69018554688</ele>
        <time>2020-10-13T18:28:02Z</time>
      </trkpt>
      <trkpt lat="43.83736" lon="3.88843">
        <ele>169.94998168945</ele>
        <time>2020-10-13T18:28:10Z</time>
      </trkpt>
      <trkpt lat="43.8375" lon="3.88851">
        <ele>171.12577819824</ele>
        <time>2020-10-13T18:28:17Z</time>
      </trkpt>
      <trkpt lat="43.8376" lon="3.8885">
        <ele>171.96563720703</ele>
        <time>2020-10-13T18:28:24Z</time>
      </trkpt>
      <trkpt lat="43.83801" lon="3.88831">
        <ele>175.18034362793</ele>
        <time>2020-10-13T18:28:32Z</time>
      </trkpt>
      <trkpt lat="43.83863" lon="3.8879">
        <ele>178.2707824707</ele>
        <time>2020-10-13T18:28:39Z</time>
      </trkpt>
      <trkpt lat="43.83884" lon="3.88794">
        <ele>181.40306091309</ele>
        <time>2020-10-13T18:28:46Z</time>
      </trkpt>
      <trkpt lat="43.8389" lon="3.88813">
        <ele>183.81385803223</ele>
        <time>2020-10-13T18:28:54Z</time>
      </trkpt>
      <trkpt lat="43.83889" lon="3.8888">
        <ele>191.03314208984</ele>
        <time>2020-10-13T18:29:01Z</time>
      </trkpt>
      <trkpt lat="43.83878" lon="3.88924">
        <ele>193.57308959961</ele>
        <time>2020-10-13T18:29:08Z</time>
      </trkpt>
      <trkpt lat="43.83865" lon="3.88946">
        <ele>192.8694152832</ele>
        <time>2020-10-13T18:29:16Z</time>
      </trkpt>
      <trkpt lat="43.83857" lon="3.88997">
        <ele>196.49475097656</ele>
        <time>2020-10-13T18:29:23Z</time>
      </trkpt>
      <trkpt lat="43.8384" lon="3.89055">
        <ele>200.57572937012</ele>
        <time>2020-10-13T18:29:30Z</time>
      </trkpt>
      <trkpt lat="43.83827" lon="3.89083">
        <ele>201.92630004883</ele>
        <time>2020-10-13T18:29:38Z</time>
      </trkpt>
      <trkpt lat="43.838" lon="3.89164">
        <ele>207.22581481934</ele>
        <time>2020-10-13T18:29:45Z</time>
      </trkpt>
      <trkpt lat="43.83798" lon="3.89185">
        <ele>209.44543457031</ele>
        <time>2020-10-13T18:29:53Z</time>
      </trkpt>
      <trkpt lat="43.83802" lon="3.892">
        <ele>212.52893066406</ele>
        <time>2020-10-13T18:30:00Z</time>
      </trkpt>
      <trkpt lat="43.83807" lon="3.89204">
        <ele>214.43659973145</ele>
        <time>2020-10-13T18:30:07Z</time>
      </trkpt>
      <trkpt lat="43.83814" lon="3.89189">
        <ele>214.38861083984</ele>
        <time>2020-10-13T18:30:15Z</time>
      </trkpt>
      <trkpt lat="43.83835" lon="3.8916">
        <ele>215.9146270752</ele>
        <time>2020-10-13T18:30:22Z</time>
      </trkpt>
      <trkpt lat="43.83916" lon="3.89069">
        <ele>221.72619628906</ele>
        <time>2020-10-13T18:30:30Z</time>
      </trkpt>
      <trkpt lat="43.83942" lon="3.89029">
        <ele>220.44352722168</ele>
        <time>2020-10-13T18:30:37Z</time>
      </trkpt>
      <trkpt lat="43.83949" lon="3.89026">
        <ele>221.34298706055</ele>
        <time>2020-10-13T18:30:44Z</time>
      </trkpt>
      <trkpt lat="43.83975" lon="3.89021">
        <ele>226.08013916016</ele>
        <time>2020-10-13T18:30:52Z</time>
      </trkpt>
      <trkpt lat="43.83993" lon="3.89026">
        <ele>230.31748962402</ele>
        <time>2020-10-13T18:30:59Z</time>
      </trkpt>
      <trkpt lat="43.84017" lon="3.89052">
        <ele>238.02020263672</ele>
        <time>2020-10-13T18:31:07Z</time>
      </trkpt>
      <trkpt lat="43.8404" lon="3.89084">
        <ele>242.35670471191</ele>
        <time>2020-10-13T18:31:14Z</time>
      </trkpt>
      <trkpt lat="43.84038" lon="3.89099">
        <ele>244.00042724609</ele>
        <time>2020-10-13T18:31:22Z</time>
      </trkpt>
      <trkpt lat="43.8402" lon="3.89146">
        <ele>248.95211791992</ele>
        <time>2020-10-13T18:31:29Z</time>
      </trkpt>
      <trkpt lat="43.84017" lon="3.89171">
        <ele>251.25573730469</ele>
        <time>2020-10-13T18:31:37Z</time>
      </trkpt>
      <trkpt lat="43.84006" lon="3.89211">
        <ele>253.95133972168</ele>
        <time>2020-10-13T18:31:44Z</time>
      </trkpt>
      <trkpt lat="43.83997" lon="3.89294">
        <ele>258.97760009766</ele>
        <time>2020-10-13T18:31:52Z</time>
      </trkpt>
      <trkpt lat="43.83952" lon="3.89348">
        <ele>259.79815673828</ele>
        <time>2020-10-13T18:31:59Z</time>
      </trkpt>
      <trkpt lat="43.83945" lon="3.89363">
        <ele>260.29824829102</ele>
        <time>2020-10-13T18:32:06Z</time>
      </trkpt>
      <trkpt lat="43.83951" lon="3.89445">
        <ele>262.59320068359</ele>
        <time>2020-10-13T18:32:14Z</time>
      </trkpt>
      <trkpt lat="43.83968" lon="3.89495">
        <ele>265.06109619141</ele>
        <time>2020-10-13T18:32:21Z</time>
      </trkpt>
      <trkpt lat="43.83988" lon="3.89541">
        <ele>267.79052734375</ele>
        <time>2020-10-13T18:32:29Z</time>
      </trkpt>
      <trkpt lat="43.83993" lon="3.89547">
        <ele>268.37841796875</ele>
        <time>2020-10-13T18:32:36Z</time>
      </trkpt>
      <trkpt lat="43.84002" lon="3.8955">
        <ele>269.06231689453</ele>
        <time>2020-10-13T18:32:44Z</time>
      </trkpt>
      <trkpt lat="43.84009" lon="3.89547">
        <ele>269.33825683594</ele>
        <time>2020-10-13T18:32:52Z</time>
      </trkpt>
      <trkpt lat="43.84026" lon="3.89517">
        <ele>268.62478637695</ele>
        <time>2020-10-13T18:32:59Z</time>
      </trkpt>
      <trkpt lat="43.84058" lon="3.89483">
        <ele>266.58511352539</ele>
        <time>2020-10-13T18:33:07Z</time>
      </trkpt>
      <trkpt lat="43.84138" lon="3.8938">
        <ele>265.17498779297</ele>
        <time>2020-10-13T18:33:14Z</time>
      </trkpt>
      <trkpt lat="43.84193" lon="3.8929">
        <ele>261.74633789062</ele>
        <time>2020-10-13T18:33:22Z</time>
      </trkpt>
      <trkpt lat="43.84322" lon="3.8904">
        <ele>253.59188842773</ele>
        <time>2020-10-13T18:33:29Z</time>
      </trkpt>
      <trkpt lat="43.84355" lon="3.88984">
        <ele>251.16221618652</ele>
        <time>2020-10-13T18:33:37Z</time>
      </trkpt>
      <trkpt lat="43.84396" lon="3.88923">
        <ele>247.95663452148</ele>
        <time>2020-10-13T18:33:44Z</time>
      </trkpt>
      <trkpt lat="43.84411" lon="3.88891">
        <ele>246.3968963623</ele>
        <time>2020-10-13T18:33:52Z</time>
      </trkpt>
      <trkpt lat="43.84458" lon="3.88833">
        <ele>243.59161376953</ele>
        <time>2020-10-13T18:34:00Z</time>
      </trkpt>
      <trkpt lat="43.84499" lon="3.88738">
        <ele>237.75080871582</ele>
        <time>2020-10-13T18:34:07Z</time>
      </trkpt>
      <trkpt lat="43.84542" lon="3.88691">
        <ele>237.07592773438</ele>
        <time>2020-10-13T18:34:15Z</time>
      </trkpt>
      <trkpt lat="43.84573" lon="3.88647">
        <ele>234.90669250488</ele>
        <time>2020-10-13T18:34:23Z</time>
      </trkpt>
      <trkpt lat="43.84585" lon="3.88612">
        <ele>235.18264770508</ele>
        <time>2020-10-13T18:34:30Z</time>
      </trkpt>
      <trkpt lat="43.84596" lon="3.88563">
        <ele>232.6291809082</ele>
        <time>2020-10-13T18:34:38Z</time>
      </trkpt>
      <trkpt lat="43.8461" lon="3.88456">
        <ele>229.14091491699</ele>
        <time>2020-10-13T18:34:46Z</time>
      </trkpt>
      <trkpt lat="43.8462" lon="3.88264">
        <ele>216.8376159668</ele>
        <time>2020-10-13T18:34:53Z</time>
      </trkpt>
      <trkpt lat="43.84617" lon="3.88229">
        <ele>215.73379516602</ele>
        <time>2020-10-13T18:35:01Z</time>
      </trkpt>
      <trkpt lat="43.84609" lon="3.88197">
        <ele>215.73379516602</ele>
        <time>2020-10-13T18:35:09Z</time>
      </trkpt>
      <trkpt lat="43.84616" lon="3.88207">
        <ele>214.86993408203</ele>
        <time>2020-10-13T18:35:16Z</time>
      </trkpt>
      <trkpt lat="43.84633" lon="3.88254">
        <ele>213.86210632324</ele>
        <time>2020-10-13T18:35:24Z</time>
      </trkpt>
      <trkpt lat="43.84641" lon="3.88314">
        <ele>214.92118835449</ele>
        <time>2020-10-13T18:35:32Z</time>
      </trkpt>
      <trkpt lat="43.84681" lon="3.88396">
        <ele>211.23052978516</ele>
        <time>2020-10-13T18:35:40Z</time>
      </trkpt>
      <trkpt lat="43.84689" lon="3.88439">
        <ele>211.98640441895</ele>
        <time>2020-10-13T18:35:47Z</time>
      </trkpt>
      <trkpt lat="43.84696" lon="3.88596">
        <ele>212.90643310547</ele>
        <time>2020-10-13T18:35:55Z</time>
      </trkpt>
      <trkpt lat="43.84695" lon="3.8864">
        <ele>214.74537658691</ele>
        <time>2020-10-13T18:36:03Z</time>
      </trkpt>
      <trkpt lat="43.84703" lon="3.88692">
        <ele>213.12460327148</ele>
        <time>2020-10-13T18:36:11Z</time>
      </trkpt>
      <trkpt lat="43.84699" lon="3.88722">
        <ele>213.54806518555</ele>
        <time>2020-10-13T18:36:18Z</time>
      </trkpt>
      <trkpt lat="43.847" lon="3.88757">
        <ele>211.47241210938</ele>
        <time>2020-10-13T18:36:26Z</time>
      </trkpt>
      <trkpt lat="43.84711" lon="3.88805">
        <ele>205.05360412598</ele>
        <time>2020-10-13T18:36:34Z</time>
      </trkpt>
      <trkpt lat="43.8471" lon="3.88873">
        <ele>203.44532775879</ele>
        <time>2020-10-13T18:36:42Z</time>
      </trkpt>
      <trkpt lat="43.847" lon="3.88907">
        <ele>205.53707885742</ele>
        <time>2020-10-13T18:36:49Z</time>
      </trkpt>
      <trkpt lat="43.84704" lon="3.88928">
        <ele>202.64555358887</ele>
        <time>2020-10-13T18:36:57Z</time>
      </trkpt>
      <trkpt lat="43.84699" lon="3.88951">
        <ele>203.86576843262</ele>
        <time>2020-10-13T18:37:05Z</time>
      </trkpt>
      <trkpt lat="43.84697" lon="3.88985">
        <ele>201.65814208984</ele>
        <time>2020-10-13T18:37:13Z</time>
      </trkpt>
      <trkpt lat="43.847" lon="3.89003">
        <ele>199.17456054688</ele>
        <time>2020-10-13T18:37:21Z</time>
      </trkpt>
      <trkpt lat="43.84696" lon="3.89027">
        <ele>198.59248352051</ele>
        <time>2020-10-13T18:37:28Z</time>
      </trkpt>
      <trkpt lat="43.84713" lon="3.8912">
        <ele>187.51829528809</ele>
        <time>2020-10-13T18:37:36Z</time>
      </trkpt>
      <trkpt lat="43.84735" lon="3.89153">
        <ele>180.0979309082</ele>
        <time>2020-10-13T18:37:44Z</time>
      </trkpt>
      <trkpt lat="43.84772" lon="3.89173">
        <ele>168.54945373535</ele>
        <time>2020-10-13T18:37:52Z</time>
      </trkpt>
      <trkpt lat="43.84804" lon="3.892">
        <ele>164.3401184082</ele>
        <time>2020-10-13T18:38:00Z</time>
      </trkpt>
      <trkpt lat="43.8484" lon="3.89254">
        <ele>160.66873168945</ele>
        <time>2020-10-13T18:38:08Z</time>
      </trkpt>
      <trkpt lat="43.84879" lon="3.89296">
        <ele>157.61001586914</ele>
        <time>2020-10-13T18:38:15Z</time>
      </trkpt>
      <trkpt lat="43.84896" lon="3.89319">
        <ele>156.45541381836</ele>
        <time>2020-10-13T18:38:23Z</time>
      </trkpt>
      <trkpt lat="43.84907" lon="3.89303">
        <ele>155.93029785156</ele>
        <time>2020-10-13T18:38:31Z</time>
      </trkpt>
      <trkpt lat="43.84913" lon="3.89241">
        <ele>155.32870483398</ele>
        <time>2020-10-13T18:38:39Z</time>
      </trkpt>
      <trkpt lat="43.84935" lon="3.89149">
        <ele>157.1616973877</ele>
        <time>2020-10-13T18:38:47Z</time>
      </trkpt>
      <trkpt lat="43.8497" lon="3.8909">
        <ele>158.65675354004</ele>
        <time>2020-10-13T18:38:55Z</time>
      </trkpt>
      <trkpt lat="43.84981" lon="3.89104">
        <ele>158.05685424805</ele>
        <time>2020-10-13T18:39:03Z</time>
      </trkpt>
      <trkpt lat="43.85012" lon="3.8912">
        <ele>156.76728820801</ele>
        <time>2020-10-13T18:39:10Z</time>
      </trkpt>
      <trkpt lat="43.85138" lon="3.89174">
        <ele>158.15167236328</ele>
        <time>2020-10-13T18:39:18Z</time>
      </trkpt>
      <trkpt lat="43.8521" lon="3.89201">
        <ele>158.48348999023</ele>
        <time>2020-10-13T18:39:26Z</time>
      </trkpt>
      <trkpt lat="43.85363" lon="3.89229">
        <ele>159.06094360352</ele>
        <time>2020-10-13T18:39:34Z</time>
      </trkpt>
      <trkpt lat="43.85418" lon="3.89226">
        <ele>158.82154846191</ele>
        <time>2020-10-13T18:39:42Z</time>
      </trkpt>
      <trkpt lat="43.85469" lon="3.89217">
        <ele>158.67443847656</ele>
        <time>2020-10-13T18:39:50Z</time>
      </trkpt>
      <trkpt lat="43.85486" lon="3.89213">
        <ele>158.72244262695</ele>
        <time>2020-10-13T18:39:58Z</time>
      </trkpt>
      <trkpt lat="43.85524" lon="3.89196">
        <ele>159.00993347168</ele>
        <time>2020-10-13T18:40:06Z</time>
      </trkpt>
      <trkpt lat="43.8556" lon="3.89197">
        <ele>160.79454040527</ele>
        <time>2020-10-13T18:40:14Z</time>
      </trkpt>
      <trkpt lat="43.8558" lon="3.89194">
        <ele>161.75437927246</ele>
        <time>2020-10-13T18:40:22Z</time>
      </trkpt>
      <trkpt lat="43.85606" lon="3.89196">
        <ele>163.00108337402</ele>
        <time>2020-10-13T18:40:30Z</time>
      </trkpt>
      <trkpt lat="43.85616" lon="3.89202">
        <ele>163.24104309082</ele>
        <time>2020-10-13T18:40:38Z</time>
      </trkpt>
      <trkpt lat="43.85648" lon="3.89234">
        <ele>164.00891113281</ele>
        <time>2020-10-13T18:40:46Z</time>
      </trkpt>
      <trkpt lat="43.85644" lon="3.89248">
        <ele>163.91293334961</ele>
        <time>2020-10-13T18:40:54Z</time>
      </trkpt>
      <trkpt lat="43.85649" lon="3.89262">
        <ele>164.03291320801</ele>
        <time>2020-10-13T18:41:02Z</time>
      </trkpt>
      <trkpt lat="43.85766" lon="3.89354">
        <ele>161.22099304199</ele>
        <time>2020-10-13T18:41:10Z</time>
      </trkpt>
      <trkpt lat="43.85806" lon="3.89392">
        <ele>158.87397766113</ele>
        <time>2020-10-13T18:41:18Z</time>
      </trkpt>
      <trkpt lat="43.85888" lon="3.89461">
        <ele>156.38397216797</ele>
        <time>2020-10-13T18:41:26Z</time>
      </trkpt>
      <trkpt lat="43.85968" lon="3.89559">
        <ele>156.82989501953</ele>
        <time>2020-10-13T18:41:34Z</time>
      </trkpt>
      <trkpt lat="43.85973" lon="3.89569">
        <ele>156.70991516113</ele>
        <time>2020-10-13T18:41:42Z</time>
      </trkpt>
      <trkpt lat="43.85993" lon="3.89646">
        <ele>156.28753662109</ele>
        <time>2020-10-13T18:41:50Z</time>
      </trkpt>
      <trkpt lat="43.86054" lon="3.89779">
        <ele>160.05851745605</ele>
        <time>2020-10-13T18:41:58Z</time>
      </trkpt>
      <trkpt lat="43.86079" lon="3.89845">
        <ele>160.16648864746</ele>
        <time>2020-10-13T18:42:06Z</time>
      </trkpt>
      <trkpt lat="43.86093" lon="3.89898">
        <ele>160.03451538086</ele>
        <time>2020-10-13T18:42:15Z</time>
      </trkpt>
      <trkpt lat="43.86113" lon="3.9">
        <ele>160.97058105469</ele>
        <time>2020-10-13T18:42:23Z</time>
      </trkpt>
      <trkpt lat="43.86142" lon="3.90077">
        <ele>162.08204650879</ele>
        <time>2020-10-13T18:42:31Z</time>
      </trkpt>
      <trkpt lat="43.8616" lon="3.90136">
        <ele>162.58973693848</ele>
        <time>2020-10-13T18:42:39Z</time>
      </trkpt>
      <trkpt lat="43.86156" lon="3.90158">
        <ele>162.39776611328</ele>
        <time>2020-10-13T18:42:47Z</time>
      </trkpt>
      <trkpt lat="43.86148" lon="3.90291">
        <ele>161.80934143066</ele>
        <time>2020-10-13T18:42:55Z</time>
      </trkpt>
      <trkpt lat="43.86088" lon="3.90209">
        <ele>158.90673828125</ele>
        <time>2020-10-13T18:43:03Z</time>
      </trkpt>
      <trkpt lat="43.8601" lon="3.90307">
        <ele>156.79431152344</ele>
        <time>2020-10-13T18:43:12Z</time>
      </trkpt>
      <trkpt lat="43.85918" lon="3.90367">
        <ele>151.85241699219</ele>
        <time>2020-10-13T18:43:20Z</time>
      </trkpt>
      <trkpt lat="43.85894" lon="3.90376">
        <ele>150.5926361084</ele>
        <time>2020-10-13T18:43:28Z</time>
      </trkpt>
      <trkpt lat="43.85852" lon="3.90379">
        <ele>148.73277282715</ele>
        <time>2020-10-13T18:43:36Z</time>
      </trkpt>
      <trkpt lat="43.85817" lon="3.90387">
        <ele>148.63677978516</ele>
        <time>2020-10-13T18:43:44Z</time>
      </trkpt>
      <trkpt lat="43.85842" lon="3.90559">
        <ele>148.85374450684</ele>
        <time>2020-10-13T18:43:53Z</time>
      </trkpt>
      <trkpt lat="43.85832" lon="3.90598">
        <ele>149.42417907715</ele>
        <time>2020-10-13T18:44:01Z</time>
      </trkpt>
      <trkpt lat="43.85832" lon="3.90609">
        <ele>149.42417907715</ele>
        <time>2020-10-13T18:44:09Z</time>
      </trkpt>
      <trkpt lat="43.85856" lon="3.9073">
        <ele>148.56462097168</ele>
        <time>2020-10-13T18:44:17Z</time>
      </trkpt>
      <trkpt lat="43.85865" lon="3.90742">
        <ele>148.67260742188</ele>
        <time>2020-10-13T18:44:26Z</time>
      </trkpt>
      <trkpt lat="43.85886" lon="3.90752">
        <ele>149.57246398926</ele>
        <time>2020-10-13T18:44:34Z</time>
      </trkpt>
      <trkpt lat="43.85888" lon="3.90757">
        <ele>149.51246643066</ele>
        <time>2020-10-13T18:44:42Z</time>
      </trkpt>
      <trkpt lat="43.85936" lon="3.90739">
        <ele>153.03988647461</ele>
        <time>2020-10-13T18:44:50Z</time>
      </trkpt>
      <trkpt lat="43.85954" lon="3.90831">
        <ele>152.70338439941</ele>
        <time>2020-10-13T18:44:59Z</time>
      </trkpt>
      <trkpt lat="43.85933" lon="3.90843">
        <ele>151.61944580078</ele>
        <time>2020-10-13T18:45:07Z</time>
      </trkpt>
      <trkpt lat="43.85943" lon="3.90869">
        <ele>152.07308959961</ele>
        <time>2020-10-13T18:45:15Z</time>
      </trkpt>
      <trkpt lat="43.85951" lon="3.90874">
        <ele>152.4930267334</ele>
        <time>2020-10-13T18:45:24Z</time>
      </trkpt>
      <trkpt lat="43.85959" lon="3.90874">
        <ele>152.94334411621</ele>
        <time>2020-10-13T18:45:32Z</time>
      </trkpt>
      <trkpt lat="43.86004" lon="3.90862">
        <ele>155.10298156738</ele>
        <time>2020-10-13T18:45:40Z</time>
      </trkpt>
      <trkpt lat="43.86024" lon="3.90861">
        <ele>156.14135742188</ele>
        <time>2020-10-13T18:45:48Z</time>
      </trkpt>
      <trkpt lat="43.86047" lon="3.9087">
        <ele>158.49153137207</ele>
        <time>2020-10-13T18:45:57Z</time>
      </trkpt>
      <trkpt lat="43.86121" lon="3.90944">
        <ele>166.61561584473</ele>
        <time>2020-10-13T18:46:05Z</time>
      </trkpt>
      <trkpt lat="43.86208" lon="3.91022">
        <ele>175.56336975098</ele>
        <time>2020-10-13T18:46:13Z</time>
      </trkpt>
      <trkpt lat="43.86528" lon="3.91244">
        <ele>202.72830200195</ele>
        <time>2020-10-13T18:46:22Z</time>
      </trkpt>
      <trkpt lat="43.86534" lon="3.91243">
        <ele>203.28021240234</ele>
        <time>2020-10-13T18:46:30Z</time>
      </trkpt>
      <trkpt lat="43.86559" lon="3.91208">
        <ele>201.29393005371</ele>
        <time>2020-10-13T18:46:39Z</time>
      </trkpt>
      <trkpt lat="43.86575" lon="3.91193">
        <ele>199.35025024414</ele>
        <time>2020-10-13T18:46:47Z</time>
      </trkpt>
      <trkpt lat="43.86638" lon="3.91189">
        <ele>200.60667419434</ele>
        <time>2020-10-13T18:46:55Z</time>
      </trkpt>
      <trkpt lat="43.86661" lon="3.91166">
        <ele>198.12309265137</ele>
        <time>2020-10-13T18:47:04Z</time>
      </trkpt>
      <trkpt lat="43.86712" lon="3.91142">
        <ele>198.76292419434</ele>
        <time>2020-10-13T18:47:12Z</time>
      </trkpt>
      <trkpt lat="43.86775" lon="3.91135">
        <ele>202.40328979492</ele>
        <time>2020-10-13T18:47:21Z</time>
      </trkpt>
      <trkpt lat="43.86813" lon="3.91144">
        <ele>204.0749206543</ele>
        <time>2020-10-13T18:47:29Z</time>
      </trkpt>
      <trkpt lat="43.8681" lon="3.91129">
        <ele>204.5788269043</ele>
        <time>2020-10-13T18:47:38Z</time>
      </trkpt>
      <trkpt lat="43.86796" lon="3.91116">
        <ele>203.5110168457</ele>
        <time>2020-10-13T18:47:46Z</time>
      </trkpt>
      <trkpt lat="43.86757" lon="3.91093">
        <ele>199.86145019531</ele>
        <time>2020-10-13T18:47:54Z</time>
      </trkpt>
      <trkpt lat="43.86732" lon="3.91065">
        <ele>198.06175231934</ele>
        <time>2020-10-13T18:48:03Z</time>
      </trkpt>
      <trkpt lat="43.86721" lon="3.91048">
        <ele>197.26988220215</ele>
        <time>2020-10-13T18:48:11Z</time>
      </trkpt>
      <trkpt lat="43.86719" lon="3.91021">
        <ele>197.03573608398</ele>
        <time>2020-10-13T18:48:20Z</time>
      </trkpt>
      <trkpt lat="43.86758" lon="3.90975">
        <ele>197.37915039062</ele>
        <time>2020-10-13T18:48:28Z</time>
      </trkpt>
      <trkpt lat="43.86813" lon="3.9093">
        <ele>201.91813659668</ele>
        <time>2020-10-13T18:48:37Z</time>
      </trkpt>
      <trkpt lat="43.86816" lon="3.90905">
        <ele>204.97761535645</ele>
        <time>2020-10-13T18:48:45Z</time>
      </trkpt>
      <trkpt lat="43.86821" lon="3.90894">
        <ele>205.71002197266</ele>
        <time>2020-10-13T18:48:54Z</time>
      </trkpt>
      <trkpt lat="43.8684" lon="3.9087">
        <ele>206.45390319824</ele>
        <time>2020-10-13T18:49:02Z</time>
      </trkpt>
      <trkpt lat="43.86856" lon="3.9086">
        <ele>206.95782470703</ele>
        <time>2020-10-13T18:49:11Z</time>
      </trkpt>
      <trkpt lat="43.86872" lon="3.90858">
        <ele>208.06423950195</ele>
        <time>2020-10-13T18:49:19Z</time>
      </trkpt>
      <trkpt lat="43.86895" lon="3.90825">
        <ele>214.2914276123</ele>
        <time>2020-10-13T18:49:28Z</time>
      </trkpt>
      <trkpt lat="43.86901" lon="3.90822">
        <ele>215.1192779541</ele>
        <time>2020-10-13T18:49:36Z</time>
      </trkpt>
      <trkpt lat="43.86923" lon="3.90823">
        <ele>216.69822692871</ele>
        <time>2020-10-13T18:49:45Z</time>
      </trkpt>
      <trkpt lat="43.86925" lon="3.90815">
        <ele>218.30595397949</ele>
        <time>2020-10-13T18:49:53Z</time>
      </trkpt>
      <trkpt lat="43.86924" lon="3.90811">
        <ele>218.94184875488</ele>
        <time>2020-10-13T18:50:02Z</time>
      </trkpt>
      <trkpt lat="43.869" lon="3.90795">
        <ele>219.80570983887</ele>
        <time>2020-10-13T18:50:10Z</time>
      </trkpt>
      <trkpt lat="43.86889" lon="3.90792">
        <ele>219.42176818848</ele>
        <time>2020-10-13T18:50:19Z</time>
      </trkpt>
      <trkpt lat="43.86862" lon="3.90806">
        <ele>215.2752532959</ele>
        <time>2020-10-13T18:50:27Z</time>
      </trkpt>
      <trkpt lat="43.86793" lon="3.90803">
        <ele>209.35804748535</ele>
        <time>2020-10-13T18:50:36Z</time>
      </trkpt>
      <trkpt lat="43.86775" lon="3.90773">
        <ele>211.21362304688</ele>
        <time>2020-10-13T18:50:44Z</time>
      </trkpt>
      <trkpt lat="43.86775" lon="3.90759">
        <ele>210.54173278809</ele>
        <time>2020-10-13T18:50:53Z</time>
      </trkpt>
      <trkpt lat="43.86792" lon="3.90704">
        <ele>210.11940002441</ele>
        <time>2020-10-13T18:51:01Z</time>
      </trkpt>
      <trkpt lat="43.86796" lon="3.907">
        <ele>210.9352722168</ele>
        <time>2020-10-13T18:51:10Z</time>
      </trkpt>
      <trkpt lat="43.86829" lon="3.90694">
        <ele>217.01824951172</ele>
        <time>2020-10-13T18:51:19Z</time>
      </trkpt>
      <trkpt lat="43.86862" lon="3.90682">
        <ele>222.81637573242</ele>
        <time>2020-10-13T18:51:27Z</time>
      </trkpt>
      <trkpt lat="43.86869" lon="3.90686">
        <ele>224.7840423584</ele>
        <time>2020-10-13T18:51:36Z</time>
      </trkpt>
      <trkpt lat="43.8688" lon="3.90706">
        <ele>224.86125183105</ele>
        <time>2020-10-13T18:51:44Z</time>
      </trkpt>
      <trkpt lat="43.86898" lon="3.90709">
        <ele>228.640625</ele>
        <time>2020-10-13T18:51:53Z</time>
      </trkpt>
      <trkpt lat="43.8693" lon="3.90707">
        <ele>236.6792755127</ele>
        <time>2020-10-13T18:52:01Z</time>
      </trkpt>
      <trkpt lat="43.86959" lon="3.90701">
        <ele>240.89453125</ele>
        <time>2020-10-13T18:52:10Z</time>
      </trkpt>
      <trkpt lat="43.87004" lon="3.907">
        <ele>244.92585754395</ele>
        <time>2020-10-13T18:52:19Z</time>
      </trkpt>
      <trkpt lat="43.87028" lon="3.90694">
        <ele>248.65608215332</ele>
        <time>2020-10-13T18:52:27Z</time>
      </trkpt>
      <trkpt lat="43.87055" lon="3.90682">
        <ele>251.60984802246</ele>
        <time>2020-10-13T18:52:36Z</time>
      </trkpt>
      <trkpt lat="43.87067" lon="3.90682">
        <ele>252.32972717285</ele>
        <time>2020-10-13T18:52:44Z</time>
      </trkpt>
      <trkpt lat="43.87086" lon="3.90686">
        <ele>253.13359069824</ele>
        <time>2020-10-13T18:52:53Z</time>
      </trkpt>
      <trkpt lat="43.87106" lon="3.90699">
        <ele>252.49543762207</ele>
        <time>2020-10-13T18:53:01Z</time>
      </trkpt>
      <trkpt lat="43.87128" lon="3.90702">
        <ele>256.66290283203</ele>
        <time>2020-10-13T18:53:10Z</time>
      </trkpt>
      <trkpt lat="43.87157" lon="3.90724">
        <ele>259.68640136719</ele>
        <time>2020-10-13T18:53:19Z</time>
      </trkpt>
      <trkpt lat="43.87161" lon="3.90716">
        <ele>261.03018188477</ele>
        <time>2020-10-13T18:53:27Z</time>
      </trkpt>
      <trkpt lat="43.87151" lon="3.90631">
        <ele>266.2116394043</ele>
        <time>2020-10-13T18:53:36Z</time>
      </trkpt>
      <trkpt lat="43.87161" lon="3.90602">
        <ele>268.57434082031</ele>
        <time>2020-10-13T18:53:45Z</time>
      </trkpt>
      <trkpt lat="43.87164" lon="3.90583">
        <ele>268.93426513672</ele>
        <time>2020-10-13T18:53:53Z</time>
      </trkpt>
      <trkpt lat="43.87159" lon="3.90494">
        <ele>268.82269287109</ele>
        <time>2020-10-13T18:54:02Z</time>
      </trkpt>
      <trkpt lat="43.87161" lon="3.90479">
        <ele>267.65313720703</ele>
        <time>2020-10-13T18:54:10Z</time>
      </trkpt>
      <trkpt lat="43.87202" lon="3.9048">
        <ele>272.62445068359</ele>
        <time>2020-10-13T18:54:19Z</time>
      </trkpt>
      <trkpt lat="43.8723" lon="3.90463">
        <ele>273.34219360352</ele>
        <time>2020-10-13T18:54:28Z</time>
      </trkpt>
      <trkpt lat="43.87246" lon="3.90459">
        <ele>273.34219360352</ele>
        <time>2020-10-13T18:54:36Z</time>
      </trkpt>
      <trkpt lat="43.87268" lon="3.90461">
        <ele>274.7819519043</ele>
        <time>2020-10-13T18:54:45Z</time>
      </trkpt>
      <trkpt lat="43.87291" lon="3.90474">
        <ele>279.25003051758</ele>
        <time>2020-10-13T18:54:54Z</time>
      </trkpt>
      <trkpt lat="43.87336" lon="3.90461">
        <ele>278.54364013672</ele>
        <time>2020-10-13T18:55:02Z</time>
      </trkpt>
      <trkpt lat="43.87391" lon="3.90459">
        <ele>282.0671081543</ele>
        <time>2020-10-13T18:55:11Z</time>
      </trkpt>
      <trkpt lat="43.87408" lon="3.90449">
        <ele>281.62316894531</ele>
        <time>2020-10-13T18:55:20Z</time>
      </trkpt>
      <trkpt lat="43.87423" lon="3.90434">
        <ele>280.91665649414</ele>
        <time>2020-10-13T18:55:28Z</time>
      </trkpt>
      <trkpt lat="43.87452" lon="3.90392">
        <ele>287.39111328125</ele>
        <time>2020-10-13T18:55:37Z</time>
      </trkpt>
      <trkpt lat="43.87466" lon="3.90378">
        <ele>290.35299682617</ele>
        <time>2020-10-13T18:55:46Z</time>
      </trkpt>
      <trkpt lat="43.87471" lon="3.90365">
        <ele>291.60079956055</ele>
        <time>2020-10-13T18:55:54Z</time>
      </trkpt>
      <trkpt lat="43.87472" lon="3.9036">
        <ele>291.93673706055</ele>
        <time>2020-10-13T18:56:03Z</time>
      </trkpt>
      <trkpt lat="43.87461" lon="3.90354">
        <ele>290.666015625</ele>
        <time>2020-10-13T18:56:12Z</time>
      </trkpt>
      <trkpt lat="43.87425" lon="3.9035">
        <ele>284.91122436523</ele>
        <time>2020-10-13T18:56:20Z</time>
      </trkpt>
      <trkpt lat="43.87375" lon="3.90337">
        <ele>276.42861938477</ele>
        <time>2020-10-13T18:56:29Z</time>
      </trkpt>
      <trkpt lat="43.87344" lon="3.90319">
        <ele>272.18740844727</ele>
        <time>2020-10-13T18:56:38Z</time>
      </trkpt>
      <trkpt lat="43.87315" lon="3.90288">
        <ele>269.66784667969</ele>
        <time>2020-10-13T18:56:47Z</time>
      </trkpt>
      <trkpt lat="43.87286" lon="3.90247">
        <ele>265.61950683594</ele>
        <time>2020-10-13T18:56:55Z</time>
      </trkpt>
      <trkpt lat="43.87275" lon="3.90236">
        <ele>263.37585449219</ele>
        <time>2020-10-13T18:57:04Z</time>
      </trkpt>
      <trkpt lat="43.87267" lon="3.90217">
        <ele>262.07888793945</ele>
        <time>2020-10-13T18:57:13Z</time>
      </trkpt>
      <trkpt lat="43.87279" lon="3.90119">
        <ele>266.16979980469</ele>
        <time>2020-10-13T18:57:22Z</time>
      </trkpt>
      <trkpt lat="43.87285" lon="3.90096">
        <ele>267.74154663086</ele>
        <time>2020-10-13T18:57:30Z</time>
      </trkpt>
      <trkpt lat="43.87296" lon="3.90091">
        <ele>270.17712402344</ele>
        <time>2020-10-13T18:57:39Z</time>
      </trkpt>
      <trkpt lat="43.87309" lon="3.90047">
        <ele>273.06484985352</ele>
        <time>2020-10-13T18:57:48Z</time>
      </trkpt>
      <trkpt lat="43.87336" lon="3.90039">
        <ele>277.73205566406</ele>
        <time>2020-10-13T18:57:56Z</time>
      </trkpt>
      <trkpt lat="43.87356" lon="3.90019">
        <ele>280.95269775391</ele>
        <time>2020-10-13T18:58:05Z</time>
      </trkpt>
      <trkpt lat="43.87374" lon="3.90016">
        <ele>284.19509887695</ele>
        <time>2020-10-13T18:58:14Z</time>
      </trkpt>
      <trkpt lat="43.87388" lon="3.9001">
        <ele>286.71469116211</ele>
        <time>2020-10-13T18:58:23Z</time>
      </trkpt>
      <trkpt lat="43.87392" lon="3.90004">
        <ele>287.4345703125</ele>
        <time>2020-10-13T18:58:32Z</time>
      </trkpt>
      <trkpt lat="43.87402" lon="3.89979">
        <ele>289.39611816406</ele>
        <time>2020-10-13T18:58:40Z</time>
      </trkpt>
      <trkpt lat="43.874" lon="3.89959">
        <ele>289.46810913086</ele>
        <time>2020-10-13T18:58:49Z</time>
      </trkpt>
      <trkpt lat="43.87405" lon="3.89939">
        <ele>290.90841674805</ele>
        <time>2020-10-13T18:58:58Z</time>
      </trkpt>
      <trkpt lat="43.87422" lon="3.89912">
        <ele>293.52874755859</ele>
        <time>2020-10-13T18:59:07Z</time>
      </trkpt>
      <trkpt lat="43.87434" lon="3.89857">
        <ele>294.8005065918</ele>
        <time>2020-10-13T18:59:15Z</time>
      </trkpt>
      <trkpt lat="43.87449" lon="3.8983">
        <ele>298.9342956543</ele>
        <time>2020-10-13T18:59:24Z</time>
      </trkpt>
      <trkpt lat="43.87445" lon="3.89801">
        <ele>297.68649291992</ele>
        <time>2020-10-13T18:59:33Z</time>
      </trkpt>
      <trkpt lat="43.8746" lon="3.89749">
        <ele>301.78268432617</ele>
        <time>2020-10-13T18:59:42Z</time>
      </trkpt>
      <trkpt lat="43.87463" lon="3.89717">
        <ele>301.95068359375</ele>
        <time>2020-10-13T18:59:51Z</time>
      </trkpt>
      <trkpt lat="43.87474" lon="3.8968">
        <ele>305.85205078125</ele>
        <time>2020-10-13T18:59:59Z</time>
      </trkpt>
      <trkpt lat="43.87481" lon="3.89583">
        <ele>311.09323120117</ele>
        <time>2020-10-13T19:00:08Z</time>
      </trkpt>
      <trkpt lat="43.87478" lon="3.89528">
        <ele>313.86477661133</ele>
        <time>2020-10-13T19:00:17Z</time>
      </trkpt>
      <trkpt lat="43.87487" lon="3.89407">
        <ele>318.94372558594</ele>
        <time>2020-10-13T19:00:26Z</time>
      </trkpt>
      <trkpt lat="43.87497" lon="3.8934">
        <ele>321.31842041016</ele>
        <time>2020-10-13T19:00:35Z</time>
      </trkpt>
      <trkpt lat="43.87515" lon="3.89272">
        <ele>324.27767944336</ele>
        <time>2020-10-13T19:00:44Z</time>
      </trkpt>
      <trkpt lat="43.87542" lon="3.89189">
        <ele>325.7727355957</ele>
        <time>2020-10-13T19:00:52Z</time>
      </trkpt>
      <trkpt lat="43.87594" lon="3.89098">
        <ele>330.11264038086</ele>
        <time>2020-10-13T19:01:01Z</time>
      </trkpt>
      <trkpt lat="43.87618" lon="3.89046">
        <ele>335.83544921875</ele>
        <time>2020-10-13T19:01:10Z</time>
      </trkpt>
      <trkpt lat="43.87625" lon="3.89017">
        <ele>337.60525512695</ele>
        <time>2020-10-13T19:01:19Z</time>
      </trkpt>
      <trkpt lat="43.87627" lon="3.88938">
        <ele>340.8825378418</ele>
        <time>2020-10-13T19:01:28Z</time>
      </trkpt>
      <trkpt lat="43.87623" lon="3.88874">
        <ele>345.72973632812</ele>
        <time>2020-10-13T19:01:37Z</time>
      </trkpt>
      <trkpt lat="43.87595" lon="3.88702">
        <ele>353.88858032227</ele>
        <time>2020-10-13T19:01:46Z</time>
      </trkpt>
      <trkpt lat="43.87566" lon="3.88614">
        <ele>354.61535644531</ele>
        <time>2020-10-13T19:01:55Z</time>
      </trkpt>
      <trkpt lat="43.87564" lon="3.88597">
        <ele>354.24227905273</ele>
        <time>2020-10-13T19:02:04Z</time>
      </trkpt>
      <trkpt lat="43.87573" lon="3.88598">
        <ele>357.10980224609</ele>
        <time>2020-10-13T19:02:13Z</time>
      </trkpt>
      <trkpt lat="43.87629" lon="3.88585">
        <ele>370.17999267578</ele>
        <time>2020-10-13T19:02:22Z</time>
      </trkpt>
      <trkpt lat="43.87679" lon="3.88585">
        <ele>374.849609375</ele>
        <time>2020-10-13T19:02:30Z</time>
      </trkpt>
      <trkpt lat="43.8769" lon="3.88588">
        <ele>375.78756713867</ele>
        <time>2020-10-13T19:02:39Z</time>
      </trkpt>
      <trkpt lat="43.87711" lon="3.88606">
        <ele>376.50744628906</ele>
        <time>2020-10-13T19:02:48Z</time>
      </trkpt>
      <trkpt lat="43.87741" lon="3.88598">
        <ele>377.13134765625</ele>
        <time>2020-10-13T19:02:57Z</time>
      </trkpt>
      <trkpt lat="43.87764" lon="3.88603">
        <ele>377.74322509766</ele>
        <time>2020-10-13T19:03:06Z</time>
      </trkpt>
      <trkpt lat="43.87776" lon="3.88602">
        <ele>377.7487487793</ele>
        <time>2020-10-13T19:03:15Z</time>
      </trkpt>
      <trkpt lat="43.87768" lon="3.88589">
        <ele>377.52185058594</ele>
        <time>2020-10-13T19:03:24Z</time>
      </trkpt>
      <trkpt lat="43.87768" lon="3.88552">
        <ele>376.63400268555</ele>
        <time>2020-10-13T19:03:33Z</time>
      </trkpt>
      <trkpt lat="43.87764" lon="3.88535">
        <ele>376.17807006836</ele>
        <time>2020-10-13T19:03:42Z</time>
      </trkpt>
      <trkpt lat="43.87735" lon="3.88484">
        <ele>373.70816040039</ele>
        <time>2020-10-13T19:03:51Z</time>
      </trkpt>
      <trkpt lat="43.87724" lon="3.88448">
        <ele>372.7483215332</ele>
        <time>2020-10-13T19:04:00Z</time>
      </trkpt>
      <trkpt lat="43.87724" lon="3.88362">
        <ele>371.02639770508</ele>
        <time>2020-10-13T19:04:09Z</time>
      </trkpt>
      <trkpt lat="43.8772" lon="3.88333">
        <ele>370.4479675293</ele>
        <time>2020-10-13T19:04:18Z</time>
      </trkpt>
      <trkpt lat="43.87687" lon="3.88267">
        <ele>368.41787719727</ele>
        <time>2020-10-13T19:04:27Z</time>
      </trkpt>
      <trkpt lat="43.87678" lon="3.88245">
        <ele>366.4621887207</ele>
        <time>2020-10-13T19:04:36Z</time>
      </trkpt>
      <trkpt lat="43.87675" lon="3.88225">
        <ele>366.1142578125</ele>
        <time>2020-10-13T19:04:45Z</time>
      </trkpt>
      <trkpt lat="43.8768" lon="3.88184">
        <ele>368.61462402344</ele>
        <time>2020-10-13T19:04:54Z</time>
      </trkpt>
      <trkpt lat="43.87689" lon="3.88179">
        <ele>370.97592163086</ele>
        <time>2020-10-13T19:05:03Z</time>
      </trkpt>
      <trkpt lat="43.87711" lon="3.88135">
        <ele>372.1689453125</ele>
        <time>2020-10-13T19:05:12Z</time>
      </trkpt>
      <trkpt lat="43.87712" lon="3.88119">
        <ele>372.50149536133</ele>
        <time>2020-10-13T19:05:21Z</time>
      </trkpt>
      <trkpt lat="43.87706" lon="3.88085">
        <ele>372.84521484375</ele>
        <time>2020-10-13T19:05:30Z</time>
      </trkpt>
      <trkpt lat="43.87711" lon="3.88053">
        <ele>373.40911865234</ele>
        <time>2020-10-13T19:05:40Z</time>
      </trkpt>
      <trkpt lat="43.87731" lon="3.88018">
        <ele>374.36877441406</ele>
        <time>2020-10-13T19:05:49Z</time>
      </trkpt>
      <trkpt lat="43.87739" lon="3.87996">
        <ele>374.12881469727</ele>
        <time>2020-10-13T19:05:58Z</time>
      </trkpt>
      <trkpt lat="43.87759" lon="3.87907">
        <ele>374.98571777344</ele>
        <time>2020-10-13T19:06:07Z</time>
      </trkpt>
      <trkpt lat="43.87792" lon="3.87826">
        <ele>371.63265991211</ele>
        <time>2020-10-13T19:06:16Z</time>
      </trkpt>
      <trkpt lat="43.87818" lon="3.87721">
        <ele>367.0185546875</ele>
        <time>2020-10-13T19:06:25Z</time>
      </trkpt>
      <trkpt lat="43.87818" lon="3.87703">
        <ele>365.72277832031</ele>
        <time>2020-10-13T19:06:34Z</time>
      </trkpt>
      <trkpt lat="43.87805" lon="3.8766">
        <ele>364.62911987305</ele>
        <time>2020-10-13T19:06:43Z</time>
      </trkpt>
      <trkpt lat="43.878" lon="3.87607">
        <ele>361.81985473633</ele>
        <time>2020-10-13T19:06:52Z</time>
      </trkpt>
      <trkpt lat="43.87799" lon="3.87573">
        <ele>360.28179931641</ele>
        <time>2020-10-13T19:07:01Z</time>
      </trkpt>
      <trkpt lat="43.87803" lon="3.87538">
        <ele>357.94290161133</ele>
        <time>2020-10-13T19:07:10Z</time>
      </trkpt>
      <trkpt lat="43.87795" lon="3.8752">
        <ele>357.98901367188</ele>
        <time>2020-10-13T19:07:19Z</time>
      </trkpt>
      <trkpt lat="43.87783" lon="3.87508">
        <ele>359.14083862305</ele>
        <time>2020-10-13T19:07:29Z</time>
      </trkpt>
      <trkpt lat="43.87761" lon="3.87494">
        <ele>360.24652099609</ele>
        <time>2020-10-13T19:07:38Z</time>
      </trkpt>
      <trkpt lat="43.87707" lon="3.87468">
        <ele>360.47375488281</ele>
        <time>2020-10-13T19:07:47Z</time>
      </trkpt>
      <trkpt lat="43.87678" lon="3.87448">
        <ele>359.92297363281</ele>
        <time>2020-10-13T19:07:56Z</time>
      </trkpt>
      <trkpt lat="43.87669" lon="3.87427">
        <ele>359.35397338867</ele>
        <time>2020-10-13T19:08:05Z</time>
      </trkpt>
      <trkpt lat="43.8767" lon="3.87411">
        <ele>359.07873535156</ele>
        <time>2020-10-13T19:08:14Z</time>
      </trkpt>
      <trkpt lat="43.8768" lon="3.87371">
        <ele>358.23889160156</ele>
        <time>2020-10-13T19:08:23Z</time>
      </trkpt>
      <trkpt lat="43.87681" lon="3.87325">
        <ele>356.29412841797</ele>
        <time>2020-10-13T19:08:32Z</time>
      </trkpt>
      <trkpt lat="43.87687" lon="3.87296">
        <ele>355.04635620117</ele>
        <time>2020-10-13T19:08:42Z</time>
      </trkpt>
      <trkpt lat="43.87697" lon="3.87275">
        <ele>353.73626708984</ele>
        <time>2020-10-13T19:08:51Z</time>
      </trkpt>
      <trkpt lat="43.87733" lon="3.87231">
        <ele>350.39361572266</ele>
        <time>2020-10-13T19:09:00Z</time>
      </trkpt>
      <trkpt lat="43.87741" lon="3.87205">
        <ele>349.28979492188</ele>
        <time>2020-10-13T19:09:09Z</time>
      </trkpt>
      <trkpt lat="43.87721" lon="3.87113">
        <ele>341.66348266602</ele>
        <time>2020-10-13T19:09:18Z</time>
      </trkpt>
      <trkpt lat="43.87712" lon="3.87102">
        <ele>341.37243652344</ele>
        <time>2020-10-13T19:09:27Z</time>
      </trkpt>
      <trkpt lat="43.87678" lon="3.87111">
        <ele>346.0673828125</ele>
        <time>2020-10-13T19:09:37Z</time>
      </trkpt>
      <trkpt lat="43.87669" lon="3.8711">
        <ele>345.77944946289</ele>
        <time>2020-10-13T19:09:46Z</time>
      </trkpt>
      <trkpt lat="43.87662" lon="3.87105">
        <ele>345.33685302734</ele>
        <time>2020-10-13T19:09:55Z</time>
      </trkpt>
      <trkpt lat="43.87652" lon="3.87083">
        <ele>345.09689331055</ele>
        <time>2020-10-13T19:10:04Z</time>
      </trkpt>
      <trkpt lat="43.87624" lon="3.87059">
        <ele>344.42501831055</ele>
        <time>2020-10-13T19:10:13Z</time>
      </trkpt>
      <trkpt lat="43.87585" lon="3.87004">
        <ele>342.55569458008</ele>
        <time>2020-10-13T19:10:23Z</time>
      </trkpt>
      <trkpt lat="43.87578" lon="3.86998">
        <ele>342.08776855469</ele>
        <time>2020-10-13T19:10:32Z</time>
      </trkpt>
      <trkpt lat="43.87539" lon="3.86993">
        <ele>340.50402832031</ele>
        <time>2020-10-13T19:10:41Z</time>
      </trkpt>
      <trkpt lat="43.87526" lon="3.86954">
        <ele>338.63235473633</ele>
        <time>2020-10-13T19:10:50Z</time>
      </trkpt>
      <trkpt lat="43.87534" lon="3.86874">
        <ele>336.04077148438</ele>
        <time>2020-10-13T19:10:59Z</time>
      </trkpt>
      <trkpt lat="43.87542" lon="3.86856">
        <ele>335.67395019531</ele>
        <time>2020-10-13T19:11:09Z</time>
      </trkpt>
      <trkpt lat="43.87582" lon="3.86788">
        <ele>332.98120117188</ele>
        <time>2020-10-13T19:11:18Z</time>
      </trkpt>
      <trkpt lat="43.87596" lon="3.86771">
        <ele>333.17315673828</ele>
        <time>2020-10-13T19:11:27Z</time>
      </trkpt>
      <trkpt lat="43.87621" lon="3.86749">
        <ele>332.96694946289</ele>
        <time>2020-10-13T19:11:36Z</time>
      </trkpt>
      <trkpt lat="43.87651" lon="3.86705">
        <ele>332.42279052734</ele>
        <time>2020-10-13T19:11:46Z</time>
      </trkpt>
      <trkpt lat="43.87673" lon="3.86652">
        <ele>333.20162963867</ele>
        <time>2020-10-13T19:11:55Z</time>
      </trkpt>
      <trkpt lat="43.87685" lon="3.86613">
        <ele>333.77752685547</ele>
        <time>2020-10-13T19:12:04Z</time>
      </trkpt>
      <trkpt lat="43.87678" lon="3.8647">
        <ele>333.35375976562</ele>
        <time>2020-10-13T19:12:13Z</time>
      </trkpt>
      <trkpt lat="43.8768" lon="3.86374">
        <ele>332.8684387207</ele>
        <time>2020-10-13T19:12:23Z</time>
      </trkpt>
      <trkpt lat="43.87671" lon="3.86341">
        <ele>332.50994873047</ele>
        <time>2020-10-13T19:12:32Z</time>
      </trkpt>
      <trkpt lat="43.87675" lon="3.86296">
        <ele>331.55877685547</ele>
        <time>2020-10-13T19:12:41Z</time>
      </trkpt>
      <trkpt lat="43.87679" lon="3.86284">
        <ele>331.27084350586</ele>
        <time>2020-10-13T19:12:51Z</time>
      </trkpt>
      <trkpt lat="43.87669" lon="3.86189">
        <ele>329.24230957031</ele>
        <time>2020-10-13T19:13:00Z</time>
      </trkpt>
      <trkpt lat="43.87662" lon="3.86169">
        <ele>329.90219116211</ele>
        <time>2020-10-13T19:13:09Z</time>
      </trkpt>
      <trkpt lat="43.87655" lon="3.86161">
        <ele>330.41812133789</ele>
        <time>2020-10-13T19:13:19Z</time>
      </trkpt>
      <trkpt lat="43.87669" lon="3.86077">
        <ele>332.22631835938</ele>
        <time>2020-10-13T19:13:28Z</time>
      </trkpt>
      <trkpt lat="43.87674" lon="3.86064">
        <ele>332.64627075195</ele>
        <time>2020-10-13T19:13:37Z</time>
      </trkpt>
      <trkpt lat="43.87679" lon="3.86063">
        <ele>332.34631347656</ele>
        <time>2020-10-13T19:13:46Z</time>
      </trkpt>
      <trkpt lat="43.87683" lon="3.86076">
        <ele>331.27847290039</ele>
        <time>2020-10-13T19:13:56Z</time>
      </trkpt>
      <trkpt lat="43.87679" lon="3.86108">
        <ele>329.61422729492</ele>
        <time>2020-10-13T19:14:05Z</time>
      </trkpt>
      <trkpt lat="43.87681" lon="3.86134">
        <ele>329.18231201172</ele>
        <time>2020-10-13T19:14:14Z</time>
      </trkpt>
      <trkpt lat="43.87713" lon="3.86281">
        <ele>322.96987915039</ele>
        <time>2020-10-13T19:14:24Z</time>
      </trkpt>
      <trkpt lat="43.8773" lon="3.86423">
        <ele>319.75857543945</ele>
        <time>2020-10-13T19:14:33Z</time>
      </trkpt>
      <trkpt lat="43.87734" lon="3.86512">
        <ele>318.22497558594</ele>
        <time>2020-10-13T19:14:43Z</time>
      </trkpt>
      <trkpt lat="43.87729" lon="3.86572">
        <ele>319.42193603516</ele>
        <time>2020-10-13T19:14:52Z</time>
      </trkpt>
      <trkpt lat="43.87732" lon="3.86576">
        <ele>318.39010620117</ele>
        <time>2020-10-13T19:15:01Z</time>
      </trkpt>
      <trkpt lat="43.8774" lon="3.86573">
        <ele>315.47744750977</ele>
        <time>2020-10-13T19:15:11Z</time>
      </trkpt>
      <trkpt lat="43.87742" lon="3.86516">
        <ele>315.48944091797</ele>
        <time>2020-10-13T19:15:20Z</time>
      </trkpt>
      <trkpt lat="43.87752" lon="3.8645">
        <ele>312.30072021484</ele>
        <time>2020-10-13T19:15:30Z</time>
      </trkpt>
      <trkpt lat="43.87768" lon="3.86275">
        <ele>303.76107788086</ele>
        <time>2020-10-13T19:15:39Z</time>
      </trkpt>
      <trkpt lat="43.87767" lon="3.86238">
        <ele>302.83212280273</ele>
        <time>2020-10-13T19:15:48Z</time>
      </trkpt>
      <trkpt lat="43.87762" lon="3.86217">
        <ele>303.81594848633</ele>
        <time>2020-10-13T19:15:58Z</time>
      </trkpt>
      <trkpt lat="43.87769" lon="3.86212">
        <ele>301.20037841797</ele>
        <time>2020-10-13T19:16:07Z</time>
      </trkpt>
      <trkpt lat="43.87766" lon="3.86115">
        <ele>301.51330566406</ele>
        <time>2020-10-13T19:16:17Z</time>
      </trkpt>
      <trkpt lat="43.87774" lon="3.86029">
        <ele>298.59716796875</ele>
        <time>2020-10-13T19:16:26Z</time>
      </trkpt>
      <trkpt lat="43.87775" lon="3.85985">
        <ele>301.34088134766</ele>
        <time>2020-10-13T19:16:36Z</time>
      </trkpt>
      <trkpt lat="43.87782" lon="3.85942">
        <ele>301.86849975586</ele>
        <time>2020-10-13T19:16:45Z</time>
      </trkpt>
      <trkpt lat="43.87804" lon="3.85893">
        <ele>299.45593261719</ele>
        <time>2020-10-13T19:16:55Z</time>
      </trkpt>
      <trkpt lat="43.87811" lon="3.85867">
        <ele>298.46047973633</ele>
        <time>2020-10-13T19:17:04Z</time>
      </trkpt>
      <trkpt lat="43.87826" lon="3.85775">
        <ele>292.37533569336</ele>
        <time>2020-10-13T19:17:14Z</time>
      </trkpt>
      <trkpt lat="43.87827" lon="3.85714">
        <ele>284.44842529297</ele>
        <time>2020-10-13T19:17:23Z</time>
      </trkpt>
      <trkpt lat="43.87824" lon="3.85681">
        <ele>280.93194580078</ele>
        <time>2020-10-13T19:17:33Z</time>
      </trkpt>
      <trkpt lat="43.87816" lon="3.85637">
        <ele>272.76654052734</ele>
        <time>2020-10-13T19:17:42Z</time>
      </trkpt>
      <trkpt lat="43.87798" lon="3.85594">
        <ele>269.01312255859</ele>
        <time>2020-10-13T19:17:52Z</time>
      </trkpt>
      <trkpt lat="43.87787" lon="3.85577">
        <ele>266.18157958984</ele>
        <time>2020-10-13T19:18:01Z</time>
      </trkpt>
      <trkpt lat="43.87762" lon="3.85552">
        <ele>263.26879882812</ele>
        <time>2020-10-13T19:18:11Z</time>
      </trkpt>
      <trkpt lat="43.87721" lon="3.85531">
        <ele>262.58489990234</ele>
        <time>2020-10-13T19:18:20Z</time>
      </trkpt>
      <trkpt lat="43.87675" lon="3.85519">
        <ele>269.84750366211</ele>
        <time>2020-10-13T19:18:30Z</time>
      </trkpt>
      <trkpt lat="43.87675" lon="3.85505">
        <ele>265.86868286133</ele>
        <time>2020-10-13T19:18:39Z</time>
      </trkpt>
      <trkpt lat="43.87682" lon="3.85504">
        <ele>262.06533813477</ele>
        <time>2020-10-13T19:18:49Z</time>
      </trkpt>
      <trkpt lat="43.87771" lon="3.85524">
        <ele>250.8988494873</ele>
        <time>2020-10-13T19:18:58Z</time>
      </trkpt>
      <trkpt lat="43.87807" lon="3.8555">
        <ele>250.12673950195</ele>
        <time>2020-10-13T19:19:08Z</time>
      </trkpt>
      <trkpt lat="43.87828" lon="3.85576">
        <ele>252.27436828613</ele>
        <time>2020-10-13T19:19:17Z</time>
      </trkpt>
      <trkpt lat="43.87934" lon="3.85761">
        <ele>248.57659912109</ele>
        <time>2020-10-13T19:19:27Z</time>
      </trkpt>
      <trkpt lat="43.87941" lon="3.85786">
        <ele>247.85882568359</ele>
        <time>2020-10-13T19:19:37Z</time>
      </trkpt>
      <trkpt lat="43.87956" lon="3.85893">
        <ele>245.17395019531</ele>
        <time>2020-10-13T19:19:46Z</time>
      </trkpt>
      <trkpt lat="43.87991" lon="3.86011">
        <ele>234.69511413574</ele>
        <time>2020-10-13T19:19:56Z</time>
      </trkpt>
      <trkpt lat="43.88" lon="3.86022">
        <ele>232.63146972656</ele>
        <time>2020-10-13T19:20:05Z</time>
      </trkpt>
      <trkpt lat="43.8801" lon="3.86019">
        <ele>231.25169372559</ele>
        <time>2020-10-13T19:20:15Z</time>
      </trkpt>
      <trkpt lat="43.88016" lon="3.86009">
        <ele>230.75624084473</ele>
        <time>2020-10-13T19:20:25Z</time>
      </trkpt>
      <trkpt lat="43.88025" lon="3.8598">
        <ele>230.29885864258</ele>
        <time>2020-10-13T19:20:34Z</time>
      </trkpt>
      <trkpt lat="43.8805" lon="3.85855">
        <ele>225.12171936035</ele>
        <time>2020-10-13T19:20:44Z</time>
      </trkpt>
      <trkpt lat="43.88086" lon="3.85626">
        <ele>210.88858032227</ele>
        <time>2020-10-13T19:20:54Z</time>
      </trkpt>
      <trkpt lat="43.88089" lon="3.85616">
        <ele>209.80876159668</ele>
        <time>2020-10-13T19:21:03Z</time>
      </trkpt>
      <trkpt lat="43.88099" lon="3.85605">
        <ele>207.80586242676</ele>
        <time>2020-10-13T19:21:13Z</time>
      </trkpt>
      <trkpt lat="43.88109" lon="3.85602">
        <ele>206.8109588623</ele>
        <time>2020-10-13T19:21:23Z</time>
      </trkpt>
      <trkpt lat="43.88146" lon="3.85602">
        <ele>205.47917175293</ele>
        <time>2020-10-13T19:21:32Z</time>
      </trkpt>
      <trkpt lat="43.88611" lon="3.85617">
        <ele>196.71081542969</ele>
        <time>2020-10-13T19:21:42Z</time>
      </trkpt>
      <trkpt lat="43.88622" lon="3.85602">
        <ele>197.28094482422</ele>
        <time>2020-10-13T19:21:52Z</time>
      </trkpt>
      <trkpt lat="43.88664" lon="3.85585">
        <ele>198.1927947998</ele>
        <time>2020-10-13T19:22:01Z</time>
      </trkpt>
      <trkpt lat="43.88748" lon="3.85579">
        <ele>196.56062316895</ele>
        <time>2020-10-13T19:22:11Z</time>
      </trkpt>
      <trkpt lat="43.88783" lon="3.8558">
        <ele>194.66851806641</ele>
        <time>2020-10-13T19:22:21Z</time>
      </trkpt>
      <trkpt lat="43.88816" lon="3.85587">
        <ele>192.46087646484</ele>
        <time>2020-10-13T19:22:31Z</time>
      </trkpt>
      <trkpt lat="43.88829" lon="3.85593">
        <ele>191.66902160645</ele>
        <time>2020-10-13T19:22:41Z</time>
      </trkpt>
      <trkpt lat="43.88839" lon="3.85602">
        <ele>191.16510009766</ele>
        <time>2020-10-13T19:22:50Z</time>
      </trkpt>
      <trkpt lat="43.88845" lon="3.85595">
        <ele>190.56520080566</ele>
        <time>2020-10-13T19:23:00Z</time>
      </trkpt>
      <trkpt lat="43.88862" lon="3.85599">
        <ele>189.93397521973</ele>
        <time>2020-10-13T19:23:10Z</time>
      </trkpt>
      <trkpt lat="43.88923" lon="3.856">
        <ele>189.20208740234</ele>
        <time>2020-10-13T19:23:20Z</time>
      </trkpt>
      <trkpt lat="43.89001" lon="3.85554">
        <ele>189.02000427246</ele>
        <time>2020-10-13T19:23:30Z</time>
      </trkpt>
      <trkpt lat="43.89067" lon="3.85543">
        <ele>187.71928405762</ele>
        <time>2020-10-13T19:23:39Z</time>
      </trkpt>
      <trkpt lat="43.89139" lon="3.85543">
        <ele>186.85542297363</ele>
        <time>2020-10-13T19:23:49Z</time>
      </trkpt>
      <trkpt lat="43.89205" lon="3.85526">
        <ele>186.04093933105</ele>
        <time>2020-10-13T19:23:59Z</time>
      </trkpt>
      <trkpt lat="43.89269" lon="3.85535">
        <ele>186.14891052246</ele>
        <time>2020-10-13T19:24:09Z</time>
      </trkpt>
      <trkpt lat="43.89333" lon="3.85525">
        <ele>188.15127563477</ele>
        <time>2020-10-13T19:24:19Z</time>
      </trkpt>
      <trkpt lat="43.89357" lon="3.85525">
        <ele>189.01008605957</ele>
        <time>2020-10-13T19:24:29Z</time>
      </trkpt>
      <trkpt lat="43.8938" lon="3.8553">
        <ele>189.17785644531</ele>
        <time>2020-10-13T19:24:39Z</time>
      </trkpt>
      <trkpt lat="43.89383" lon="3.85505">
        <ele>188.57795715332</ele>
        <time>2020-10-13T19:24:48Z</time>
      </trkpt>
      <trkpt lat="43.89392" lon="3.85479">
        <ele>187.95405578613</ele>
        <time>2020-10-13T19:24:58Z</time>
      </trkpt>
      <trkpt lat="43.89433" lon="3.85396">
        <ele>187.91688537598</ele>
        <time>2020-10-13T19:25:08Z</time>
      </trkpt>
      <trkpt lat="43.89444" lon="3.85376">
        <ele>188.19546508789</ele>
        <time>2020-10-13T19:25:18Z</time>
      </trkpt>
      <trkpt lat="43.89448" lon="3.85375">
        <ele>188.38743591309</ele>
        <time>2020-10-13T19:25:28Z</time>
      </trkpt>
      <trkpt lat="43.89452" lon="3.85352">
        <ele>188.72425842285</ele>
        <time>2020-10-13T19:25:38Z</time>
      </trkpt>
      <trkpt lat="43.89387" lon="3.85321">
        <ele>187.78363037109</ele>
        <time>2020-10-13T19:25:48Z</time>
      </trkpt>
      <trkpt lat="43.8938" lon="3.85295">
        <ele>188</ele>
        <time>2020-10-13T19:25:58Z</time>
      </trkpt>
      <trkpt lat="43.89375" lon="3.85292">
        <ele>187.98760986328</ele>
        <time>2020-10-13T19:26:08Z</time>
      </trkpt>
      <trkpt lat="43.89363" lon="3.8527">
        <ele>188.0611114502</ele>
        <time>2020-10-13T19:26:18Z</time>
      </trkpt>
      <trkpt lat="43.8929" lon="3.85246">
        <ele>189.1173248291</ele>
        <time>2020-10-13T19:26:28Z</time>
      </trkpt>
      <trkpt lat="43.89283" lon="3.85193">
        <ele>189.90879821777</ele>
        <time>2020-10-13T19:26:37Z</time>
      </trkpt>
      <trkpt lat="43.89266" lon="3.8511">
        <ele>190.1735534668</ele>
        <time>2020-10-13T19:26:47Z</time>
      </trkpt>
      <trkpt lat="43.8925" lon="3.85073">
        <ele>191.23039245605</ele>
        <time>2020-10-13T19:26:57Z</time>
      </trkpt>
      <trkpt lat="43.89249" lon="3.85025">
        <ele>191.84228515625</ele>
        <time>2020-10-13T19:27:07Z</time>
      </trkpt>
      <trkpt lat="43.89238" lon="3.85014">
        <ele>192.06407165527</ele>
        <time>2020-10-13T19:27:17Z</time>
      </trkpt>
      <trkpt lat="43.89209" lon="3.85005">
        <ele>192.89193725586</ele>
        <time>2020-10-13T19:27:27Z</time>
      </trkpt>
      <trkpt lat="43.89204" lon="3.84993">
        <ele>192.78395080566</ele>
        <time>2020-10-13T19:27:37Z</time>
      </trkpt>
      <trkpt lat="43.89204" lon="3.84976">
        <ele>192.37602233887</ele>
        <time>2020-10-13T19:27:47Z</time>
      </trkpt>
      <trkpt lat="43.89211" lon="3.8492">
        <ele>191.74667358398</ele>
        <time>2020-10-13T19:27:57Z</time>
      </trkpt>
      <trkpt lat="43.89212" lon="3.84874">
        <ele>191.73466491699</ele>
        <time>2020-10-13T19:28:07Z</time>
      </trkpt>
      <trkpt lat="43.89224" lon="3.84801">
        <ele>192.8390045166</ele>
        <time>2020-10-13T19:28:17Z</time>
      </trkpt>
      <trkpt lat="43.89228" lon="3.84753">
        <ele>193.3189239502</ele>
        <time>2020-10-13T19:28:27Z</time>
      </trkpt>
      <trkpt lat="43.89231" lon="3.8475">
        <ele>193.2829284668</ele>
        <time>2020-10-13T19:28:37Z</time>
      </trkpt>
      <trkpt lat="43.89281" lon="3.84757">
        <ele>192.27786254883</ele>
        <time>2020-10-13T19:28:47Z</time>
      </trkpt>
      <trkpt lat="43.89341" lon="3.8477">
        <ele>191.24603271484</ele>
        <time>2020-10-13T19:28:57Z</time>
      </trkpt>
      <trkpt lat="43.8937" lon="3.84783">
        <ele>191.09182739258</ele>
        <time>2020-10-13T19:29:07Z</time>
      </trkpt>
      <trkpt lat="43.89404" lon="3.84784">
        <ele>190.70788574219</ele>
        <time>2020-10-13T19:29:17Z</time>
      </trkpt>
      <trkpt lat="43.894" lon="3.8477">
        <ele>190.53814697266</ele>
        <time>2020-10-13T19:29:27Z</time>
      </trkpt>
      <trkpt lat="43.89403" lon="3.84667">
        <ele>192.97373962402</ele>
        <time>2020-10-13T19:29:37Z</time>
      </trkpt>
      <trkpt lat="43.89383" lon="3.84561">
        <ele>194.90315246582</ele>
        <time>2020-10-13T19:29:47Z</time>
      </trkpt>
      <trkpt lat="43.89397" lon="3.84498">
        <ele>195.80804443359</ele>
        <time>2020-10-13T19:29:57Z</time>
      </trkpt>
      <trkpt lat="43.89414" lon="3.84462">
        <ele>197.27760314941</ele>
        <time>2020-10-13T19:30:07Z</time>
      </trkpt>
      <trkpt lat="43.89417" lon="3.8437">
        <ele>199.55718994141</ele>
        <time>2020-10-13T19:30:18Z</time>
      </trkpt>
      <trkpt lat="43.89423" lon="3.84356">
        <ele>200.18109130859</ele>
        <time>2020-10-13T19:30:28Z</time>
      </trkpt>
      <trkpt lat="43.89424" lon="3.84342">
        <ele>200.56503295898</ele>
        <time>2020-10-13T19:30:38Z</time>
      </trkpt>
      <trkpt lat="43.89423" lon="3.84308">
        <ele>199.11566162109</ele>
        <time>2020-10-13T19:30:48Z</time>
      </trkpt>
      <trkpt lat="43.89428" lon="3.84305">
        <ele>198.8516998291</ele>
        <time>2020-10-13T19:30:58Z</time>
      </trkpt>
      <trkpt lat="43.89448" lon="3.84312">
        <ele>198.51400756836</ele>
        <time>2020-10-13T19:31:08Z</time>
      </trkpt>
      <trkpt lat="43.89457" lon="3.84312">
        <ele>198.08207702637</ele>
        <time>2020-10-13T19:31:18Z</time>
      </trkpt>
      <trkpt lat="43.89474" lon="3.84294">
        <ele>197</ele>
        <time>2020-10-13T19:31:28Z</time>
      </trkpt>
      <trkpt lat="43.89492" lon="3.8429">
        <ele>197</ele>
        <time>2020-10-13T19:31:38Z</time>
      </trkpt>
      <trkpt lat="43.89514" lon="3.84258">
        <ele>196.82746887207</ele>
        <time>2020-10-13T19:31:48Z</time>
      </trkpt>
      <trkpt lat="43.89543" lon="3.84205">
        <ele>195.05331420898</ele>
        <time>2020-10-13T19:31:58Z</time>
      </trkpt>
      <trkpt lat="43.89557" lon="3.84114">
        <ele>191.98559570312</ele>
        <time>2020-10-13T19:32:09Z</time>
      </trkpt>
      <trkpt lat="43.89563" lon="3.84105">
        <ele>191.57833862305</ele>
        <time>2020-10-13T19:32:19Z</time>
      </trkpt>
      <trkpt lat="43.89598" lon="3.84073">
        <ele>190.99119567871</ele>
        <time>2020-10-13T19:32:29Z</time>
      </trkpt>
      <trkpt lat="43.89618" lon="3.84061">
        <ele>190.93574523926</ele>
        <time>2020-10-13T19:32:39Z</time>
      </trkpt>
      <trkpt lat="43.89653" lon="3.84059">
        <ele>190.44723510742</ele>
        <time>2020-10-13T19:32:49Z</time>
      </trkpt>
      <trkpt lat="43.89697" lon="3.8408">
        <ele>189.05508422852</ele>
        <time>2020-10-13T19:32:59Z</time>
      </trkpt>
      <trkpt lat="43.8969" lon="3.84053">
        <ele>189.6309967041</ele>
        <time>2020-10-13T19:33:09Z</time>
      </trkpt>
      <trkpt lat="43.89709" lon="3.84058">
        <ele>188.88711547852</ele>
        <time>2020-10-13T19:33:19Z</time>
      </trkpt>
      <trkpt lat="43.89752" lon="3.84056">
        <ele>187.02299499512</ele>
        <time>2020-10-13T19:33:30Z</time>
      </trkpt>
      <trkpt lat="43.89856" lon="3.84037">
        <ele>185.0079498291</ele>
        <time>2020-10-13T19:33:40Z</time>
      </trkpt>
      <trkpt lat="43.89904" lon="3.84019">
        <ele>183.82405090332</ele>
        <time>2020-10-13T19:33:50Z</time>
      </trkpt>
      <trkpt lat="43.89949" lon="3.84036">
        <ele>182.89213562012</ele>
        <time>2020-10-13T19:34:00Z</time>
      </trkpt>
      <trkpt lat="43.89958" lon="3.84053">
        <ele>182.78416442871</ele>
        <time>2020-10-13T19:34:10Z</time>
      </trkpt>
      <trkpt lat="43.89966" lon="3.84058">
        <ele>182.68817138672</ele>
        <time>2020-10-13T19:34:21Z</time>
      </trkpt>
      <trkpt lat="43.90046" lon="3.84083">
        <ele>182.54383850098</ele>
        <time>2020-10-13T19:34:31Z</time>
      </trkpt>
      <trkpt lat="43.90106" lon="3.84095">
        <ele>183.11975097656</ele>
        <time>2020-10-13T19:34:41Z</time>
      </trkpt>
      <trkpt lat="43.90211" lon="3.84134">
        <ele>182.32055664062</ele>
        <time>2020-10-13T19:34:51Z</time>
      </trkpt>
      <trkpt lat="43.90216" lon="3.84123">
        <ele>182.79168701172</ele>
        <time>2020-10-13T19:35:01Z</time>
      </trkpt>
      <trkpt lat="43.90201" lon="3.84043">
        <ele>185.51901245117</ele>
        <time>2020-10-13T19:35:12Z</time>
      </trkpt>
      <trkpt lat="43.90195" lon="3.83991">
        <ele>186.49472045898</ele>
        <time>2020-10-13T19:35:22Z</time>
      </trkpt>
      <trkpt lat="43.90255" lon="3.83755">
        <ele>186</ele>
        <time>2020-10-13T19:35:32Z</time>
      </trkpt>
      <trkpt lat="43.9027" lon="3.83676">
        <ele>186.38452148438</ele>
        <time>2020-10-13T19:35:42Z</time>
      </trkpt>
      <trkpt lat="43.90276" lon="3.83619">
        <ele>188.642578125</ele>
        <time>2020-10-13T19:35:53Z</time>
      </trkpt>
      <trkpt lat="43.90283" lon="3.8353">
        <ele>189.27490234375</ele>
        <time>2020-10-13T19:36:03Z</time>
      </trkpt>
      <trkpt lat="43.90236" lon="3.8347">
        <ele>188.72952270508</ele>
        <time>2020-10-13T19:36:13Z</time>
      </trkpt>
      <trkpt lat="43.90233" lon="3.83463">
        <ele>188.74151611328</ele>
        <time>2020-10-13T19:36:24Z</time>
      </trkpt>
      <trkpt lat="43.90233" lon="3.83419">
        <ele>189.26943969727</ele>
        <time>2020-10-13T19:36:34Z</time>
      </trkpt>
      <trkpt lat="43.90224" lon="3.8341">
        <ele>189.16145324707</ele>
        <time>2020-10-13T19:36:44Z</time>
      </trkpt>
      <trkpt lat="43.9022" lon="3.83398">
        <ele>189.20944213867</ele>
        <time>2020-10-13T19:36:55Z</time>
      </trkpt>
      <trkpt lat="43.90226" lon="3.83293">
        <ele>191.65771484375</ele>
        <time>2020-10-13T19:37:05Z</time>
      </trkpt>
      <trkpt lat="43.90221" lon="3.83287">
        <ele>191.50173950195</ele>
        <time>2020-10-13T19:37:15Z</time>
      </trkpt>
      <trkpt lat="43.90192" lon="3.83272">
        <ele>190.1194152832</ele>
        <time>2020-10-13T19:37:26Z</time>
      </trkpt>
      <trkpt lat="43.90181" lon="3.83263">
        <ele>190.21914672852</ele>
        <time>2020-10-13T19:37:36Z</time>
      </trkpt>
      <trkpt lat="43.90176" lon="3.83253">
        <ele>190.39910888672</ele>
        <time>2020-10-13T19:37:46Z</time>
      </trkpt>
      <trkpt lat="43.90157" lon="3.83172">
        <ele>191.39656066895</ele>
        <time>2020-10-13T19:37:57Z</time>
      </trkpt>
      <trkpt lat="43.90155" lon="3.83131">
        <ele>191.96800231934</ele>
        <time>2020-10-13T19:38:07Z</time>
      </trkpt>
      <trkpt lat="43.90167" lon="3.83072">
        <ele>193.37673950195</ele>
        <time>2020-10-13T19:38:17Z</time>
      </trkpt>
      <trkpt lat="43.90181" lon="3.83032">
        <ele>195.32041931152</ele>
        <time>2020-10-13T19:38:28Z</time>
      </trkpt>
      <trkpt lat="43.9018" lon="3.83001">
        <ele>196.42585754395</ele>
        <time>2020-10-13T19:38:38Z</time>
      </trkpt>
      <trkpt lat="43.90171" lon="3.82938">
        <ele>199.40979003906</ele>
        <time>2020-10-13T19:38:49Z</time>
      </trkpt>
      <trkpt lat="43.90171" lon="3.82896">
        <ele>201.05458068848</ele>
        <time>2020-10-13T19:38:59Z</time>
      </trkpt>
      <trkpt lat="43.90168" lon="3.82878">
        <ele>201.73846435547</ele>
        <time>2020-10-13T19:39:09Z</time>
      </trkpt>
      <trkpt lat="43.9017" lon="3.82857">
        <ele>203.26222229004</ele>
        <time>2020-10-13T19:39:20Z</time>
      </trkpt>
      <trkpt lat="43.9016" lon="3.8282">
        <ele>205.43902587891</ele>
        <time>2020-10-13T19:39:30Z</time>
      </trkpt>
      <trkpt lat="43.90131" lon="3.82782">
        <ele>205.2590637207</ele>
        <time>2020-10-13T19:39:41Z</time>
      </trkpt>
      <trkpt lat="43.90074" lon="3.82741">
        <ele>201.39263916016</ele>
        <time>2020-10-13T19:39:51Z</time>
      </trkpt>
      <trkpt lat="43.90069" lon="3.82725">
        <ele>202.20820617676</ele>
        <time>2020-10-13T19:40:01Z</time>
      </trkpt>
      <trkpt lat="43.90048" lon="3.8271">
        <ele>200.55249023438</ele>
        <time>2020-10-13T19:40:12Z</time>
      </trkpt>
      <trkpt lat="43.90031" lon="3.8267">
        <ele>202.44555664062</ele>
        <time>2020-10-13T19:40:22Z</time>
      </trkpt>
      <trkpt lat="43.90009" lon="3.82655">
        <ele>201.33062744141</ele>
        <time>2020-10-13T19:40:33Z</time>
      </trkpt>
      <trkpt lat="43.89961" lon="3.826">
        <ele>202.1704864502</ele>
        <time>2020-10-13T19:40:43Z</time>
      </trkpt>
      <trkpt lat="43.89949" lon="3.8259">
        <ele>201.9305267334</ele>
        <time>2020-10-13T19:40:54Z</time>
      </trkpt>
      <trkpt lat="43.89937" lon="3.82572">
        <ele>202.65040588379</ele>
        <time>2020-10-13T19:41:04Z</time>
      </trkpt>
      <trkpt lat="43.89905" lon="3.82549">
        <ele>201.5705871582</ele>
        <time>2020-10-13T19:41:14Z</time>
      </trkpt>
      <trkpt lat="43.89895" lon="3.82536">
        <ele>201.9305267334</ele>
        <time>2020-10-13T19:41:25Z</time>
      </trkpt>
      <trkpt lat="43.89882" lon="3.82509">
        <ele>203.92430114746</ele>
        <time>2020-10-13T19:41:35Z</time>
      </trkpt>
      <trkpt lat="43.89864" lon="3.82488">
        <ele>204.78816223145</ele>
        <time>2020-10-13T19:41:46Z</time>
      </trkpt>
      <trkpt lat="43.89829" lon="3.82471">
        <ele>203.70025634766</ele>
        <time>2020-10-13T19:41:56Z</time>
      </trkpt>
      <trkpt lat="43.898" lon="3.82464">
        <ele>201.92454528809</ele>
        <time>2020-10-13T19:42:07Z</time>
      </trkpt>
      <trkpt lat="43.8979" lon="3.82456">
        <ele>202.16481018066</ele>
        <time>2020-10-13T19:42:17Z</time>
      </trkpt>
      <trkpt lat="43.8976" lon="3.82443">
        <ele>202.2652130127</ele>
        <time>2020-10-13T19:42:28Z</time>
      </trkpt>
      <trkpt lat="43.89748" lon="3.82433">
        <ele>202.36430358887</ele>
        <time>2020-10-13T19:42:38Z</time>
      </trkpt>
      <trkpt lat="43.89733" lon="3.82428">
        <ele>202.06434631348</ele>
        <time>2020-10-13T19:42:49Z</time>
      </trkpt>
      <trkpt lat="43.89726" lon="3.82422">
        <ele>202.10034179688</ele>
        <time>2020-10-13T19:42:59Z</time>
      </trkpt>
      <trkpt lat="43.89736" lon="3.82389">
        <ele>204.34217834473</ele>
        <time>2020-10-13T19:43:10Z</time>
      </trkpt>
      <trkpt lat="43.89737" lon="3.82373">
        <ele>205.55397033691</ele>
        <time>2020-10-13T19:43:20Z</time>
      </trkpt>
      <trkpt lat="43.89737" lon="3.82353">
        <ele>206.9937286377</ele>
        <time>2020-10-13T19:43:31Z</time>
      </trkpt>
      <trkpt lat="43.89728" lon="3.8232">
        <ele>208.82942199707</ele>
        <time>2020-10-13T19:43:41Z</time>
      </trkpt>
      <trkpt lat="43.8971" lon="3.82291">
        <ele>209.92778015137</ele>
        <time>2020-10-13T19:43:52Z</time>
      </trkpt>
      <trkpt lat="43.89679" lon="3.8226">
        <ele>210.16812133789</ele>
        <time>2020-10-13T19:44:02Z</time>
      </trkpt>
      <trkpt lat="43.89663" lon="3.82236">
        <ele>211.41590881348</ele>
        <time>2020-10-13T19:44:13Z</time>
      </trkpt>
      <trkpt lat="43.8976" lon="3.82301">
        <ele>215.56683349609</ele>
        <time>2020-10-13T19:44:23Z</time>
      </trkpt>
      <trkpt lat="43.89784" lon="3.82322">
        <ele>216.25956726074</ele>
        <time>2020-10-13T19:44:34Z</time>
      </trkpt>
      <trkpt lat="43.89876" lon="3.82431">
        <ele>215.54832458496</ele>
        <time>2020-10-13T19:44:44Z</time>
      </trkpt>
      <trkpt lat="43.89977" lon="3.82516">
        <ele>217.71336364746</ele>
        <time>2020-10-13T19:44:55Z</time>
      </trkpt>
      <trkpt lat="43.90042" lon="3.82582">
        <ele>217.13510131836</ele>
        <time>2020-10-13T19:45:05Z</time>
      </trkpt>
      <trkpt lat="43.90084" lon="3.82599">
        <ele>221.2264251709</ele>
        <time>2020-10-13T19:45:16Z</time>
      </trkpt>
      <trkpt lat="43.90102" lon="3.8262">
        <ele>221.05633544922</ele>
        <time>2020-10-13T19:45:27Z</time>
      </trkpt>
      <trkpt lat="43.90123" lon="3.82655">
        <ele>219.9920501709</ele>
        <time>2020-10-13T19:45:37Z</time>
      </trkpt>
      <trkpt lat="43.90138" lon="3.82669">
        <ele>220.85591125488</ele>
        <time>2020-10-13T19:45:48Z</time>
      </trkpt>
      <trkpt lat="43.90176" lon="3.82693">
        <ele>224.59407043457</ele>
        <time>2020-10-13T19:45:58Z</time>
      </trkpt>
      <trkpt lat="43.90186" lon="3.82696">
        <ele>226.00982666016</ele>
        <time>2020-10-13T19:46:09Z</time>
      </trkpt>
      <trkpt lat="43.9025" lon="3.82703">
        <ele>234.24295043945</ele>
        <time>2020-10-13T19:46:20Z</time>
      </trkpt>
      <trkpt lat="43.90271" lon="3.8271">
        <ele>236.09065246582</ele>
        <time>2020-10-13T19:46:30Z</time>
      </trkpt>
      <trkpt lat="43.90298" lon="3.82724">
        <ele>236.74090576172</ele>
        <time>2020-10-13T19:46:41Z</time>
      </trkpt>
      <trkpt lat="43.90336" lon="3.82726">
        <ele>241.72648620605</ele>
        <time>2020-10-13T19:46:51Z</time>
      </trkpt>
      <trkpt lat="43.90369" lon="3.82734">
        <ele>245.29292297363</ele>
        <time>2020-10-13T19:47:02Z</time>
      </trkpt>
      <trkpt lat="43.90409" lon="3.82759">
        <ele>246.6127166748</ele>
        <time>2020-10-13T19:47:13Z</time>
      </trkpt>
      <trkpt lat="43.90428" lon="3.82777">
        <ele>246.208984375</ele>
        <time>2020-10-13T19:47:23Z</time>
      </trkpt>
      <trkpt lat="43.90484" lon="3.82819">
        <ele>250.11808776855</ele>
        <time>2020-10-13T19:47:34Z</time>
      </trkpt>
      <trkpt lat="43.90512" lon="3.82835">
        <ele>253.64810180664</ele>
        <time>2020-10-13T19:47:45Z</time>
      </trkpt>
      <trkpt lat="43.90536" lon="3.82843">
        <ele>257.25524902344</ele>
        <time>2020-10-13T19:47:55Z</time>
      </trkpt>
      <trkpt lat="43.90661" lon="3.8292">
        <ele>266.67105102539</ele>
        <time>2020-10-13T19:48:06Z</time>
      </trkpt>
      <trkpt lat="43.90745" lon="3.8296">
        <ele>275.21313476562</ele>
        <time>2020-10-13T19:48:17Z</time>
      </trkpt>
      <trkpt lat="43.90792" lon="3.82976">
        <ele>280.52783203125</ele>
        <time>2020-10-13T19:48:27Z</time>
      </trkpt>
      <trkpt lat="43.90819" lon="3.8299">
        <ele>282.20755004883</ele>
        <time>2020-10-13T19:48:38Z</time>
      </trkpt>
      <trkpt lat="43.90842" lon="3.82994">
        <ele>285.41513061523</ele>
        <time>2020-10-13T19:48:49Z</time>
      </trkpt>
      <trkpt lat="43.90857" lon="3.83004">
        <ele>285.94686889648</ele>
        <time>2020-10-13T19:49:00Z</time>
      </trkpt>
      <trkpt lat="43.90901" lon="3.83019">
        <ele>288.51443481445</ele>
        <time>2020-10-13T19:49:10Z</time>
      </trkpt>
      <trkpt lat="43.90923" lon="3.83032">
        <ele>289.08209228516</ele>
        <time>2020-10-13T19:49:21Z</time>
      </trkpt>
      <trkpt lat="43.90973" lon="3.83039">
        <ele>294.30328369141</ele>
        <time>2020-10-13T19:49:32Z</time>
      </trkpt>
      <trkpt lat="43.9099" lon="3.83033">
        <ele>297.62673950195</ele>
        <time>2020-10-13T19:49:43Z</time>
      </trkpt>
      <trkpt lat="43.91013" lon="3.83017">
        <ele>303.66583251953</ele>
        <time>2020-10-13T19:49:53Z</time>
      </trkpt>
      <trkpt lat="43.91021" lon="3.83016">
        <ele>305.01315307617</ele>
        <time>2020-10-13T19:50:04Z</time>
      </trkpt>
      <trkpt lat="43.9105" lon="3.83047">
        <ele>303.93927001953</ele>
        <time>2020-10-13T19:50:15Z</time>
      </trkpt>
      <trkpt lat="43.91062" lon="3.8305">
        <ele>305.19906616211</ele>
        <time>2020-10-13T19:50:26Z</time>
      </trkpt>
      <trkpt lat="43.91086" lon="3.83047">
        <ele>309.12240600586</ele>
        <time>2020-10-13T19:50:36Z</time>
      </trkpt>
      <trkpt lat="43.91109" lon="3.83053">
        <ele>311.5491027832</ele>
        <time>2020-10-13T19:50:47Z</time>
      </trkpt>
      <trkpt lat="43.91129" lon="3.8305">
        <ele>315.37646484375</ele>
        <time>2020-10-13T19:50:58Z</time>
      </trkpt>
      <trkpt lat="43.91147" lon="3.83039">
        <ele>321.23388671875</ele>
        <time>2020-10-13T19:51:09Z</time>
      </trkpt>
      <trkpt lat="43.91158" lon="3.83039">
        <ele>323.60949707031</ele>
        <time>2020-10-13T19:51:19Z</time>
      </trkpt>
      <trkpt lat="43.91205" lon="3.83073">
        <ele>325.93823242188</ele>
        <time>2020-10-13T19:51:30Z</time>
      </trkpt>
      <trkpt lat="43.91221" lon="3.83081">
        <ele>326.80206298828</ele>
        <time>2020-10-13T19:51:41Z</time>
      </trkpt>
      <trkpt lat="43.91268" lon="3.83094">
        <ele>331.83840942383</ele>
        <time>2020-10-13T19:51:52Z</time>
      </trkpt>
      <trkpt lat="43.91303" lon="3.8309">
        <ele>339.04037475586</ele>
        <time>2020-10-13T19:52:03Z</time>
      </trkpt>
      <trkpt lat="43.91378" lon="3.83117">
        <ele>344.41870117188</ele>
        <time>2020-10-13T19:52:13Z</time>
      </trkpt>
      <trkpt lat="43.91394" lon="3.8312">
        <ele>346.03845214844</ele>
        <time>2020-10-13T19:52:24Z</time>
      </trkpt>
      <trkpt lat="43.91423" lon="3.83121">
        <ele>349.98577880859</ele>
        <time>2020-10-13T19:52:35Z</time>
      </trkpt>
      <trkpt lat="43.91455" lon="3.83127">
        <ele>353.57894897461</ele>
        <time>2020-10-13T19:52:46Z</time>
      </trkpt>
      <trkpt lat="43.91478" lon="3.83123">
        <ele>357.13885498047</ele>
        <time>2020-10-13T19:52:57Z</time>
      </trkpt>
      <trkpt lat="43.91513" lon="3.83146">
        <ele>357.05487060547</ele>
        <time>2020-10-13T19:53:08Z</time>
      </trkpt>
      <trkpt lat="43.91534" lon="3.83153">
        <ele>357.89730834961</ele>
        <time>2020-10-13T19:53:18Z</time>
      </trkpt>
      <trkpt lat="43.91565" lon="3.83151">
        <ele>360.83679199219</ele>
        <time>2020-10-13T19:53:29Z</time>
      </trkpt>
      <trkpt lat="43.91599" lon="3.83143">
        <ele>365.49096679688</ele>
        <time>2020-10-13T19:53:40Z</time>
      </trkpt>
      <trkpt lat="43.91628" lon="3.83132">
        <ele>369.74917602539</ele>
        <time>2020-10-13T19:53:51Z</time>
      </trkpt>
      <trkpt lat="43.91665" lon="3.83111">
        <ele>371.14678955078</ele>
        <time>2020-10-13T19:54:02Z</time>
      </trkpt>
      <trkpt lat="43.91678" lon="3.83093">
        <ele>372.04360961914</ele>
        <time>2020-10-13T19:54:13Z</time>
      </trkpt>
      <trkpt lat="43.91689" lon="3.83043">
        <ele>374.04727172852</ele>
        <time>2020-10-13T19:54:24Z</time>
      </trkpt>
      <trkpt lat="43.91711" lon="3.82854">
        <ele>384.06649780273</ele>
        <time>2020-10-13T19:54:34Z</time>
      </trkpt>
      <trkpt lat="43.9172" lon="3.82703">
        <ele>388.56878662109</ele>
        <time>2020-10-13T19:54:45Z</time>
      </trkpt>
      <trkpt lat="43.91727" lon="3.82656">
        <ele>389.72998046875</ele>
        <time>2020-10-13T19:54:56Z</time>
      </trkpt>
      <trkpt lat="43.91724" lon="3.82617">
        <ele>392.26315307617</ele>
        <time>2020-10-13T19:55:07Z</time>
      </trkpt>
      <trkpt lat="43.91737" lon="3.82563">
        <ele>394.24374389648</ele>
        <time>2020-10-13T19:55:18Z</time>
      </trkpt>
      <trkpt lat="43.91747" lon="3.82542">
        <ele>393.43988037109</ele>
        <time>2020-10-13T19:55:29Z</time>
      </trkpt>
      <trkpt lat="43.91737" lon="3.82433">
        <ele>398.22491455078</ele>
        <time>2020-10-13T19:55:40Z</time>
      </trkpt>
      <trkpt lat="43.91741" lon="3.8241">
        <ele>397.82897949219</ele>
        <time>2020-10-13T19:55:51Z</time>
      </trkpt>
      <trkpt lat="43.91756" lon="3.82383">
        <ele>393.80526733398</ele>
        <time>2020-10-13T19:56:02Z</time>
      </trkpt>
      <trkpt lat="43.91759" lon="3.82367">
        <ele>392.58145141602</ele>
        <time>2020-10-13T19:56:13Z</time>
      </trkpt>
      <trkpt lat="43.91749" lon="3.82333">
        <ele>395.12939453125</ele>
        <time>2020-10-13T19:56:24Z</time>
      </trkpt>
      <trkpt lat="43.91747" lon="3.82244">
        <ele>394.96716308594</ele>
        <time>2020-10-13T19:56:35Z</time>
      </trkpt>
      <trkpt lat="43.9175" lon="3.82221">
        <ele>392.92749023438</ele>
        <time>2020-10-13T19:56:46Z</time>
      </trkpt>
      <trkpt lat="43.91763" lon="3.82196">
        <ele>387.67236328125</ele>
        <time>2020-10-13T19:56:57Z</time>
      </trkpt>
      <trkpt lat="43.91785" lon="3.82116">
        <ele>381.20553588867</ele>
        <time>2020-10-13T19:57:08Z</time>
      </trkpt>
      <trkpt lat="43.9183" lon="3.81987">
        <ele>367.95043945312</ele>
        <time>2020-10-13T19:57:19Z</time>
      </trkpt>
      <trkpt lat="43.91843" lon="3.81956">
        <ele>359.93576049805</ele>
        <time>2020-10-13T19:57:30Z</time>
      </trkpt>
      <trkpt lat="43.91876" lon="3.8191">
        <ele>351.24200439453</ele>
        <time>2020-10-13T19:57:41Z</time>
      </trkpt>
      <trkpt lat="43.91896" lon="3.81892">
        <ele>349.89587402344</ele>
        <time>2020-10-13T19:57:52Z</time>
      </trkpt>
      <trkpt lat="43.91921" lon="3.81879">
        <ele>346.63241577148</ele>
        <time>2020-10-13T19:58:03Z</time>
      </trkpt>
      <trkpt lat="43.91995" lon="3.81856">
        <ele>339.181640625</ele>
        <time>2020-10-13T19:58:14Z</time>
      </trkpt>
      <trkpt lat="43.92005" lon="3.81854">
        <ele>338.46838378906</ele>
        <time>2020-10-13T19:58:25Z</time>
      </trkpt>
      <trkpt lat="43.92019" lon="3.81862">
        <ele>339.6135559082</ele>
        <time>2020-10-13T19:58:36Z</time>
      </trkpt>
      <trkpt lat="43.92025" lon="3.81858">
        <ele>338.3766784668</ele>
        <time>2020-10-13T19:58:47Z</time>
      </trkpt>
      <trkpt lat="43.91965" lon="3.81804">
        <ele>332.10943603516</ele>
        <time>2020-10-13T19:58:58Z</time>
      </trkpt>
      <trkpt lat="43.91931" lon="3.81783">
        <ele>330.16989135742</ele>
        <time>2020-10-13T19:59:09Z</time>
      </trkpt>
      <trkpt lat="43.91925" lon="3.81775">
        <ele>329.21005249023</ele>
        <time>2020-10-13T19:59:20Z</time>
      </trkpt>
      <trkpt lat="43.91924" lon="3.81759">
        <ele>327.38458251953</ele>
        <time>2020-10-13T19:59:31Z</time>
      </trkpt>
      <trkpt lat="43.9193" lon="3.81744">
        <ele>325.68829345703</ele>
        <time>2020-10-13T19:59:42Z</time>
      </trkpt>
      <trkpt lat="43.91948" lon="3.81726">
        <ele>323.12896728516</ele>
        <time>2020-10-13T19:59:53Z</time>
      </trkpt>
      <trkpt lat="43.91968" lon="3.81666">
        <ele>317.43692016602</ele>
        <time>2020-10-13T20:00:04Z</time>
      </trkpt>
      <trkpt lat="43.92049" lon="3.81497">
        <ele>304.80395507812</ele>
        <time>2020-10-13T20:00:15Z</time>
      </trkpt>
      <trkpt lat="43.92068" lon="3.81441">
        <ele>303.12145996094</ele>
        <time>2020-10-13T20:00:26Z</time>
      </trkpt>
      <trkpt lat="43.92081" lon="3.81419">
        <ele>302.6706237793</ele>
        <time>2020-10-13T20:00:37Z</time>
      </trkpt>
      <trkpt lat="43.92123" lon="3.81272">
        <ele>302.72216796875</ele>
        <time>2020-10-13T20:00:49Z</time>
      </trkpt>
      <trkpt lat="43.92127" lon="3.81265">
        <ele>303.56823730469</ele>
        <time>2020-10-13T20:01:00Z</time>
      </trkpt>
      <trkpt lat="43.92138" lon="3.81268">
        <ele>304.57608032227</ele>
        <time>2020-10-13T20:01:11Z</time>
      </trkpt>
      <trkpt lat="43.92187" lon="3.81351">
        <ele>308.68515014648</ele>
        <time>2020-10-13T20:01:22Z</time>
      </trkpt>
      <trkpt lat="43.92251" lon="3.81438">
        <ele>312.37042236328</ele>
        <time>2020-10-13T20:01:33Z</time>
      </trkpt>
      <trkpt lat="43.92268" lon="3.81451">
        <ele>313.43823242188</ele>
        <time>2020-10-13T20:01:44Z</time>
      </trkpt>
      <trkpt lat="43.9228" lon="3.81446">
        <ele>313.91091918945</ele>
        <time>2020-10-13T20:01:55Z</time>
      </trkpt>
      <trkpt lat="43.92286" lon="3.81429">
        <ele>313.90307617188</ele>
        <time>2020-10-13T20:02:07Z</time>
      </trkpt>
      <trkpt lat="43.92292" lon="3.81355">
        <ele>315.03018188477</ele>
        <time>2020-10-13T20:02:18Z</time>
      </trkpt>
      <trkpt lat="43.92299" lon="3.81324">
        <ele>314.64624023438</ele>
        <time>2020-10-13T20:02:29Z</time>
      </trkpt>
      <trkpt lat="43.92289" lon="3.81243">
        <ele>315.61868286133</ele>
        <time>2020-10-13T20:02:40Z</time>
      </trkpt>
      <trkpt lat="43.9229" lon="3.81209">
        <ele>315.46270751953</ele>
        <time>2020-10-13T20:02:51Z</time>
      </trkpt>
      <trkpt lat="43.92299" lon="3.81187">
        <ele>314.6100769043</ele>
        <time>2020-10-13T20:03:02Z</time>
      </trkpt>
      <trkpt lat="43.92316" lon="3.81178">
        <ele>312.04251098633</ele>
        <time>2020-10-13T20:03:14Z</time>
      </trkpt>
      <trkpt lat="43.92332" lon="3.81176">
        <ele>309.85888671875</ele>
        <time>2020-10-13T20:03:25Z</time>
      </trkpt>
      <trkpt lat="43.92344" lon="3.81182">
        <ele>308.49111938477</ele>
        <time>2020-10-13T20:03:36Z</time>
      </trkpt>
      <trkpt lat="43.92356" lon="3.81209">
        <ele>306.6513671875</ele>
        <time>2020-10-13T20:03:47Z</time>
      </trkpt>
      <trkpt lat="43.92377" lon="3.81273">
        <ele>302.52932739258</ele>
        <time>2020-10-13T20:03:58Z</time>
      </trkpt>
      <trkpt lat="43.92386" lon="3.81287">
        <ele>300.4416809082</ele>
        <time>2020-10-13T20:04:10Z</time>
      </trkpt>
      <trkpt lat="43.92396" lon="3.81291">
        <ele>298.95391845703</ele>
        <time>2020-10-13T20:04:21Z</time>
      </trkpt>
      <trkpt lat="43.92406" lon="3.81287">
        <ele>298.04208374023</ele>
        <time>2020-10-13T20:04:32Z</time>
      </trkpt>
      <trkpt lat="43.92415" lon="3.81253">
        <ele>298.50378417969</ele>
        <time>2020-10-13T20:04:43Z</time>
      </trkpt>
      <trkpt lat="43.92428" lon="3.81234">
        <ele>298.62149047852</ele>
        <time>2020-10-13T20:04:54Z</time>
      </trkpt>
      <trkpt lat="43.92455" lon="3.8121">
        <ele>295.78280639648</ele>
        <time>2020-10-13T20:05:06Z</time>
      </trkpt>
      <trkpt lat="43.92476" lon="3.81166">
        <ele>291.33993530273</ele>
        <time>2020-10-13T20:05:17Z</time>
      </trkpt>
      <trkpt lat="43.92486" lon="3.81132">
        <ele>288.0673828125</ele>
        <time>2020-10-13T20:05:28Z</time>
      </trkpt>
      <trkpt lat="43.92493" lon="3.81083">
        <ele>284.16137695312</ele>
        <time>2020-10-13T20:05:39Z</time>
      </trkpt>
      <trkpt lat="43.92494" lon="3.80972">
        <ele>276.19964599609</ele>
        <time>2020-10-13T20:05:51Z</time>
      </trkpt>
      <trkpt lat="43.92508" lon="3.80892">
        <ele>262.9560546875</ele>
        <time>2020-10-13T20:06:02Z</time>
      </trkpt>
      <trkpt lat="43.92497" lon="3.80864">
        <ele>260.77239990234</ele>
        <time>2020-10-13T20:06:13Z</time>
      </trkpt>
      <trkpt lat="43.92466" lon="3.80829">
        <ele>260.31304931641</ele>
        <time>2020-10-13T20:06:24Z</time>
      </trkpt>
      <trkpt lat="43.92458" lon="3.80763">
        <ele>252.46894836426</ele>
        <time>2020-10-13T20:06:36Z</time>
      </trkpt>
      <trkpt lat="43.92394" lon="3.8072">
        <ele>259.49789428711</ele>
        <time>2020-10-13T20:06:47Z</time>
      </trkpt>
      <trkpt lat="43.92386" lon="3.80707">
        <ele>259.8818359375</ele>
        <time>2020-10-13T20:06:58Z</time>
      </trkpt>
      <trkpt lat="43.92372" lon="3.80639">
        <ele>252.05738830566</ele>
        <time>2020-10-13T20:07:10Z</time>
      </trkpt>
      <trkpt lat="43.92355" lon="3.80608">
        <ele>250.04556274414</ele>
        <time>2020-10-13T20:07:21Z</time>
      </trkpt>
      <trkpt lat="43.92331" lon="3.80443">
        <ele>239.85887145996</ele>
        <time>2020-10-13T20:07:32Z</time>
      </trkpt>
      <trkpt lat="43.92332" lon="3.80382">
        <ele>237.18235778809</ele>
        <time>2020-10-13T20:07:44Z</time>
      </trkpt>
      <trkpt lat="43.92335" lon="3.80373">
        <ele>236.35450744629</ele>
        <time>2020-10-13T20:07:55Z</time>
      </trkpt>
      <trkpt lat="43.92353" lon="3.80352">
        <ele>232.57513427734</ele>
        <time>2020-10-13T20:08:06Z</time>
      </trkpt>
      <trkpt lat="43.92363" lon="3.80342">
        <ele>231.44639587402</ele>
        <time>2020-10-13T20:08:18Z</time>
      </trkpt>
      <trkpt lat="43.92372" lon="3.80341">
        <ele>230.37857055664</ele>
        <time>2020-10-13T20:08:29Z</time>
      </trkpt>
      <trkpt lat="43.92383" lon="3.80351">
        <ele>228.93881225586</ele>
        <time>2020-10-13T20:08:40Z</time>
      </trkpt>
      <trkpt lat="43.92441" lon="3.8043">
        <ele>222.85787963867</ele>
        <time>2020-10-13T20:08:52Z</time>
      </trkpt>
      <trkpt lat="43.92475" lon="3.80412">
        <ele>220.19432067871</ele>
        <time>2020-10-13T20:09:03Z</time>
      </trkpt>
      <trkpt lat="43.9255" lon="3.80409">
        <ele>213.07141113281</ele>
        <time>2020-10-13T20:09:14Z</time>
      </trkpt>
      <trkpt lat="43.92573" lon="3.80395">
        <ele>210.08047485352</ele>
        <time>2020-10-13T20:09:26Z</time>
      </trkpt>
      <trkpt lat="43.92578" lon="3.80387">
        <ele>209.06065368652</ele>
        <time>2020-10-13T20:09:37Z</time>
      </trkpt>
      <trkpt lat="43.92631" lon="3.80258">
        <ele>201.50640869141</ele>
        <time>2020-10-13T20:09:48Z</time>
      </trkpt>
      <trkpt lat="43.9265" lon="3.80257">
        <ele>201.47041320801</ele>
        <time>2020-10-13T20:10:00Z</time>
      </trkpt>
      <trkpt lat="43.92678" lon="3.80247">
        <ele>200.96356201172</ele>
        <time>2020-10-13T20:10:11Z</time>
      </trkpt>
      <trkpt lat="43.9268" lon="3.80241">
        <ele>200.65161132812</ele>
        <time>2020-10-13T20:10:23Z</time>
      </trkpt>
      <trkpt lat="43.92694" lon="3.80236">
        <ele>199.90472412109</ele>
        <time>2020-10-13T20:10:34Z</time>
      </trkpt>
      <trkpt lat="43.92721" lon="3.80207">
        <ele>195.88293457031</ele>
        <time>2020-10-13T20:10:45Z</time>
      </trkpt>
      <trkpt lat="43.92729" lon="3.80158">
        <ele>191.12060546875</ele>
        <time>2020-10-13T20:10:57Z</time>
      </trkpt>
      <trkpt lat="43.9275" lon="3.79845">
        <ele>178.45178222656</ele>
        <time>2020-10-13T20:11:08Z</time>
      </trkpt>
      <trkpt lat="43.92756" lon="3.79807">
        <ele>178.21376037598</ele>
        <time>2020-10-13T20:11:20Z</time>
      </trkpt>
      <trkpt lat="43.92768" lon="3.7976">
        <ele>177.93023681641</ele>
        <time>2020-10-13T20:11:31Z</time>
      </trkpt>
      <trkpt lat="43.92768" lon="3.79738">
        <ele>177.6662902832</ele>
        <time>2020-10-13T20:11:43Z</time>
      </trkpt>
      <trkpt lat="43.92743" lon="3.79648">
        <ele>176.85743713379</ele>
        <time>2020-10-13T20:11:54Z</time>
      </trkpt>
      <trkpt lat="43.92743" lon="3.79584">
        <ele>177.38844299316</ele>
        <time>2020-10-13T20:12:06Z</time>
      </trkpt>
      <trkpt lat="43.92755" lon="3.79499">
        <ele>176.54849243164</ele>
        <time>2020-10-13T20:12:17Z</time>
      </trkpt>
      <trkpt lat="43.92792" lon="3.79427">
        <ele>178.05912780762</ele>
        <time>2020-10-13T20:12:29Z</time>
      </trkpt>
      <trkpt lat="43.92796" lon="3.79413">
        <ele>178.70701599121</ele>
        <time>2020-10-13T20:12:40Z</time>
      </trkpt>
      <trkpt lat="43.92671" lon="3.79349">
        <ele>178.51138305664</ele>
        <time>2020-10-13T20:12:52Z</time>
      </trkpt>
      <trkpt lat="43.92607" lon="3.79321">
        <ele>177.2141418457</ele>
        <time>2020-10-13T20:13:03Z</time>
      </trkpt>
      <trkpt lat="43.92487" lon="3.79492">
        <ele>176.98986816406</ele>
        <time>2020-10-13T20:13:15Z</time>
      </trkpt>
      <trkpt lat="43.92453" lon="3.79534">
        <ele>180.69442749023</ele>
        <time>2020-10-13T20:13:26Z</time>
      </trkpt>
      <trkpt lat="43.92409" lon="3.796">
        <ele>184.79238891602</ele>
        <time>2020-10-13T20:13:38Z</time>
      </trkpt>
      <trkpt lat="43.92395" lon="3.79608">
        <ele>187.1424407959</ele>
        <time>2020-10-13T20:13:50Z</time>
      </trkpt>
      <trkpt lat="43.92382" lon="3.79608">
        <ele>188.85815429688</ele>
        <time>2020-10-13T20:14:01Z</time>
      </trkpt>
      <trkpt lat="43.92375" lon="3.79599">
        <ele>189.20764160156</ele>
        <time>2020-10-13T20:14:13Z</time>
      </trkpt>
      <trkpt lat="43.9237" lon="3.79582">
        <ele>188.64373779297</ele>
        <time>2020-10-13T20:14:24Z</time>
      </trkpt>
      <trkpt lat="43.92361" lon="3.7957">
        <ele>188.96768188477</ele>
        <time>2020-10-13T20:14:36Z</time>
      </trkpt>
      <trkpt lat="43.92307" lon="3.79532">
        <ele>198.76666259766</ele>
        <time>2020-10-13T20:14:48Z</time>
      </trkpt>
      <trkpt lat="43.92231" lon="3.79493">
        <ele>211.1234588623</ele>
        <time>2020-10-13T20:14:59Z</time>
      </trkpt>
      <trkpt lat="43.92156" lon="3.79476">
        <ele>220.4846496582</ele>
        <time>2020-10-13T20:15:11Z</time>
      </trkpt>
      <trkpt lat="43.92143" lon="3.79469">
        <ele>221.79243469238</ele>
        <time>2020-10-13T20:15:22Z</time>
      </trkpt>
      <trkpt lat="43.92103" lon="3.79437">
        <ele>225.11557006836</ele>
        <time>2020-10-13T20:15:34Z</time>
      </trkpt>
      <trkpt lat="43.92085" lon="3.79431">
        <ele>225.61949157715</ele>
        <time>2020-10-13T20:15:46Z</time>
      </trkpt>
      <trkpt lat="43.91978" lon="3.79427">
        <ele>230.1927947998</ele>
        <time>2020-10-13T20:15:57Z</time>
      </trkpt>
      <trkpt lat="43.91925" lon="3.79405">
        <ele>232.92047119141</ele>
        <time>2020-10-13T20:16:09Z</time>
      </trkpt>
      <trkpt lat="43.91868" lon="3.79404">
        <ele>235.88273620605</ele>
        <time>2020-10-13T20:16:21Z</time>
      </trkpt>
      <trkpt lat="43.91821" lon="3.79383">
        <ele>239.25408935547</ele>
        <time>2020-10-13T20:16:32Z</time>
      </trkpt>
      <trkpt lat="43.91793" lon="3.79378">
        <ele>241.28468322754</ele>
        <time>2020-10-13T20:16:44Z</time>
      </trkpt>
      <trkpt lat="43.91741" lon="3.7935">
        <ele>243.50915527344</ele>
        <time>2020-10-13T20:16:56Z</time>
      </trkpt>
      <trkpt lat="43.9171" lon="3.79344">
        <ele>244.02507019043</ele>
        <time>2020-10-13T20:17:07Z</time>
      </trkpt>
      <trkpt lat="43.91687" lon="3.79335">
        <ele>244.55661010742</ele>
        <time>2020-10-13T20:17:19Z</time>
      </trkpt>
      <trkpt lat="43.91642" lon="3.793">
        <ele>246.4762878418</ele>
        <time>2020-10-13T20:17:31Z</time>
      </trkpt>
      <trkpt lat="43.9163" lon="3.793">
        <ele>246.95890808105</ele>
        <time>2020-10-13T20:17:43Z</time>
      </trkpt>
      <trkpt lat="43.91609" lon="3.79294">
        <ele>248.14669799805</ele>
        <time>2020-10-13T20:17:54Z</time>
      </trkpt>
      <trkpt lat="43.91577" lon="3.79274">
        <ele>248.74822998047</ele>
        <time>2020-10-13T20:18:06Z</time>
      </trkpt>
      <trkpt lat="43.91557" lon="3.79276">
        <ele>249.25215148926</ele>
        <time>2020-10-13T20:18:18Z</time>
      </trkpt>
      <trkpt lat="43.91529" lon="3.79262">
        <ele>250.09968566895</ele>
        <time>2020-10-13T20:18:29Z</time>
      </trkpt>
      <trkpt lat="43.91485" lon="3.79203">
        <ele>252.10806274414</ele>
        <time>2020-10-13T20:18:41Z</time>
      </trkpt>
      <trkpt lat="43.91431" lon="3.79164">
        <ele>252.93186950684</ele>
        <time>2020-10-13T20:18:53Z</time>
      </trkpt>
      <trkpt lat="43.91421" lon="3.7915">
        <ele>253.00386047363</ele>
        <time>2020-10-13T20:19:05Z</time>
      </trkpt>
      <trkpt lat="43.91399" lon="3.79129">
        <ele>253.27981567383</ele>
        <time>2020-10-13T20:19:16Z</time>
      </trkpt>
      <trkpt lat="43.91379" lon="3.79102">
        <ele>253.43579101562</ele>
        <time>2020-10-13T20:19:28Z</time>
      </trkpt>
      <trkpt lat="43.91344" lon="3.79086">
        <ele>254.39353942871</ele>
        <time>2020-10-13T20:19:40Z</time>
      </trkpt>
      <trkpt lat="43.91248" lon="3.78999">
        <ele>258.6071472168</ele>
        <time>2020-10-13T20:19:52Z</time>
      </trkpt>
      <trkpt lat="43.91191" lon="3.78977">
        <ele>262.86645507812</ele>
        <time>2020-10-13T20:20:04Z</time>
      </trkpt>
      <trkpt lat="43.91135" lon="3.78942">
        <ele>266.06729125977</ele>
        <time>2020-10-13T20:20:15Z</time>
      </trkpt>
      <trkpt lat="43.91069" lon="3.7891">
        <ele>269.15365600586</ele>
        <time>2020-10-13T20:20:27Z</time>
      </trkpt>
      <trkpt lat="43.90966" lon="3.78871">
        <ele>274.99667358398</ele>
        <time>2020-10-13T20:20:39Z</time>
      </trkpt>
      <trkpt lat="43.90949" lon="3.78857">
        <ele>275.41662597656</ele>
        <time>2020-10-13T20:20:51Z</time>
      </trkpt>
      <trkpt lat="43.90814" lon="3.78689">
        <ele>277.23419189453</ele>
        <time>2020-10-13T20:21:03Z</time>
      </trkpt>
      <trkpt lat="43.90794" lon="3.78671">
        <ele>277.07403564453</ele>
        <time>2020-10-13T20:21:15Z</time>
      </trkpt>
      <trkpt lat="43.90746" lon="3.78641">
        <ele>277.19485473633</ele>
        <time>2020-10-13T20:21:27Z</time>
      </trkpt>
      <trkpt lat="43.90623" lon="3.7859">
        <ele>277.98159790039</ele>
        <time>2020-10-13T20:21:38Z</time>
      </trkpt>
      <trkpt lat="43.90596" lon="3.78589">
        <ele>278.54620361328</ele>
        <time>2020-10-13T20:21:50Z</time>
      </trkpt>
      <trkpt lat="43.90541" lon="3.78599">
        <ele>279.4462890625</ele>
        <time>2020-10-13T20:22:02Z</time>
      </trkpt>
      <trkpt lat="43.90531" lon="3.78605">
        <ele>280.0221862793</ele>
        <time>2020-10-13T20:22:14Z</time>
      </trkpt>
      <trkpt lat="43.90464" lon="3.78669">
        <ele>283.1975402832</ele>
        <time>2020-10-13T20:22:26Z</time>
      </trkpt>
      <trkpt lat="43.90451" lon="3.78695">
        <ele>284.59210205078</ele>
        <time>2020-10-13T20:22:38Z</time>
      </trkpt>
      <trkpt lat="43.90429" lon="3.78703">
        <ele>285.69149780273</ele>
        <time>2020-10-13T20:22:50Z</time>
      </trkpt>
      <trkpt lat="43.90381" lon="3.78693">
        <ele>288.54702758789</ele>
        <time>2020-10-13T20:23:02Z</time>
      </trkpt>
      <trkpt lat="43.90296" lon="3.78645">
        <ele>294.27877807617</ele>
        <time>2020-10-13T20:23:14Z</time>
      </trkpt>
      <trkpt lat="43.90241" lon="3.78639">
        <ele>296.62084960938</ele>
        <time>2020-10-13T20:23:26Z</time>
      </trkpt>
      <trkpt lat="43.90193" lon="3.78626">
        <ele>296.94818115234</ele>
        <time>2020-10-13T20:23:38Z</time>
      </trkpt>
      <trkpt lat="43.90138" lon="3.78595">
        <ele>297.52194213867</ele>
        <time>2020-10-13T20:23:50Z</time>
      </trkpt>
      <trkpt lat="43.90074" lon="3.78571">
        <ele>298.96170043945</ele>
        <time>2020-10-13T20:24:02Z</time>
      </trkpt>
      <trkpt lat="43.90041" lon="3.78545">
        <ele>298.92877197266</ele>
        <time>2020-10-13T20:24:14Z</time>
      </trkpt>
      <trkpt lat="43.90034" lon="3.78543">
        <ele>298.86877441406</ele>
        <time>2020-10-13T20:24:26Z</time>
      </trkpt>
      <trkpt lat="43.90004" lon="3.78542">
        <ele>297.12734985352</ele>
        <time>2020-10-13T20:24:38Z</time>
      </trkpt>
      <trkpt lat="43.89846" lon="3.7855">
        <ele>284.57525634766</ele>
        <time>2020-10-13T20:24:50Z</time>
      </trkpt>
      <trkpt lat="43.89832" lon="3.78554">
        <ele>283.61541748047</ele>
        <time>2020-10-13T20:25:02Z</time>
      </trkpt>
      <trkpt lat="43.89824" lon="3.78561">
        <ele>283.12350463867</ele>
        <time>2020-10-13T20:25:14Z</time>
      </trkpt>
      <trkpt lat="43.89788" lon="3.78603">
        <ele>280.23324584961</ele>
        <time>2020-10-13T20:25:26Z</time>
      </trkpt>
      <trkpt lat="43.89732" lon="3.78637">
        <ele>275.03433227539</ele>
        <time>2020-10-13T20:25:38Z</time>
      </trkpt>
      <trkpt lat="43.89726" lon="3.78644">
        <ele>274.57360839844</ele>
        <time>2020-10-13T20:25:50Z</time>
      </trkpt>
      <trkpt lat="43.89717" lon="3.78662">
        <ele>274.68157958984</ele>
        <time>2020-10-13T20:26:02Z</time>
      </trkpt>
      <trkpt lat="43.89711" lon="3.78727">
        <ele>275.4758605957</ele>
        <time>2020-10-13T20:26:14Z</time>
      </trkpt>
      <trkpt lat="43.89701" lon="3.78764">
        <ele>275.43988037109</ele>
        <time>2020-10-13T20:26:26Z</time>
      </trkpt>
      <trkpt lat="43.89686" lon="3.78782">
        <ele>275.15762329102</ele>
        <time>2020-10-13T20:26:38Z</time>
      </trkpt>
      <trkpt lat="43.89667" lon="3.78789">
        <ele>274.86965942383</ele>
        <time>2020-10-13T20:26:50Z</time>
      </trkpt>
      <trkpt lat="43.89654" lon="3.78789">
        <ele>274.55770874023</ele>
        <time>2020-10-13T20:27:02Z</time>
      </trkpt>
      <trkpt lat="43.89648" lon="3.78786">
        <ele>274.34173583984</ele>
        <time>2020-10-13T20:27:15Z</time>
      </trkpt>
      <trkpt lat="43.89631" lon="3.78765">
        <ele>273.50744628906</ele>
        <time>2020-10-13T20:27:27Z</time>
      </trkpt>
      <trkpt lat="43.89622" lon="3.78732">
        <ele>272.89553833008</ele>
        <time>2020-10-13T20:27:39Z</time>
      </trkpt>
      <trkpt lat="43.89621" lon="3.7872">
        <ele>272.72756958008</ele>
        <time>2020-10-13T20:27:51Z</time>
      </trkpt>
      <trkpt lat="43.89625" lon="3.78707">
        <ele>272.66757202148</ele>
        <time>2020-10-13T20:28:03Z</time>
      </trkpt>
      <trkpt lat="43.8963" lon="3.78701">
        <ele>272.71557617188</ele>
        <time>2020-10-13T20:28:15Z</time>
      </trkpt>
      <trkpt lat="43.89635" lon="3.787">
        <ele>272.82354736328</ele>
        <time>2020-10-13T20:28:27Z</time>
      </trkpt>
      <trkpt lat="43.89608" lon="3.78658">
        <ele>271.31042480469</ele>
        <time>2020-10-13T20:28:39Z</time>
      </trkpt>
      <trkpt lat="43.89599" lon="3.78637">
        <ele>270.77340698242</ele>
        <time>2020-10-13T20:28:51Z</time>
      </trkpt>
      <trkpt lat="43.89546" lon="3.78573">
        <ele>269.23767089844</ele>
        <time>2020-10-13T20:29:03Z</time>
      </trkpt>
      <trkpt lat="43.8945" lon="3.78432">
        <ele>266.3625793457</ele>
        <time>2020-10-13T20:29:16Z</time>
      </trkpt>
      <trkpt lat="43.89412" lon="3.78356">
        <ele>264.99478149414</ele>
        <time>2020-10-13T20:29:28Z</time>
      </trkpt>
      <trkpt lat="43.89391" lon="3.7829">
        <ele>265.6025390625</ele>
        <time>2020-10-13T20:29:40Z</time>
      </trkpt>
      <trkpt lat="43.89381" lon="3.78231">
        <ele>265.58599853516</ele>
        <time>2020-10-13T20:29:52Z</time>
      </trkpt>
      <trkpt lat="43.8936" lon="3.78197">
        <ele>265.08206176758</ele>
        <time>2020-10-13T20:30:04Z</time>
      </trkpt>
      <trkpt lat="43.89315" lon="3.78091">
        <ele>264.33917236328</ele>
        <time>2020-10-13T20:30:16Z</time>
      </trkpt>
      <trkpt lat="43.89292" lon="3.78046">
        <ele>262.9714050293</ele>
        <time>2020-10-13T20:30:29Z</time>
      </trkpt>
      <trkpt lat="43.8927" lon="3.77983">
        <ele>262.76483154297</ele>
        <time>2020-10-13T20:30:41Z</time>
      </trkpt>
      <trkpt lat="43.89255" lon="3.77962">
        <ele>262.54885864258</ele>
        <time>2020-10-13T20:30:53Z</time>
      </trkpt>
      <trkpt lat="43.89235" lon="3.7795">
        <ele>261.87698364258</ele>
        <time>2020-10-13T20:31:05Z</time>
      </trkpt>
      <trkpt lat="43.89212" lon="3.77947">
        <ele>260.84515380859</ele>
        <time>2020-10-13T20:31:17Z</time>
      </trkpt>
      <trkpt lat="43.8919" lon="3.77951">
        <ele>259.84805297852</ele>
        <time>2020-10-13T20:31:30Z</time>
      </trkpt>
      <trkpt lat="43.8915" lon="3.77944">
        <ele>259.44937133789</ele>
        <time>2020-10-13T20:31:42Z</time>
      </trkpt>
      <trkpt lat="43.89104" lon="3.77946">
        <ele>258.93908691406</ele>
        <time>2020-10-13T20:31:54Z</time>
      </trkpt>
      <trkpt lat="43.89098" lon="3.77949">
        <ele>258.79510498047</ele>
        <time>2020-10-13T20:32:06Z</time>
      </trkpt>
      <trkpt lat="43.89088" lon="3.77946">
        <ele>258.55514526367</ele>
        <time>2020-10-13T20:32:18Z</time>
      </trkpt>
      <trkpt lat="43.89062" lon="3.7793">
        <ele>257.93127441406</ele>
        <time>2020-10-13T20:32:31Z</time>
      </trkpt>
      <trkpt lat="43.89047" lon="3.77929">
        <ele>257.57131958008</ele>
        <time>2020-10-13T20:32:43Z</time>
      </trkpt>
      <trkpt lat="43.89027" lon="3.77941">
        <ele>257.09140014648</ele>
        <time>2020-10-13T20:32:55Z</time>
      </trkpt>
      <trkpt lat="43.8901" lon="3.77946">
        <ele>256.17474365234</ele>
        <time>2020-10-13T20:33:07Z</time>
      </trkpt>
      <trkpt lat="43.88999" lon="3.77946">
        <ele>255.64685058594</ele>
        <time>2020-10-13T20:33:20Z</time>
      </trkpt>
      <trkpt lat="43.88968" lon="3.77931">
        <ele>254.43515014648</ele>
        <time>2020-10-13T20:33:32Z</time>
      </trkpt>
      <trkpt lat="43.88954" lon="3.77929">
        <ele>253.78726196289</ele>
        <time>2020-10-13T20:33:44Z</time>
      </trkpt>
      <trkpt lat="43.88867" lon="3.77939">
        <ele>252.11392211914</ele>
        <time>2020-10-13T20:33:56Z</time>
      </trkpt>
      <trkpt lat="43.88725" lon="3.7795">
        <ele>254.14408874512</ele>
        <time>2020-10-13T20:34:09Z</time>
      </trkpt>
      <trkpt lat="43.88684" lon="3.77943">
        <ele>255.0061340332</ele>
        <time>2020-10-13T20:34:21Z</time>
      </trkpt>
      <trkpt lat="43.88673" lon="3.77938">
        <ele>256.21792602539</ele>
        <time>2020-10-13T20:34:33Z</time>
      </trkpt>
      <trkpt lat="43.88654" lon="3.77921">
        <ele>257.7057800293</ele>
        <time>2020-10-13T20:34:46Z</time>
      </trkpt>
      <trkpt lat="43.8863" lon="3.77883">
        <ele>258.59362792969</ele>
        <time>2020-10-13T20:34:58Z</time>
      </trkpt>
      <trkpt lat="43.88593" lon="3.77775">
        <ele>257.30773925781</ele>
        <time>2020-10-13T20:35:10Z</time>
      </trkpt>
      <trkpt lat="43.88576" lon="3.77735">
        <ele>256.95602416992</ele>
        <time>2020-10-13T20:35:22Z</time>
      </trkpt>
      <trkpt lat="43.88558" lon="3.77672">
        <ele>255.94999694824</ele>
        <time>2020-10-13T20:35:35Z</time>
      </trkpt>
      <trkpt lat="43.88544" lon="3.7769">
        <ele>257.79586791992</ele>
        <time>2020-10-13T20:35:47Z</time>
      </trkpt>
      <trkpt lat="43.88531" lon="3.77695">
        <ele>258.69570922852</ele>
        <time>2020-10-13T20:35:59Z</time>
      </trkpt>
      <trkpt lat="43.8852" lon="3.77698">
        <ele>259.96704101562</ele>
        <time>2020-10-13T20:36:12Z</time>
      </trkpt>
      <trkpt lat="43.88504" lon="3.7769">
        <ele>262.07870483398</ele>
        <time>2020-10-13T20:36:24Z</time>
      </trkpt>
      <trkpt lat="43.88485" lon="3.77691">
        <ele>265.09020996094</ele>
        <time>2020-10-13T20:36:36Z</time>
      </trkpt>
      <trkpt lat="43.88474" lon="3.77696">
        <ele>267.04586791992</ele>
        <time>2020-10-13T20:36:49Z</time>
      </trkpt>
      <trkpt lat="43.88453" lon="3.77719">
        <ele>270.99774169922</ele>
        <time>2020-10-13T20:37:01Z</time>
      </trkpt>
      <trkpt lat="43.88388" lon="3.77805">
        <ele>282.45223999023</ele>
        <time>2020-10-13T20:37:14Z</time>
      </trkpt>
      <trkpt lat="43.88367" lon="3.77808">
        <ele>285.47573852539</ele>
        <time>2020-10-13T20:37:26Z</time>
      </trkpt>
      <trkpt lat="43.88329" lon="3.77835">
        <ele>286.95074462891</ele>
        <time>2020-10-13T20:37:38Z</time>
      </trkpt>
      <trkpt lat="43.88223" lon="3.77891">
        <ele>288.47308349609</ele>
        <time>2020-10-13T20:37:51Z</time>
      </trkpt>
      <trkpt lat="43.88198" lon="3.77896">
        <ele>288.89303588867</ele>
        <time>2020-10-13T20:38:03Z</time>
      </trkpt>
      <trkpt lat="43.88131" lon="3.779">
        <ele>289.08837890625</ele>
        <time>2020-10-13T20:38:15Z</time>
      </trkpt>
      <trkpt lat="43.88089" lon="3.77923">
        <ele>289.19488525391</ele>
        <time>2020-10-13T20:38:28Z</time>
      </trkpt>
      <trkpt lat="43.88069" lon="3.77941">
        <ele>288.76315307617</ele>
        <time>2020-10-13T20:38:40Z</time>
      </trkpt>
      <trkpt lat="43.88044" lon="3.77947">
        <ele>288.07928466797</ele>
        <time>2020-10-13T20:38:53Z</time>
      </trkpt>
      <trkpt lat="43.88035" lon="3.77958">
        <ele>288.05487060547</ele>
        <time>2020-10-13T20:39:05Z</time>
      </trkpt>
      <trkpt lat="43.88016" lon="3.78001">
        <ele>288.51196289062</ele>
        <time>2020-10-13T20:39:18Z</time>
      </trkpt>
      <trkpt lat="43.87993" lon="3.78025">
        <ele>289.08786010742</ele>
        <time>2020-10-13T20:39:30Z</time>
      </trkpt>
      <trkpt lat="43.8797" lon="3.78056">
        <ele>289.8837890625</ele>
        <time>2020-10-13T20:39:42Z</time>
      </trkpt>
      <trkpt lat="43.87937" lon="3.7807">
        <ele>290.94424438477</ele>
        <time>2020-10-13T20:39:55Z</time>
      </trkpt>
      <trkpt lat="43.87914" lon="3.78092">
        <ele>293.23596191406</ele>
        <time>2020-10-13T20:40:07Z</time>
      </trkpt>
      <trkpt lat="43.87904" lon="3.78111">
        <ele>294.44329833984</ele>
        <time>2020-10-13T20:40:20Z</time>
      </trkpt>
      <trkpt lat="43.87895" lon="3.78146">
        <ele>296.59948730469</ele>
        <time>2020-10-13T20:40:32Z</time>
      </trkpt>
      <trkpt lat="43.87839" lon="3.78265">
        <ele>302.33929443359</ele>
        <time>2020-10-13T20:40:45Z</time>
      </trkpt>
      <trkpt lat="43.87826" lon="3.78316">
        <ele>304.33386230469</ele>
        <time>2020-10-13T20:40:57Z</time>
      </trkpt>
      <trkpt lat="43.87813" lon="3.78387">
        <ele>307.06872558594</ele>
        <time>2020-10-13T20:41:10Z</time>
      </trkpt>
      <trkpt lat="43.87784" lon="3.78472">
        <ele>308.53921508789</ele>
        <time>2020-10-13T20:41:22Z</time>
      </trkpt>
      <trkpt lat="43.87775" lon="3.78484">
        <ele>308.57522583008</ele>
        <time>2020-10-13T20:41:35Z</time>
      </trkpt>
      <trkpt lat="43.87761" lon="3.78515">
        <ele>308.85623168945</ele>
        <time>2020-10-13T20:41:47Z</time>
      </trkpt>
      <trkpt lat="43.87736" lon="3.78552">
        <ele>308.92315673828</ele>
        <time>2020-10-13T20:42:00Z</time>
      </trkpt>
      <trkpt lat="43.87716" lon="3.78597">
        <ele>308.63265991211</ele>
        <time>2020-10-13T20:42:12Z</time>
      </trkpt>
      <trkpt lat="43.87695" lon="3.78629">
        <ele>308.12872314453</ele>
        <time>2020-10-13T20:42:25Z</time>
      </trkpt>
      <trkpt lat="43.87684" lon="3.78657">
        <ele>308</ele>
        <time>2020-10-13T20:42:37Z</time>
      </trkpt>
      <trkpt lat="43.87672" lon="3.78741">
        <ele>305.88464355469</ele>
        <time>2020-10-13T20:42:50Z</time>
      </trkpt>
      <trkpt lat="43.87666" lon="3.78762">
        <ele>304.92272949219</ele>
        <time>2020-10-13T20:43:02Z</time>
      </trkpt>
      <trkpt lat="43.87657" lon="3.78777">
        <ele>303.90933227539</ele>
        <time>2020-10-13T20:43:15Z</time>
      </trkpt>
      <trkpt lat="43.87649" lon="3.78851">
        <ele>299.44458007812</ele>
        <time>2020-10-13T20:43:27Z</time>
      </trkpt>
      <trkpt lat="43.87637" lon="3.78903">
        <ele>294.95269775391</ele>
        <time>2020-10-13T20:43:40Z</time>
      </trkpt>
      <trkpt lat="43.87633" lon="3.78944">
        <ele>291.70568847656</ele>
        <time>2020-10-13T20:43:53Z</time>
      </trkpt>
      <trkpt lat="43.87627" lon="3.78953">
        <ele>290.62585449219</ele>
        <time>2020-10-13T20:44:05Z</time>
      </trkpt>
      <trkpt lat="43.87614" lon="3.78951">
        <ele>288.80215454102</ele>
        <time>2020-10-13T20:44:18Z</time>
      </trkpt>
      <trkpt lat="43.876" lon="3.78953">
        <ele>287.11572265625</ele>
        <time>2020-10-13T20:44:30Z</time>
      </trkpt>
      <trkpt lat="43.87589" lon="3.79019">
        <ele>283.36654663086</ele>
        <time>2020-10-13T20:44:43Z</time>
      </trkpt>
      <trkpt lat="43.87578" lon="3.79062">
        <ele>277.84735107422</ele>
        <time>2020-10-13T20:44:55Z</time>
      </trkpt>
      <trkpt lat="43.8758" lon="3.79073">
        <ele>277.25946044922</ele>
        <time>2020-10-13T20:45:08Z</time>
      </trkpt>
      <trkpt lat="43.87635" lon="3.79153">
        <ele>277.12384033203</ele>
        <time>2020-10-13T20:45:21Z</time>
      </trkpt>
      <trkpt lat="43.87671" lon="3.79243">
        <ele>270.86087036133</ele>
        <time>2020-10-13T20:45:33Z</time>
      </trkpt>
      <trkpt lat="43.87668" lon="3.79255">
        <ele>269.41976928711</ele>
        <time>2020-10-13T20:45:46Z</time>
      </trkpt>
      <trkpt lat="43.87655" lon="3.79219">
        <ele>271.53277587891</ele>
        <time>2020-10-13T20:45:58Z</time>
      </trkpt>
      <trkpt lat="43.87644" lon="3.792">
        <ele>272.32464599609</ele>
        <time>2020-10-13T20:46:11Z</time>
      </trkpt>
      <trkpt lat="43.87621" lon="3.79173">
        <ele>272.30065917969</ele>
        <time>2020-10-13T20:46:24Z</time>
      </trkpt>
      <trkpt lat="43.87604" lon="3.79156">
        <ele>271.86526489258</ele>
        <time>2020-10-13T20:46:36Z</time>
      </trkpt>
      <trkpt lat="43.87521" lon="3.79097">
        <ele>265.42660522461</ele>
        <time>2020-10-13T20:46:49Z</time>
      </trkpt>
      <trkpt lat="43.87511" lon="3.79085">
        <ele>265.23461914062</ele>
        <time>2020-10-13T20:47:01Z</time>
      </trkpt>
      <trkpt lat="43.87471" lon="3.79028">
        <ele>265.22262573242</ele>
        <time>2020-10-13T20:47:14Z</time>
      </trkpt>
      <trkpt lat="43.87449" lon="3.78988">
        <ele>264.33453369141</ele>
        <time>2020-10-13T20:47:27Z</time>
      </trkpt>
      <trkpt lat="43.87363" lon="3.7886">
        <ele>258.71731567383</ele>
        <time>2020-10-13T20:47:39Z</time>
      </trkpt>
      <trkpt lat="43.87308" lon="3.78769">
        <ele>258.98718261719</ele>
        <time>2020-10-13T20:47:52Z</time>
      </trkpt>
      <trkpt lat="43.87284" lon="3.7877">
        <ele>255.67572021484</ele>
        <time>2020-10-13T20:48:05Z</time>
      </trkpt>
      <trkpt lat="43.8728" lon="3.78787">
        <ele>254.34077453613</ele>
        <time>2020-10-13T20:48:18Z</time>
      </trkpt>
      <trkpt lat="43.87283" lon="3.78812">
        <ele>254.48475646973</ele>
        <time>2020-10-13T20:48:30Z</time>
      </trkpt>
      <trkpt lat="43.8728" lon="3.7882">
        <ele>254.34077453613</ele>
        <time>2020-10-13T20:48:43Z</time>
      </trkpt>
      <trkpt lat="43.87243" lon="3.78842">
        <ele>252.97514343262</ele>
        <time>2020-10-13T20:48:56Z</time>
      </trkpt>
      <trkpt lat="43.87237" lon="3.78852">
        <ele>253.07112121582</ele>
        <time>2020-10-13T20:49:08Z</time>
      </trkpt>
      <trkpt lat="43.87232" lon="3.78876">
        <ele>254.03550720215</ele>
        <time>2020-10-13T20:49:21Z</time>
      </trkpt>
      <trkpt lat="43.87233" lon="3.78924">
        <ele>255.74543762207</ele>
        <time>2020-10-13T20:49:34Z</time>
      </trkpt>
      <trkpt lat="43.87212" lon="3.78963">
        <ele>256.59634399414</ele>
        <time>2020-10-13T20:49:46Z</time>
      </trkpt>
      <trkpt lat="43.87206" lon="3.79022">
        <ele>260.61578369141</ele>
        <time>2020-10-13T20:49:59Z</time>
      </trkpt>
      <trkpt lat="43.87188" lon="3.79">
        <ele>258.45190429688</ele>
        <time>2020-10-13T20:50:12Z</time>
      </trkpt>
      <trkpt lat="43.87169" lon="3.78995">
        <ele>258.09197998047</ele>
        <time>2020-10-13T20:50:25Z</time>
      </trkpt>
      <trkpt lat="43.87151" lon="3.78982">
        <ele>257.15612792969</ele>
        <time>2020-10-13T20:50:37Z</time>
      </trkpt>
      <trkpt lat="43.87066" lon="3.78986">
        <ele>257.42294311523</ele>
        <time>2020-10-13T20:50:50Z</time>
      </trkpt>
      <trkpt lat="43.87009" lon="3.78981">
        <ele>255.07131958008</ele>
        <time>2020-10-13T20:51:03Z</time>
      </trkpt>
      <trkpt lat="43.86961" lon="3.78994">
        <ele>254.12348937988</ele>
        <time>2020-10-13T20:51:16Z</time>
      </trkpt>
      <trkpt lat="43.86943" lon="3.79003">
        <ele>254.01550292969</ele>
        <time>2020-10-13T20:51:28Z</time>
      </trkpt>
      <trkpt lat="43.86913" lon="3.7899">
        <ele>253.11003112793</ele>
        <time>2020-10-13T20:51:41Z</time>
      </trkpt>
      <trkpt lat="43.86844" lon="3.78969">
        <ele>253.99234008789</ele>
        <time>2020-10-13T20:51:54Z</time>
      </trkpt>
      <trkpt lat="43.868" lon="3.78946">
        <ele>252.28861999512</ele>
        <time>2020-10-13T20:52:07Z</time>
      </trkpt>
      <trkpt lat="43.8675" lon="3.78938">
        <ele>250.62182617188</ele>
        <time>2020-10-13T20:52:20Z</time>
      </trkpt>
      <trkpt lat="43.86727" lon="3.78944">
        <ele>250.44314575195</ele>
        <time>2020-10-13T20:52:32Z</time>
      </trkpt>
      <trkpt lat="43.86705" lon="3.78941">
        <ele>248.51147460938</ele>
        <time>2020-10-13T20:52:45Z</time>
      </trkpt>
      <trkpt lat="43.86699" lon="3.78943">
        <ele>248.55946350098</ele>
        <time>2020-10-13T20:52:58Z</time>
      </trkpt>
      <trkpt lat="43.86676" lon="3.78963">
        <ele>248.87454223633</ele>
        <time>2020-10-13T20:53:11Z</time>
      </trkpt>
      <trkpt lat="43.86617" lon="3.78978">
        <ele>245.21733093262</ele>
        <time>2020-10-13T20:53:24Z</time>
      </trkpt>
      <trkpt lat="43.86602" lon="3.78993">
        <ele>244.53309631348</ele>
        <time>2020-10-13T20:53:36Z</time>
      </trkpt>
      <trkpt lat="43.86577" lon="3.78999">
        <ele>243.6654510498</ele>
        <time>2020-10-13T20:53:49Z</time>
      </trkpt>
      <trkpt lat="43.86562" lon="3.79009">
        <ele>241.68577575684</ele>
        <time>2020-10-13T20:54:02Z</time>
      </trkpt>
      <trkpt lat="43.86552" lon="3.79023">
        <ele>240.15585327148</ele>
        <time>2020-10-13T20:54:15Z</time>
      </trkpt>
      <trkpt lat="43.86555" lon="3.79045">
        <ele>240.47981262207</ele>
        <time>2020-10-13T20:54:28Z</time>
      </trkpt>
      <trkpt lat="43.86555" lon="3.79199">
        <ele>237.7389831543</ele>
        <time>2020-10-13T20:54:41Z</time>
      </trkpt>
      <trkpt lat="43.86551" lon="3.79206">
        <ele>237.4750213623</ele>
        <time>2020-10-13T20:54:54Z</time>
      </trkpt>
      <trkpt lat="43.8654" lon="3.79213">
        <ele>236.45520019531</ele>
        <time>2020-10-13T20:55:06Z</time>
      </trkpt>
      <trkpt lat="43.865" lon="3.79218">
        <ele>233.8953704834</ele>
        <time>2020-10-13T20:55:19Z</time>
      </trkpt>
      <trkpt lat="43.86494" lon="3.79233">
        <ele>234.0393371582</ele>
        <time>2020-10-13T20:55:32Z</time>
      </trkpt>
      <trkpt lat="43.86478" lon="3.79237">
        <ele>233.68212890625</ele>
        <time>2020-10-13T20:55:45Z</time>
      </trkpt>
      <trkpt lat="43.86457" lon="3.79265">
        <ele>234.18605041504</ele>
        <time>2020-10-13T20:55:58Z</time>
      </trkpt>
      <trkpt lat="43.86434" lon="3.79256">
        <ele>233.44041442871</ele>
        <time>2020-10-13T20:56:11Z</time>
      </trkpt>
      <trkpt lat="43.86404" lon="3.79261">
        <ele>232.72483825684</ele>
        <time>2020-10-13T20:56:24Z</time>
      </trkpt>
      <trkpt lat="43.86389" lon="3.79248">
        <ele>232.18493652344</ele>
        <time>2020-10-13T20:56:36Z</time>
      </trkpt>
      <trkpt lat="43.86383" lon="3.79236">
        <ele>231.96896362305</ele>
        <time>2020-10-13T20:56:49Z</time>
      </trkpt>
      <trkpt lat="43.86381" lon="3.79217">
        <ele>231.89697265625</ele>
        <time>2020-10-13T20:57:02Z</time>
      </trkpt>
      <trkpt lat="43.86385" lon="3.79161">
        <ele>230.02099609375</ele>
        <time>2020-10-13T20:57:15Z</time>
      </trkpt>
      <trkpt lat="43.86371" lon="3.79135">
        <ele>229.08514404297</ele>
        <time>2020-10-13T20:57:28Z</time>
      </trkpt>
      <trkpt lat="43.86346" lon="3.79105">
        <ele>227.76345825195</ele>
        <time>2020-10-13T20:57:41Z</time>
      </trkpt>
      <trkpt lat="43.86333" lon="3.79074">
        <ele>227.07601928711</ele>
        <time>2020-10-13T20:57:54Z</time>
      </trkpt>
      <trkpt lat="43.86325" lon="3.79064">
        <ele>226.76406860352</ele>
        <time>2020-10-13T20:58:07Z</time>
      </trkpt>
      <trkpt lat="43.86303" lon="3.79051">
        <ele>226.08018493652</ele>
        <time>2020-10-13T20:58:20Z</time>
      </trkpt>
      <trkpt lat="43.86297" lon="3.79033">
        <ele>225.72024536133</ele>
        <time>2020-10-13T20:58:33Z</time>
      </trkpt>
      <trkpt lat="43.86279" lon="3.79022">
        <ele>225.15634155273</ele>
        <time>2020-10-13T20:58:46Z</time>
      </trkpt>
      <trkpt lat="43.8625" lon="3.79011">
        <ele>226.63647460938</ele>
        <time>2020-10-13T20:58:58Z</time>
      </trkpt>
      <trkpt lat="43.86223" lon="3.78989">
        <ele>228.58013916016</ele>
        <time>2020-10-13T20:59:11Z</time>
      </trkpt>
      <trkpt lat="43.86192" lon="3.78938">
        <ele>230.8023223877</ele>
        <time>2020-10-13T20:59:24Z</time>
      </trkpt>
      <trkpt lat="43.8618" lon="3.78924">
        <ele>231.27673339844</ele>
        <time>2020-10-13T20:59:37Z</time>
      </trkpt>
      <trkpt lat="43.8614" lon="3.78809">
        <ele>229.17707824707</ele>
        <time>2020-10-13T20:59:50Z</time>
      </trkpt>
      <trkpt lat="43.86119" lon="3.78794">
        <ele>230.79681396484</ele>
        <time>2020-10-13T21:00:03Z</time>
      </trkpt>
      <trkpt lat="43.86109" lon="3.78774">
        <ele>230.80702209473</ele>
        <time>2020-10-13T21:00:16Z</time>
      </trkpt>
      <trkpt lat="43.86104" lon="3.7877">
        <ele>231.0658416748</ele>
        <time>2020-10-13T21:00:29Z</time>
      </trkpt>
      <trkpt lat="43.86077" lon="3.78767">
        <ele>233.11749267578</ele>
        <time>2020-10-13T21:00:42Z</time>
      </trkpt>
      <trkpt lat="43.86072" lon="3.78759">
        <ele>232.96153259277</ele>
        <time>2020-10-13T21:00:55Z</time>
      </trkpt>
      <trkpt lat="43.86063" lon="3.78717">
        <ele>230.69390869141</ele>
        <time>2020-10-13T21:01:08Z</time>
      </trkpt>
      <trkpt lat="43.86045" lon="3.78694">
        <ele>230.54992675781</ele>
        <time>2020-10-13T21:01:21Z</time>
      </trkpt>
      <trkpt lat="43.86042" lon="3.78685">
        <ele>230.04183959961</ele>
        <time>2020-10-13T21:01:34Z</time>
      </trkpt>
      <trkpt lat="43.86045" lon="3.78669">
        <ele>228.06216430664</ele>
        <time>2020-10-13T21:01:47Z</time>
      </trkpt>
      <trkpt lat="43.86043" lon="3.78661">
        <ele>227.36628723145</ele>
        <time>2020-10-13T21:02:00Z</time>
      </trkpt>
      <trkpt lat="43.86022" lon="3.78642">
        <ele>227.0285949707</ele>
        <time>2020-10-13T21:02:13Z</time>
      </trkpt>
      <trkpt lat="43.85977" lon="3.78492">
        <ele>220.58560180664</ele>
        <time>2020-10-13T21:02:26Z</time>
      </trkpt>
      <trkpt lat="43.85815" lon="3.78543">
        <ele>223.51779174805</ele>
        <time>2020-10-13T21:02:39Z</time>
      </trkpt>
      <trkpt lat="43.85728" lon="3.78579">
        <ele>226.22653198242</ele>
        <time>2020-10-13T21:02:52Z</time>
      </trkpt>
      <trkpt lat="43.85708" lon="3.78578">
        <ele>226.45448303223</ele>
        <time>2020-10-13T21:03:05Z</time>
      </trkpt>
      <trkpt lat="43.85689" lon="3.78567">
        <ele>226.56134033203</ele>
        <time>2020-10-13T21:03:18Z</time>
      </trkpt>
      <trkpt lat="43.85671" lon="3.7857">
        <ele>227.46119689941</ele>
        <time>2020-10-13T21:03:31Z</time>
      </trkpt>
      <trkpt lat="43.85581" lon="3.78617">
        <ele>230.74555969238</ele>
        <time>2020-10-13T21:03:44Z</time>
      </trkpt>
      <trkpt lat="43.85556" lon="3.78623">
        <ele>231.41744995117</ele>
        <time>2020-10-13T21:03:57Z</time>
      </trkpt>
      <trkpt lat="43.85522" lon="3.78626">
        <ele>233.01164245605</ele>
        <time>2020-10-13T21:04:10Z</time>
      </trkpt>
      <trkpt lat="43.85473" lon="3.78645">
        <ele>233.25770568848</ele>
        <time>2020-10-13T21:04:23Z</time>
      </trkpt>
      <trkpt lat="43.85457" lon="3.78644">
        <ele>232.83776855469</ele>
        <time>2020-10-13T21:04:37Z</time>
      </trkpt>
      <trkpt lat="43.8544" lon="3.78637">
        <ele>232.17788696289</ele>
        <time>2020-10-13T21:04:50Z</time>
      </trkpt>
      <trkpt lat="43.85432" lon="3.7863">
        <ele>231.82106018066</ele>
        <time>2020-10-13T21:05:03Z</time>
      </trkpt>
      <trkpt lat="43.85361" lon="3.78553">
        <ele>228.81878662109</ele>
        <time>2020-10-13T21:05:16Z</time>
      </trkpt>
      <trkpt lat="43.8532" lon="3.7852">
        <ele>227.98294067383</ele>
        <time>2020-10-13T21:05:29Z</time>
      </trkpt>
      <trkpt lat="43.8526" lon="3.78483">
        <ele>227.08671569824</ele>
        <time>2020-10-13T21:05:42Z</time>
      </trkpt>
      <trkpt lat="43.85228" lon="3.78476">
        <ele>225.85092163086</ele>
        <time>2020-10-13T21:05:55Z</time>
      </trkpt>
      <trkpt lat="43.85197" lon="3.78458">
        <ele>225.39340209961</ele>
        <time>2020-10-13T21:06:08Z</time>
      </trkpt>
      <trkpt lat="43.8512" lon="3.78434">
        <ele>223.85334777832</ele>
        <time>2020-10-13T21:06:22Z</time>
      </trkpt>
      <trkpt lat="43.85086" lon="3.78432">
        <ele>223.47006225586</ele>
        <time>2020-10-13T21:06:35Z</time>
      </trkpt>
      <trkpt lat="43.85056" lon="3.78437">
        <ele>223.35008239746</ele>
        <time>2020-10-13T21:06:48Z</time>
      </trkpt>
      <trkpt lat="43.85019" lon="3.78435">
        <ele>222.83625793457</ele>
        <time>2020-10-13T21:07:01Z</time>
      </trkpt>
      <trkpt lat="43.84981" lon="3.78417">
        <ele>221.25253295898</ele>
        <time>2020-10-13T21:07:14Z</time>
      </trkpt>
      <trkpt lat="43.84951" lon="3.78391">
        <ele>219.8607635498</ele>
        <time>2020-10-13T21:07:27Z</time>
      </trkpt>
      <trkpt lat="43.84906" lon="3.78376">
        <ele>220.0513458252</ele>
        <time>2020-10-13T21:07:41Z</time>
      </trkpt>
      <trkpt lat="43.8485" lon="3.78307">
        <ele>219.70178222656</ele>
        <time>2020-10-13T21:07:54Z</time>
      </trkpt>
      <trkpt lat="43.84817" lon="3.78286">
        <ele>221.32151794434</ele>
        <time>2020-10-13T21:08:07Z</time>
      </trkpt>
      <trkpt lat="43.84802" lon="3.78272">
        <ele>221.89741516113</ele>
        <time>2020-10-13T21:08:20Z</time>
      </trkpt>
      <trkpt lat="43.84796" lon="3.78259">
        <ele>222.45555114746</ele>
        <time>2020-10-13T21:08:33Z</time>
      </trkpt>
      <trkpt lat="43.84741" lon="3.78189">
        <ele>228.76567077637</ele>
        <time>2020-10-13T21:08:47Z</time>
      </trkpt>
      <trkpt lat="43.84703" lon="3.78166">
        <ele>233.86520385742</ele>
        <time>2020-10-13T21:09:00Z</time>
      </trkpt>
      <trkpt lat="43.8469" lon="3.78113">
        <ele>236.69673156738</ele>
        <time>2020-10-13T21:09:13Z</time>
      </trkpt>
      <trkpt lat="43.84652" lon="3.78054">
        <ele>240.60656738281</ele>
        <time>2020-10-13T21:09:26Z</time>
      </trkpt>
      <trkpt lat="43.846" lon="3.78">
        <ele>243.58332824707</ele>
        <time>2020-10-13T21:09:40Z</time>
      </trkpt>
      <trkpt lat="43.84576" lon="3.77987">
        <ele>241.85562133789</ele>
        <time>2020-10-13T21:09:53Z</time>
      </trkpt>
      <trkpt lat="43.84558" lon="3.77983">
        <ele>241.24011230469</ele>
        <time>2020-10-13T21:10:06Z</time>
      </trkpt>
      <trkpt lat="43.84487" lon="3.7798">
        <ele>237.62239074707</ele>
        <time>2020-10-13T21:10:19Z</time>
      </trkpt>
      <trkpt lat="43.8446" lon="3.77975">
        <ele>235.25048828125</ele>
        <time>2020-10-13T21:10:33Z</time>
      </trkpt>
      <trkpt lat="43.84423" lon="3.77981">
        <ele>232.90637207031</ele>
        <time>2020-10-13T21:10:46Z</time>
      </trkpt>
      <trkpt lat="43.84388" lon="3.77977">
        <ele>229.01928710938</ele>
        <time>2020-10-13T21:10:59Z</time>
      </trkpt>
      <trkpt lat="43.84334" lon="3.77984">
        <ele>226.34982299805</ele>
        <time>2020-10-13T21:11:13Z</time>
      </trkpt>
      <trkpt lat="43.84298" lon="3.77978">
        <ele>221.87187194824</ele>
        <time>2020-10-13T21:11:26Z</time>
      </trkpt>
      <trkpt lat="43.84258" lon="3.7801">
        <ele>221.52961730957</ele>
        <time>2020-10-13T21:11:39Z</time>
      </trkpt>
      <trkpt lat="43.8423" lon="3.78044">
        <ele>224.5525970459</ele>
        <time>2020-10-13T21:11:52Z</time>
      </trkpt>
      <trkpt lat="43.84209" lon="3.78052">
        <ele>223.78302001953</ele>
        <time>2020-10-13T21:12:06Z</time>
      </trkpt>
      <trkpt lat="43.84188" lon="3.78053">
        <ele>221.28044128418</ele>
        <time>2020-10-13T21:12:19Z</time>
      </trkpt>
      <trkpt lat="43.84159" lon="3.78068">
        <ele>222.75619506836</ele>
        <time>2020-10-13T21:12:32Z</time>
      </trkpt>
      <trkpt lat="43.84131" lon="3.78086">
        <ele>221.93792724609</ele>
        <time>2020-10-13T21:12:46Z</time>
      </trkpt>
      <trkpt lat="43.84108" lon="3.78118">
        <ele>222.66352844238</ele>
        <time>2020-10-13T21:12:59Z</time>
      </trkpt>
      <trkpt lat="43.84095" lon="3.78127">
        <ele>222.24279785156</ele>
        <time>2020-10-13T21:13:12Z</time>
      </trkpt>
      <trkpt lat="43.84034" lon="3.78135">
        <ele>216.76737976074</ele>
        <time>2020-10-13T21:13:26Z</time>
      </trkpt>
      <trkpt lat="43.84009" lon="3.78128">
        <ele>214.19813537598</ele>
        <time>2020-10-13T21:13:39Z</time>
      </trkpt>
      <trkpt lat="43.83984" lon="3.78114">
        <ele>212.4944152832</ele>
        <time>2020-10-13T21:13:52Z</time>
      </trkpt>
      <trkpt lat="43.83968" lon="3.78112">
        <ele>211.65455627441</ele>
        <time>2020-10-13T21:14:06Z</time>
      </trkpt>
      <trkpt lat="43.83933" lon="3.78083">
        <ele>209.00311279297</ele>
        <time>2020-10-13T21:14:19Z</time>
      </trkpt>
      <trkpt lat="43.83879" lon="3.78051">
        <ele>205.8317565918</ele>
        <time>2020-10-13T21:14:33Z</time>
      </trkpt>
      <trkpt lat="43.83871" lon="3.78006">
        <ele>204.5520324707</ele>
        <time>2020-10-13T21:14:46Z</time>
      </trkpt>
      <trkpt lat="43.8386" lon="3.77981">
        <ele>204.15609741211</ele>
        <time>2020-10-13T21:14:59Z</time>
      </trkpt>
      <trkpt lat="43.83802" lon="3.77923">
        <ele>199.59732055664</ele>
        <time>2020-10-13T21:15:13Z</time>
      </trkpt>
      <trkpt lat="43.83768" lon="3.77903">
        <ele>196.6887512207</ele>
        <time>2020-10-13T21:15:26Z</time>
      </trkpt>
      <trkpt lat="43.83767" lon="3.77899">
        <ele>196.53277587891</ele>
        <time>2020-10-13T21:15:40Z</time>
      </trkpt>
      <trkpt lat="43.8378" lon="3.77874">
        <ele>196.24987792969</ele>
        <time>2020-10-13T21:15:53Z</time>
      </trkpt>
      <trkpt lat="43.83791" lon="3.77818">
        <ele>195.25024414062</ele>
        <time>2020-10-13T21:16:06Z</time>
      </trkpt>
      <trkpt lat="43.83807" lon="3.77779">
        <ele>194.86654663086</ele>
        <time>2020-10-13T21:16:20Z</time>
      </trkpt>
      <trkpt lat="43.83801" lon="3.77751">
        <ele>194.30842590332</ele>
        <time>2020-10-13T21:16:33Z</time>
      </trkpt>
      <trkpt lat="43.83657" lon="3.77651">
        <ele>188.61643981934</ele>
        <time>2020-10-13T21:16:47Z</time>
      </trkpt>
      <trkpt lat="43.83579" lon="3.77658">
        <ele>189.59887695312</ele>
        <time>2020-10-13T21:17:00Z</time>
      </trkpt>
      <trkpt lat="43.83522" lon="3.77688">
        <ele>191.00511169434</ele>
        <time>2020-10-13T21:17:14Z</time>
      </trkpt>
      <trkpt lat="43.8348" lon="3.77689">
        <ele>191.54502868652</ele>
        <time>2020-10-13T21:17:27Z</time>
      </trkpt>
      <trkpt lat="43.83468" lon="3.77697">
        <ele>191.97695922852</ele>
        <time>2020-10-13T21:17:41Z</time>
      </trkpt>
      <trkpt lat="43.83451" lon="3.77698">
        <ele>192.21691894531</ele>
        <time>2020-10-13T21:17:54Z</time>
      </trkpt>
      <trkpt lat="43.83417" lon="3.77694">
        <ele>193.0523223877</ele>
        <time>2020-10-13T21:18:08Z</time>
      </trkpt>
      <trkpt lat="43.83354" lon="3.77671">
        <ele>196.40670776367</ele>
        <time>2020-10-13T21:18:21Z</time>
      </trkpt>
      <trkpt lat="43.83344" lon="3.7767">
        <ele>196.43070983887</ele>
        <time>2020-10-13T21:18:35Z</time>
      </trkpt>
      <trkpt lat="43.83185" lon="3.77673">
        <ele>196.00285339355</ele>
        <time>2020-10-13T21:18:48Z</time>
      </trkpt>
      <trkpt lat="43.83116" lon="3.77681">
        <ele>191.41961669922</ele>
        <time>2020-10-13T21:19:02Z</time>
      </trkpt>
      <trkpt lat="43.83059" lon="3.77664">
        <ele>187.92083740234</ele>
        <time>2020-10-13T21:19:15Z</time>
      </trkpt>
      <trkpt lat="43.83035" lon="3.77663">
        <ele>186.46907043457</ele>
        <time>2020-10-13T21:19:29Z</time>
      </trkpt>
      <trkpt lat="43.83003" lon="3.77669">
        <ele>186.44891357422</ele>
        <time>2020-10-13T21:19:42Z</time>
      </trkpt>
      <trkpt lat="43.82955" lon="3.7765">
        <ele>186.20895385742</ele>
        <time>2020-10-13T21:19:56Z</time>
      </trkpt>
      <trkpt lat="43.82925" lon="3.77635">
        <ele>187.86991882324</ele>
        <time>2020-10-13T21:20:09Z</time>
      </trkpt>
      <trkpt lat="43.82905" lon="3.77621">
        <ele>190.46148681641</ele>
        <time>2020-10-13T21:20:23Z</time>
      </trkpt>
      <trkpt lat="43.82877" lon="3.77609">
        <ele>193.72492980957</ele>
        <time>2020-10-13T21:20:36Z</time>
      </trkpt>
      <trkpt lat="43.82854" lon="3.77606">
        <ele>195.90409851074</ele>
        <time>2020-10-13T21:20:50Z</time>
      </trkpt>
      <trkpt lat="43.82845" lon="3.77601">
        <ele>196.4605255127</ele>
        <time>2020-10-13T21:21:04Z</time>
      </trkpt>
      <trkpt lat="43.82826" lon="3.77607">
        <ele>197.12788391113</ele>
        <time>2020-10-13T21:21:17Z</time>
      </trkpt>
      <trkpt lat="43.82793" lon="3.77631">
        <ele>196.09832763672</ele>
        <time>2020-10-13T21:21:31Z</time>
      </trkpt>
      <trkpt lat="43.82783" lon="3.77628">
        <ele>197.27412414551</ele>
        <time>2020-10-13T21:21:44Z</time>
      </trkpt>
      <trkpt lat="43.8278" lon="3.77619">
        <ele>198.20997619629</ele>
        <time>2020-10-13T21:21:58Z</time>
      </trkpt>
      <trkpt lat="43.82774" lon="3.77614">
        <ele>199.14581298828</ele>
        <time>2020-10-13T21:22:12Z</time>
      </trkpt>
      <trkpt lat="43.82754" lon="3.77609">
        <ele>198.81237792969</ele>
        <time>2020-10-13T21:22:25Z</time>
      </trkpt>
      <trkpt lat="43.82737" lon="3.77611">
        <ele>197.8525390625</ele>
        <time>2020-10-13T21:22:39Z</time>
      </trkpt>
      <trkpt lat="43.82701" lon="3.77625">
        <ele>195.90406799316</ele>
        <time>2020-10-13T21:22:52Z</time>
      </trkpt>
      <trkpt lat="43.82676" lon="3.77631">
        <ele>195.86544799805</ele>
        <time>2020-10-13T21:23:06Z</time>
      </trkpt>
      <trkpt lat="43.8267" lon="3.77609">
        <ele>194.97760009766</ele>
        <time>2020-10-13T21:23:20Z</time>
      </trkpt>
      <trkpt lat="43.82655" lon="3.77586">
        <ele>193.74903869629</ele>
        <time>2020-10-13T21:23:33Z</time>
      </trkpt>
      <trkpt lat="43.82625" lon="3.77551">
        <ele>191.52940368652</ele>
        <time>2020-10-13T21:23:47Z</time>
      </trkpt>
      <trkpt lat="43.82642" lon="3.77447">
        <ele>192.63081359863</ele>
        <time>2020-10-13T21:24:01Z</time>
      </trkpt>
      <trkpt lat="43.82653" lon="3.77352">
        <ele>192.25106811523</ele>
        <time>2020-10-13T21:24:14Z</time>
      </trkpt>
      <trkpt lat="43.82706" lon="3.77168">
        <ele>195.23835754395</ele>
        <time>2020-10-13T21:24:28Z</time>
      </trkpt>
      <trkpt lat="43.82716" lon="3.77069">
        <ele>197.93110656738</ele>
        <time>2020-10-13T21:24:42Z</time>
      </trkpt>
      <trkpt lat="43.82722" lon="3.76982">
        <ele>198.92832946777</ele>
        <time>2020-10-13T21:24:55Z</time>
      </trkpt>
      <trkpt lat="43.82721" lon="3.76951">
        <ele>199.2290802002</ele>
        <time>2020-10-13T21:25:09Z</time>
      </trkpt>
      <trkpt lat="43.82685" lon="3.76738">
        <ele>191.18194580078</ele>
        <time>2020-10-13T21:25:23Z</time>
      </trkpt>
      <trkpt lat="43.82687" lon="3.76708">
        <ele>189.8621673584</ele>
        <time>2020-10-13T21:25:36Z</time>
      </trkpt>
      <trkpt lat="43.82715" lon="3.76601">
        <ele>188.53039550781</ele>
        <time>2020-10-13T21:25:50Z</time>
      </trkpt>
      <trkpt lat="43.82725" lon="3.76574">
        <ele>188.80635070801</ele>
        <time>2020-10-13T21:26:04Z</time>
      </trkpt>
      <trkpt lat="43.82821" lon="3.76411">
        <ele>188.75833129883</ele>
        <time>2020-10-13T21:26:18Z</time>
      </trkpt>
      <trkpt lat="43.82831" lon="3.76388">
        <ele>188.51251220703</ele>
        <time>2020-10-13T21:26:31Z</time>
      </trkpt>
      <trkpt lat="43.82835" lon="3.76363">
        <ele>187.96060180664</ele>
        <time>2020-10-13T21:26:45Z</time>
      </trkpt>
      <trkpt lat="43.82838" lon="3.76251">
        <ele>190.27111816406</ele>
        <time>2020-10-13T21:26:59Z</time>
      </trkpt>
      <trkpt lat="43.82841" lon="3.7622">
        <ele>191.05097961426</ele>
        <time>2020-10-13T21:27:13Z</time>
      </trkpt>
      <trkpt lat="43.82848" lon="3.76193">
        <ele>191.78286743164</ele>
        <time>2020-10-13T21:27:26Z</time>
      </trkpt>
      <trkpt lat="43.82884" lon="3.76088">
        <ele>192.53817749023</ele>
        <time>2020-10-13T21:27:40Z</time>
      </trkpt>
      <trkpt lat="43.82895" lon="3.76067">
        <ele>192.92211914062</ele>
        <time>2020-10-13T21:27:54Z</time>
      </trkpt>
      <trkpt lat="43.82926" lon="3.76029">
        <ele>194.49995422363</ele>
        <time>2020-10-13T21:28:08Z</time>
      </trkpt>
      <trkpt lat="43.82896" lon="3.75917">
        <ele>195.22950744629</ele>
        <time>2020-10-13T21:28:22Z</time>
      </trkpt>
      <trkpt lat="43.8289" lon="3.75909">
        <ele>195.44548034668</ele>
        <time>2020-10-13T21:28:36Z</time>
      </trkpt>
      <trkpt lat="43.82882" lon="3.75907">
        <ele>195.42147827148</ele>
        <time>2020-10-13T21:28:49Z</time>
      </trkpt>
      <trkpt lat="43.82862" lon="3.75912">
        <ele>195.00155639648</ele>
        <time>2020-10-13T21:29:03Z</time>
      </trkpt>
      <trkpt lat="43.82836" lon="3.75888">
        <ele>195.08561706543</ele>
        <time>2020-10-13T21:29:17Z</time>
      </trkpt>
      <trkpt lat="43.82833" lon="3.75862">
        <ele>195.91348266602</ele>
        <time>2020-10-13T21:29:31Z</time>
      </trkpt>
      <trkpt lat="43.82838" lon="3.75835">
        <ele>197.25344848633</ele>
        <time>2020-10-13T21:29:45Z</time>
      </trkpt>
      <trkpt lat="43.82835" lon="3.75801">
        <ele>198.03332519531</ele>
        <time>2020-10-13T21:29:59Z</time>
      </trkpt>
      <trkpt lat="43.82843" lon="3.75769">
        <ele>198.89717102051</ele>
        <time>2020-10-13T21:30:12Z</time>
      </trkpt>
      <trkpt lat="43.8284" lon="3.75754">
        <ele>199.2211151123</ele>
        <time>2020-10-13T21:30:26Z</time>
      </trkpt>
      <trkpt lat="43.82777" lon="3.75717">
        <ele>199.3531036377</ele>
        <time>2020-10-13T21:30:40Z</time>
      </trkpt>
      <trkpt lat="43.82687" lon="3.7568">
        <ele>198.2308807373</ele>
        <time>2020-10-13T21:30:54Z</time>
      </trkpt>
      <trkpt lat="43.8267" lon="3.75679">
        <ele>197.85894775391</ele>
        <time>2020-10-13T21:31:08Z</time>
      </trkpt>
      <trkpt lat="43.8256" lon="3.75631">
        <ele>197.4924621582</ele>
        <time>2020-10-13T21:31:22Z</time>
      </trkpt>
      <trkpt lat="43.82546" lon="3.75635">
        <ele>196.85231018066</ele>
        <time>2020-10-13T21:31:36Z</time>
      </trkpt>
      <trkpt lat="43.82513" lon="3.75672">
        <ele>191.43734741211</ele>
        <time>2020-10-13T21:31:50Z</time>
      </trkpt>
      <trkpt lat="43.82507" lon="3.75674">
        <ele>190.76504516602</ele>
        <time>2020-10-13T21:32:04Z</time>
      </trkpt>
      <trkpt lat="43.82495" lon="3.75672">
        <ele>190.26113891602</ele>
        <time>2020-10-13T21:32:17Z</time>
      </trkpt>
      <trkpt lat="43.82481" lon="3.75661">
        <ele>189.98518371582</ele>
        <time>2020-10-13T21:32:31Z</time>
      </trkpt>
      <trkpt lat="43.82462" lon="3.75641">
        <ele>189.79321289062</ele>
        <time>2020-10-13T21:32:45Z</time>
      </trkpt>
      <trkpt lat="43.82435" lon="3.75529">
        <ele>195.3733215332</ele>
        <time>2020-10-13T21:32:59Z</time>
      </trkpt>
      <trkpt lat="43.82425" lon="3.7552">
        <ele>195.93440246582</ele>
        <time>2020-10-13T21:33:13Z</time>
      </trkpt>
      <trkpt lat="43.82397" lon="3.75468">
        <ele>201.07962036133</ele>
        <time>2020-10-13T21:33:27Z</time>
      </trkpt>
      <trkpt lat="43.82375" lon="3.75439">
        <ele>203.86315917969</ele>
        <time>2020-10-13T21:33:41Z</time>
      </trkpt>
      <trkpt lat="43.8231" lon="3.75329">
        <ele>203.2756652832</ele>
        <time>2020-10-13T21:33:55Z</time>
      </trkpt>
      <trkpt lat="43.82251" lon="3.75196">
        <ele>200.8874206543</ele>
        <time>2020-10-13T21:34:09Z</time>
      </trkpt>
      <trkpt lat="43.82238" lon="3.75183">
        <ele>200.63702392578</ele>
        <time>2020-10-13T21:34:23Z</time>
      </trkpt>
      <trkpt lat="43.82203" lon="3.752">
        <ele>198.53581237793</ele>
        <time>2020-10-13T21:34:37Z</time>
      </trkpt>
      <trkpt lat="43.82177" lon="3.75191">
        <ele>197.31278991699</ele>
        <time>2020-10-13T21:34:51Z</time>
      </trkpt>
      <trkpt lat="43.82144" lon="3.75185">
        <ele>195.97540283203</ele>
        <time>2020-10-13T21:35:05Z</time>
      </trkpt>
      <trkpt lat="43.82068" lon="3.75113">
        <ele>196.68020629883</ele>
        <time>2020-10-13T21:35:19Z</time>
      </trkpt>
      <trkpt lat="43.8204" lon="3.75064">
        <ele>199.32421875</ele>
        <time>2020-10-13T21:35:33Z</time>
      </trkpt>
      <trkpt lat="43.81976" lon="3.75024">
        <ele>198.45919799805</ele>
        <time>2020-10-13T21:35:47Z</time>
      </trkpt>
      <trkpt lat="43.81949" lon="3.75011">
        <ele>197.45137023926</ele>
        <time>2020-10-13T21:36:01Z</time>
      </trkpt>
      <trkpt lat="43.81918" lon="3.74984">
        <ele>197.16340637207</ele>
        <time>2020-10-13T21:36:15Z</time>
      </trkpt>
      <trkpt lat="43.8189" lon="3.74974">
        <ele>195.88969421387</ele>
        <time>2020-10-13T21:36:29Z</time>
      </trkpt>
      <trkpt lat="43.81816" lon="3.7492">
        <ele>193.58843994141</ele>
        <time>2020-10-13T21:36:43Z</time>
      </trkpt>
      <trkpt lat="43.81791" lon="3.74908">
        <ele>192.07669067383</ele>
        <time>2020-10-13T21:36:57Z</time>
      </trkpt>
      <trkpt lat="43.81761" lon="3.74875">
        <ele>191.23599243164</ele>
        <time>2020-10-13T21:37:11Z</time>
      </trkpt>
      <trkpt lat="43.81711" lon="3.74839">
        <ele>191.44512939453</ele>
        <time>2020-10-13T21:37:25Z</time>
      </trkpt>
      <trkpt lat="43.81667" lon="3.74812">
        <ele>191.74946594238</ele>
        <time>2020-10-13T21:37:40Z</time>
      </trkpt>
      <trkpt lat="43.81644" lon="3.74792">
        <ele>192.12139892578</ele>
        <time>2020-10-13T21:37:54Z</time>
      </trkpt>
      <trkpt lat="43.81595" lon="3.74766">
        <ele>191.86822509766</ele>
        <time>2020-10-13T21:38:08Z</time>
      </trkpt>
      <trkpt lat="43.81551" lon="3.74752">
        <ele>191.14834594727</ele>
        <time>2020-10-13T21:38:22Z</time>
      </trkpt>
      <trkpt lat="43.81518" lon="3.7471">
        <ele>191.17517089844</ele>
        <time>2020-10-13T21:38:36Z</time>
      </trkpt>
      <trkpt lat="43.81477" lon="3.7467">
        <ele>188.76480102539</ele>
        <time>2020-10-13T21:38:50Z</time>
      </trkpt>
      <trkpt lat="43.8146" lon="3.74642">
        <ele>187.54100036621</ele>
        <time>2020-10-13T21:39:04Z</time>
      </trkpt>
      <trkpt lat="43.81437" lon="3.74579">
        <ele>184.9052734375</ele>
        <time>2020-10-13T21:39:18Z</time>
      </trkpt>
      <trkpt lat="43.8143" lon="3.74549">
        <ele>182.98559570312</ele>
        <time>2020-10-13T21:39:32Z</time>
      </trkpt>
      <trkpt lat="43.8143" lon="3.74455">
        <ele>180.01458740234</ele>
        <time>2020-10-13T21:39:47Z</time>
      </trkpt>
      <trkpt lat="43.81414" lon="3.74448">
        <ele>178.61080932617</ele>
        <time>2020-10-13T21:40:01Z</time>
      </trkpt>
      <trkpt lat="43.81383" lon="3.74425">
        <ele>176.29565429688</ele>
        <time>2020-10-13T21:40:15Z</time>
      </trkpt>
      <trkpt lat="43.81296" lon="3.7441">
        <ele>172.96032714844</ele>
        <time>2020-10-13T21:40:29Z</time>
      </trkpt>
      <trkpt lat="43.81222" lon="3.74387">
        <ele>169.40174865723</ele>
        <time>2020-10-13T21:40:43Z</time>
      </trkpt>
      <trkpt lat="43.81208" lon="3.7437">
        <ele>168.35792541504</ele>
        <time>2020-10-13T21:40:57Z</time>
      </trkpt>
      <trkpt lat="43.81198" lon="3.74362">
        <ele>167.66204833984</ele>
        <time>2020-10-13T21:41:12Z</time>
      </trkpt>
      <trkpt lat="43.81187" lon="3.74359">
        <ele>167.08128356934</ele>
        <time>2020-10-13T21:41:26Z</time>
      </trkpt>
      <trkpt lat="43.8117" lon="3.74363">
        <ele>166.76934814453</ele>
        <time>2020-10-13T21:41:40Z</time>
      </trkpt>
      <trkpt lat="43.81152" lon="3.74363">
        <ele>166.33741760254</ele>
        <time>2020-10-13T21:41:54Z</time>
      </trkpt>
      <trkpt lat="43.81135" lon="3.74373">
        <ele>166.16943359375</ele>
        <time>2020-10-13T21:42:08Z</time>
      </trkpt>
      <trkpt lat="43.81123" lon="3.74373">
        <ele>165.88148498535</ele>
        <time>2020-10-13T21:42:23Z</time>
      </trkpt>
      <trkpt lat="43.81138" lon="3.74356">
        <ele>165.83349609375</ele>
        <time>2020-10-13T21:42:37Z</time>
      </trkpt>
      <trkpt lat="43.8114" lon="3.74358">
        <ele>165.92947387695</ele>
        <time>2020-10-13T21:42:51Z</time>
      </trkpt>
      <trkpt lat="43.81138" lon="3.74356">
        <ele>165.83349609375</ele>
        <time>2020-10-13T21:43:05Z</time>
      </trkpt>
      <trkpt lat="43.81143" lon="3.74334">
        <ele>166.38830566406</ele>
        <time>2020-10-13T21:43:19Z</time>
      </trkpt>
      <trkpt lat="43.81151" lon="3.74317">
        <ele>166.98820495605</ele>
        <time>2020-10-13T21:43:34Z</time>
      </trkpt>
      <trkpt lat="43.81152" lon="3.74304">
        <ele>167.16207885742</ele>
        <time>2020-10-13T21:43:48Z</time>
      </trkpt>
      <trkpt lat="43.81144" lon="3.74285">
        <ele>167.29405212402</ele>
        <time>2020-10-13T21:44:02Z</time>
      </trkpt>
      <trkpt lat="43.81137" lon="3.74254">
        <ele>169.18620300293</ele>
        <time>2020-10-13T21:44:16Z</time>
      </trkpt>
      <trkpt lat="43.81125" lon="3.74236">
        <ele>170.98590087891</ele>
        <time>2020-10-13T21:44:31Z</time>
      </trkpt>
      <trkpt lat="43.81087" lon="3.74223">
        <ele>171.49690246582</ele>
        <time>2020-10-13T21:44:45Z</time>
      </trkpt>
      <trkpt lat="43.81071" lon="3.74213">
        <ele>172.00082397461</ele>
        <time>2020-10-13T21:44:59Z</time>
      </trkpt>
      <trkpt lat="43.81041" lon="3.74169">
        <ele>177.65539550781</ele>
        <time>2020-10-13T21:45:13Z</time>
      </trkpt>
      <trkpt lat="43.81029" lon="3.74159">
        <ele>179.38310241699</ele>
        <time>2020-10-13T21:45:28Z</time>
      </trkpt>
      <trkpt lat="43.81016" lon="3.74157">
        <ele>179.41738891602</ele>
        <time>2020-10-13T21:45:42Z</time>
      </trkpt>
      <trkpt lat="43.80961" lon="3.74183">
        <ele>175.19369506836</ele>
        <time>2020-10-13T21:45:56Z</time>
      </trkpt>
      <trkpt lat="43.80937" lon="3.74191">
        <ele>174.68742370605</ele>
        <time>2020-10-13T21:46:10Z</time>
      </trkpt>
      <trkpt lat="43.80919" lon="3.74194">
        <ele>174.83140563965</ele>
        <time>2020-10-13T21:46:25Z</time>
      </trkpt>
      <trkpt lat="43.80857" lon="3.74191">
        <ele>176.62867736816</ele>
        <time>2020-10-13T21:46:39Z</time>
      </trkpt>
      <trkpt lat="43.8083" lon="3.74171">
        <ele>177.28717041016</ele>
        <time>2020-10-13T21:46:53Z</time>
      </trkpt>
      <trkpt lat="43.80758" lon="3.74108">
        <ele>178.19364929199</ele>
        <time>2020-10-13T21:47:07Z</time>
      </trkpt>
      <trkpt lat="43.80716" lon="3.7407">
        <ele>180.40284729004</ele>
        <time>2020-10-13T21:47:22Z</time>
      </trkpt>
      <trkpt lat="43.80677" lon="3.74029">
        <ele>183.17514038086</ele>
        <time>2020-10-13T21:47:36Z</time>
      </trkpt>
      <trkpt lat="43.80643" lon="3.74006">
        <ele>183.66311645508</ele>
        <time>2020-10-13T21:47:50Z</time>
      </trkpt>
      <trkpt lat="43.80623" lon="3.73997">
        <ele>183.41116333008</ele>
        <time>2020-10-13T21:48:05Z</time>
      </trkpt>
      <trkpt lat="43.80589" lon="3.7399">
        <ele>182.08084106445</ele>
        <time>2020-10-13T21:48:19Z</time>
      </trkpt>
      <trkpt lat="43.80529" lon="3.73965">
        <ele>183.0076751709</ele>
        <time>2020-10-13T21:48:33Z</time>
      </trkpt>
      <trkpt lat="43.80504" lon="3.73951">
        <ele>184.01551818848</ele>
        <time>2020-10-13T21:48:48Z</time>
      </trkpt>
      <trkpt lat="43.80468" lon="3.73943">
        <ele>184.59141540527</ele>
        <time>2020-10-13T21:49:02Z</time>
      </trkpt>
      <trkpt lat="43.80428" lon="3.73921">
        <ele>186.30026245117</ele>
        <time>2020-10-13T21:49:16Z</time>
      </trkpt>
      <trkpt lat="43.80319" lon="3.73883">
        <ele>193.64686584473</ele>
        <time>2020-10-13T21:49:31Z</time>
      </trkpt>
      <trkpt lat="43.80191" lon="3.73849">
        <ele>200.32086181641</ele>
        <time>2020-10-13T21:49:45Z</time>
      </trkpt>
      <trkpt lat="43.80134" lon="3.7384">
        <ele>202.31121826172</ele>
        <time>2020-10-13T21:49:59Z</time>
      </trkpt>
      <trkpt lat="43.80096" lon="3.73838">
        <ele>203.0417175293</ele>
        <time>2020-10-13T21:50:14Z</time>
      </trkpt>
      <trkpt lat="43.8007" lon="3.73842">
        <ele>202.99519348145</ele>
        <time>2020-10-13T21:50:28Z</time>
      </trkpt>
      <trkpt lat="43.80062" lon="3.73849">
        <ele>202.75523376465</ele>
        <time>2020-10-13T21:50:43Z</time>
      </trkpt>
      <trkpt lat="43.80061" lon="3.73854">
        <ele>202.52836608887</ele>
        <time>2020-10-13T21:50:57Z</time>
      </trkpt>
      <trkpt lat="43.80022" lon="3.73871">
        <ele>202.7957611084</ele>
        <time>2020-10-13T21:51:11Z</time>
      </trkpt>
      <trkpt lat="43.79944" lon="3.73913">
        <ele>198.21485900879</ele>
        <time>2020-10-13T21:51:26Z</time>
      </trkpt>
      <trkpt lat="43.79826" lon="3.73986">
        <ele>187.66464233398</ele>
        <time>2020-10-13T21:51:40Z</time>
      </trkpt>
      <trkpt lat="43.79752" lon="3.74015">
        <ele>184.05699157715</ele>
        <time>2020-10-13T21:51:55Z</time>
      </trkpt>
      <trkpt lat="43.79713" lon="3.74017">
        <ele>182.18530273438</ele>
        <time>2020-10-13T21:52:09Z</time>
      </trkpt>
      <trkpt lat="43.79704" lon="3.74026">
        <ele>181.9451751709</ele>
        <time>2020-10-13T21:52:24Z</time>
      </trkpt>
      <trkpt lat="43.79682" lon="3.74089">
        <ele>182.63961791992</ele>
        <time>2020-10-13T21:52:38Z</time>
      </trkpt>
      <trkpt lat="43.7967" lon="3.74103">
        <ele>182.35345458984</ele>
        <time>2020-10-13T21:52:53Z</time>
      </trkpt>
      <trkpt lat="43.79652" lon="3.74007">
        <ele>181.16403198242</ele>
        <time>2020-10-13T21:53:07Z</time>
      </trkpt>
      <trkpt lat="43.79635" lon="3.73965">
        <ele>181.6395111084</ele>
        <time>2020-10-13T21:53:22Z</time>
      </trkpt>
      <trkpt lat="43.79613" lon="3.73936">
        <ele>181.88758850098</ele>
        <time>2020-10-13T21:53:36Z</time>
      </trkpt>
      <trkpt lat="43.79573" lon="3.73895">
        <ele>182.25898742676</ele>
        <time>2020-10-13T21:53:51Z</time>
      </trkpt>
      <trkpt lat="43.79558" lon="3.73873">
        <ele>182.35496520996</ele>
        <time>2020-10-13T21:54:05Z</time>
      </trkpt>
      <trkpt lat="43.79474" lon="3.73694">
        <ele>183.79417419434</ele>
        <time>2020-10-13T21:54:20Z</time>
      </trkpt>
      <trkpt lat="43.79301" lon="3.73421">
        <ele>187.58457946777</ele>
        <time>2020-10-13T21:54:34Z</time>
      </trkpt>
      <trkpt lat="43.79282" lon="3.7337">
        <ele>189.42027282715</ele>
        <time>2020-10-13T21:54:49Z</time>
      </trkpt>
      <trkpt lat="43.79272" lon="3.7333">
        <ele>192.60092163086</ele>
        <time>2020-10-13T21:55:03Z</time>
      </trkpt>
      <trkpt lat="43.79194" lon="3.73302">
        <ele>191.5598449707</ele>
        <time>2020-10-13T21:55:18Z</time>
      </trkpt>
      <trkpt lat="43.79114" lon="3.73255">
        <ele>192.48257446289</ele>
        <time>2020-10-13T21:55:33Z</time>
      </trkpt>
      <trkpt lat="43.79088" lon="3.73261">
        <ele>192.02665710449</ele>
        <time>2020-10-13T21:55:47Z</time>
      </trkpt>
      <trkpt lat="43.79034" lon="3.7326">
        <ele>191.4027557373</ele>
        <time>2020-10-13T21:56:02Z</time>
      </trkpt>
      <trkpt lat="43.7887" lon="3.73224">
        <ele>195.75289916992</ele>
        <time>2020-10-13T21:56:17Z</time>
      </trkpt>
      <trkpt lat="43.7885" lon="3.73224">
        <ele>196.11692810059</ele>
        <time>2020-10-13T21:56:31Z</time>
      </trkpt>
      <trkpt lat="43.78317" lon="3.72723">
        <ele>201.37208557129</ele>
        <time>2020-10-13T21:56:46Z</time>
      </trkpt>
      <trkpt lat="43.78302" lon="3.727">
        <ele>202.11596679688</ele>
        <time>2020-10-13T21:57:01Z</time>
      </trkpt>
      <trkpt lat="43.7831" lon="3.72674">
        <ele>203.71308898926</ele>
        <time>2020-10-13T21:57:15Z</time>
      </trkpt>
      <trkpt lat="43.78292" lon="3.72665">
        <ele>203.82107543945</ele>
        <time>2020-10-13T21:57:30Z</time>
      </trkpt>
      <trkpt lat="43.78236" lon="3.72609">
        <ele>205.83673095703</ele>
        <time>2020-10-13T21:57:45Z</time>
      </trkpt>
      <trkpt lat="43.782" lon="3.72565">
        <ele>207.14729309082</ele>
        <time>2020-10-13T21:58:00Z</time>
      </trkpt>
      <trkpt lat="43.78178" lon="3.72554">
        <ele>207.02668762207</ele>
        <time>2020-10-13T21:58:15Z</time>
      </trkpt>
      <trkpt lat="43.78094" lon="3.72469">
        <ele>209.93338012695</ele>
        <time>2020-10-13T21:58:29Z</time>
      </trkpt>
      <trkpt lat="43.78075" lon="3.72435">
        <ele>211.98057556152</ele>
        <time>2020-10-13T21:58:44Z</time>
      </trkpt>
      <trkpt lat="43.7807" lon="3.72397">
        <ele>212.84130859375</ele>
        <time>2020-10-13T21:58:59Z</time>
      </trkpt>
      <trkpt lat="43.78062" lon="3.72369">
        <ele>213.70516967773</ele>
        <time>2020-10-13T21:59:14Z</time>
      </trkpt>
      <trkpt lat="43.77862" lon="3.72234">
        <ele>215.19245910645</ele>
        <time>2020-10-13T21:59:29Z</time>
      </trkpt>
      <trkpt lat="43.77819" lon="3.72211">
        <ele>216.55618286133</ele>
        <time>2020-10-13T21:59:44Z</time>
      </trkpt>
      <trkpt lat="43.77769" lon="3.72192">
        <ele>217.52723693848</ele>
        <time>2020-10-13T21:59:58Z</time>
      </trkpt>
      <trkpt lat="43.77763" lon="3.72188">
        <ele>217.71920776367</ele>
        <time>2020-10-13T22:00:13Z</time>
      </trkpt>
      <trkpt lat="43.77756" lon="3.72175">
        <ele>218.93179321289</ele>
        <time>2020-10-13T22:00:28Z</time>
      </trkpt>
      <trkpt lat="43.77731" lon="3.72175">
        <ele>218.3318939209</ele>
        <time>2020-10-13T22:00:43Z</time>
      </trkpt>
      <trkpt lat="43.77712" lon="3.72162">
        <ele>219.27972412109</ele>
        <time>2020-10-13T22:00:58Z</time>
      </trkpt>
      <trkpt lat="43.77687" lon="3.72151">
        <ele>219.83276367188</ele>
        <time>2020-10-13T22:01:13Z</time>
      </trkpt>
      <trkpt lat="43.77659" lon="3.72153">
        <ele>217.9370880127</ele>
        <time>2020-10-13T22:01:28Z</time>
      </trkpt>
      <trkpt lat="43.77652" lon="3.72138">
        <ele>219.13688659668</ele>
        <time>2020-10-13T22:01:43Z</time>
      </trkpt>
      <trkpt lat="43.77632" lon="3.72128">
        <ele>219.01690673828</ele>
        <time>2020-10-13T22:01:58Z</time>
      </trkpt>
      <trkpt lat="43.77616" lon="3.72127">
        <ele>218.59466552734</ele>
        <time>2020-10-13T22:02:12Z</time>
      </trkpt>
      <trkpt lat="43.77602" lon="3.72122">
        <ele>218.52430725098</ele>
        <time>2020-10-13T22:02:27Z</time>
      </trkpt>
      <trkpt lat="43.77549" lon="3.72091">
        <ele>217.72866821289</ele>
        <time>2020-10-13T22:02:42Z</time>
      </trkpt>
      <trkpt lat="43.77531" lon="3.72088">
        <ele>216.9008026123</ele>
        <time>2020-10-13T22:02:57Z</time>
      </trkpt>
      <trkpt lat="43.77515" lon="3.72094">
        <ele>215.58760070801</ele>
        <time>2020-10-13T22:03:12Z</time>
      </trkpt>
      <trkpt lat="43.7747" lon="3.72068">
        <ele>217.08668518066</ele>
        <time>2020-10-13T22:03:27Z</time>
      </trkpt>
      <trkpt lat="43.7746" lon="3.7205">
        <ele>217.75857543945</ele>
        <time>2020-10-13T22:03:42Z</time>
      </trkpt>
      <trkpt lat="43.77416" lon="3.71995">
        <ele>219.91201782227</ele>
        <time>2020-10-13T22:03:57Z</time>
      </trkpt>
      <trkpt lat="43.77405" lon="3.7195">
        <ele>221.53175354004</ele>
        <time>2020-10-13T22:04:12Z</time>
      </trkpt>
      <trkpt lat="43.77397" lon="3.71935">
        <ele>222.04777526855</ele>
        <time>2020-10-13T22:04:27Z</time>
      </trkpt>
      <trkpt lat="43.7738" lon="3.71916">
        <ele>222.50369262695</ele>
        <time>2020-10-13T22:04:42Z</time>
      </trkpt>
      <trkpt lat="43.77374" lon="3.71889">
        <ele>223.15159606934</ele>
        <time>2020-10-13T22:04:57Z</time>
      </trkpt>
      <trkpt lat="43.77358" lon="3.71859">
        <ele>223.87147521973</ele>
        <time>2020-10-13T22:05:12Z</time>
      </trkpt>
      <trkpt lat="43.77333" lon="3.71846">
        <ele>223.94071960449</ele>
        <time>2020-10-13T22:05:27Z</time>
      </trkpt>
      <trkpt lat="43.77325" lon="3.71836">
        <ele>224.34864807129</ele>
        <time>2020-10-13T22:05:42Z</time>
      </trkpt>
      <trkpt lat="43.77304" lon="3.71833">
        <ele>224.02470397949</ele>
        <time>2020-10-13T22:05:57Z</time>
      </trkpt>
      <trkpt lat="43.77291" lon="3.71825">
        <ele>224.19267272949</ele>
        <time>2020-10-13T22:06:12Z</time>
      </trkpt>
      <trkpt lat="43.7727" lon="3.71805">
        <ele>224.91813659668</ele>
        <time>2020-10-13T22:06:26Z</time>
      </trkpt>
      <trkpt lat="43.77213" lon="3.71739">
        <ele>228.12648010254</ele>
        <time>2020-10-13T22:06:41Z</time>
      </trkpt>
      <trkpt lat="43.77158" lon="3.71643">
        <ele>231.72956848145</ele>
        <time>2020-10-13T22:06:56Z</time>
      </trkpt>
      <trkpt lat="43.77141" lon="3.71598">
        <ele>234.01873779297</ele>
        <time>2020-10-13T22:07:11Z</time>
      </trkpt>
      <trkpt lat="43.77114" lon="3.71557">
        <ele>234.69062805176</ele>
        <time>2020-10-13T22:07:26Z</time>
      </trkpt>
      <trkpt lat="43.77043" lon="3.71476">
        <ele>237.47666931152</ele>
        <time>2020-10-13T22:07:42Z</time>
      </trkpt>
      <trkpt lat="43.77039" lon="3.71451">
        <ele>237.7956237793</ele>
        <time>2020-10-13T22:07:57Z</time>
      </trkpt>
      <trkpt lat="43.77041" lon="3.71438">
        <ele>238.64747619629</ele>
        <time>2020-10-13T22:08:12Z</time>
      </trkpt>
      <trkpt lat="43.77009" lon="3.71454">
        <ele>240.63279724121</ele>
        <time>2020-10-13T22:08:27Z</time>
      </trkpt>
      <trkpt lat="43.76973" lon="3.71445">
        <ele>248.4075012207</ele>
        <time>2020-10-13T22:08:42Z</time>
      </trkpt>
      <trkpt lat="43.76966" lon="3.71408">
        <ele>251.30657958984</ele>
        <time>2020-10-13T22:08:57Z</time>
      </trkpt>
      <trkpt lat="43.76951" lon="3.7137">
        <ele>256.36972045898</ele>
        <time>2020-10-13T22:09:12Z</time>
      </trkpt>
      <trkpt lat="43.7694" lon="3.71302">
        <ele>258.37466430664</ele>
        <time>2020-10-13T22:09:27Z</time>
      </trkpt>
      <trkpt lat="43.76906" lon="3.7123">
        <ele>260.0915222168</ele>
        <time>2020-10-13T22:09:42Z</time>
      </trkpt>
      <trkpt lat="43.76865" lon="3.71188">
        <ele>263.01904296875</ele>
        <time>2020-10-13T22:09:57Z</time>
      </trkpt>
      <trkpt lat="43.76835" lon="3.71168">
        <ele>266.84484863281</ele>
        <time>2020-10-13T22:10:12Z</time>
      </trkpt>
      <trkpt lat="43.76812" lon="3.71138">
        <ele>269.88919067383</ele>
        <time>2020-10-13T22:10:27Z</time>
      </trkpt>
      <trkpt lat="43.7678" lon="3.71112">
        <ele>274.71240234375</ele>
        <time>2020-10-13T22:10:42Z</time>
      </trkpt>
      <trkpt lat="43.76763" lon="3.71053">
        <ele>273.14544677734</ele>
        <time>2020-10-13T22:10:57Z</time>
      </trkpt>
      <trkpt lat="43.76746" lon="3.71015">
        <ele>272.10366821289</ele>
        <time>2020-10-13T22:11:12Z</time>
      </trkpt>
      <trkpt lat="43.76732" lon="3.70997">
        <ele>272.36764526367</ele>
        <time>2020-10-13T22:11:28Z</time>
      </trkpt>
      <trkpt lat="43.76664" lon="3.70952">
        <ele>275.62384033203</ele>
        <time>2020-10-13T22:11:43Z</time>
      </trkpt>
      <trkpt lat="43.76613" lon="3.70905">
        <ele>278.38485717773</ele>
        <time>2020-10-13T22:11:58Z</time>
      </trkpt>
      <trkpt lat="43.76569" lon="3.70827">
        <ele>283.67926025391</ele>
        <time>2020-10-13T22:12:13Z</time>
      </trkpt>
      <trkpt lat="43.76555" lon="3.7077">
        <ele>285.11563110352</ele>
        <time>2020-10-13T22:12:28Z</time>
      </trkpt>
      <trkpt lat="43.76551" lon="3.70721">
        <ele>283.92782592773</ele>
        <time>2020-10-13T22:12:43Z</time>
      </trkpt>
      <trkpt lat="43.76539" lon="3.70688">
        <ele>286.26834106445</ele>
        <time>2020-10-13T22:12:58Z</time>
      </trkpt>
      <trkpt lat="43.76509" lon="3.70641">
        <ele>286.67770385742</ele>
        <time>2020-10-13T22:13:14Z</time>
      </trkpt>
      <trkpt lat="43.7649" lon="3.7062">
        <ele>285.56188964844</ele>
        <time>2020-10-13T22:13:29Z</time>
      </trkpt>
      <trkpt lat="43.76485" lon="3.70607">
        <ele>285.35791015625</ele>
        <time>2020-10-13T22:13:44Z</time>
      </trkpt>
      <trkpt lat="43.7649" lon="3.70572">
        <ele>285.78817749023</ele>
        <time>2020-10-13T22:13:59Z</time>
      </trkpt>
      <trkpt lat="43.76481" lon="3.70544">
        <ele>286.73599243164</ele>
        <time>2020-10-13T22:14:14Z</time>
      </trkpt>
      <trkpt lat="43.76471" lon="3.70545">
        <ele>285.09228515625</ele>
        <time>2020-10-13T22:14:29Z</time>
      </trkpt>
      <trkpt lat="43.76453" lon="3.7057">
        <ele>283.09707641602</ele>
        <time>2020-10-13T22:14:45Z</time>
      </trkpt>
      <trkpt lat="43.76433" lon="3.70601">
        <ele>281.62942504883</ele>
        <time>2020-10-13T22:15:00Z</time>
      </trkpt>
      <trkpt lat="43.76425" lon="3.70626">
        <ele>281.46975708008</ele>
        <time>2020-10-13T22:15:15Z</time>
      </trkpt>
      <trkpt lat="43.76414" lon="3.70648">
        <ele>281.07385253906</ele>
        <time>2020-10-13T22:15:30Z</time>
      </trkpt>
      <trkpt lat="43.76409" lon="3.70652">
        <ele>280.74987792969</ele>
        <time>2020-10-13T22:15:45Z</time>
      </trkpt>
      <trkpt lat="43.76392" lon="3.70652">
        <ele>279.05871582031</ele>
        <time>2020-10-13T22:16:01Z</time>
      </trkpt>
      <trkpt lat="43.76369" lon="3.7063">
        <ele>276.57513427734</ele>
        <time>2020-10-13T22:16:16Z</time>
      </trkpt>
      <trkpt lat="43.76354" lon="3.7062">
        <ele>274.99505615234</ele>
        <time>2020-10-13T22:16:31Z</time>
      </trkpt>
      <trkpt lat="43.76287" lon="3.70592">
        <ele>274.19119262695</ele>
        <time>2020-10-13T22:16:46Z</time>
      </trkpt>
      <trkpt lat="43.76208" lon="3.70538">
        <ele>276.26998901367</ele>
        <time>2020-10-13T22:17:01Z</time>
      </trkpt>
      <trkpt lat="43.76187" lon="3.7053">
        <ele>276.88970947266</ele>
        <time>2020-10-13T22:17:17Z</time>
      </trkpt>
      <trkpt lat="43.76175" lon="3.7053">
        <ele>277.03369140625</ele>
        <time>2020-10-13T22:17:32Z</time>
      </trkpt>
      <trkpt lat="43.76153" lon="3.70533">
        <ele>277.26162719727</ele>
        <time>2020-10-13T22:17:47Z</time>
      </trkpt>
      <trkpt lat="43.76045" lon="3.70574">
        <ele>283.39303588867</ele>
        <time>2020-10-13T22:18:02Z</time>
      </trkpt>
      <trkpt lat="43.76026" lon="3.70578">
        <ele>284.47283935547</ele>
        <time>2020-10-13T22:18:18Z</time>
      </trkpt>
      <trkpt lat="43.76009" lon="3.70586">
        <ele>285.12072753906</ele>
        <time>2020-10-13T22:18:33Z</time>
      </trkpt>
      <trkpt lat="43.7597" lon="3.70614">
        <ele>283.97085571289</ele>
        <time>2020-10-13T22:18:48Z</time>
      </trkpt>
      <trkpt lat="43.75921" lon="3.70632">
        <ele>282.37112426758</ele>
        <time>2020-10-13T22:19:04Z</time>
      </trkpt>
      <trkpt lat="43.75807" lon="3.70607">
        <ele>278.05020141602</ele>
        <time>2020-10-13T22:19:19Z</time>
      </trkpt>
      <trkpt lat="43.75798" lon="3.70608">
        <ele>278.24215698242</ele>
        <time>2020-10-13T22:19:34Z</time>
      </trkpt>
      <trkpt lat="43.75791" lon="3.70612">
        <ele>278.31414794922</ele>
        <time>2020-10-13T22:19:49Z</time>
      </trkpt>
      <trkpt lat="43.75746" lon="3.70659">
        <ele>277.89923095703</ele>
        <time>2020-10-13T22:20:05Z</time>
      </trkpt>
      <trkpt lat="43.75718" lon="3.7068">
        <ele>277.59689331055</ele>
        <time>2020-10-13T22:20:20Z</time>
      </trkpt>
      <trkpt lat="43.75702" lon="3.7069">
        <ele>277.53948974609</ele>
        <time>2020-10-13T22:20:35Z</time>
      </trkpt>
      <trkpt lat="43.75666" lon="3.70697">
        <ele>275.84399414062</ele>
        <time>2020-10-13T22:20:51Z</time>
      </trkpt>
      <trkpt lat="43.75552" lon="3.70673">
        <ele>270.0285949707</ele>
        <time>2020-10-13T22:21:06Z</time>
      </trkpt>
      <trkpt lat="43.75497" lon="3.70649">
        <ele>266.15536499023</ele>
        <time>2020-10-13T22:21:21Z</time>
      </trkpt>
      <trkpt lat="43.75439" lon="3.706">
        <ele>261.17620849609</ele>
        <time>2020-10-13T22:21:37Z</time>
      </trkpt>
      <trkpt lat="43.75392" lon="3.70578">
        <ele>256.99221801758</ele>
        <time>2020-10-13T22:21:52Z</time>
      </trkpt>
      <trkpt lat="43.75375" lon="3.70561">
        <ele>255.76843261719</ele>
        <time>2020-10-13T22:22:08Z</time>
      </trkpt>
      <trkpt lat="43.75375" lon="3.70595">
        <ele>254.54463195801</ele>
        <time>2020-10-13T22:22:23Z</time>
      </trkpt>
      <trkpt lat="43.75337" lon="3.70595">
        <ele>251.0620880127</ele>
        <time>2020-10-13T22:22:38Z</time>
      </trkpt>
      <trkpt lat="43.75312" lon="3.70593">
        <ele>249.33438110352</ele>
        <time>2020-10-13T22:22:54Z</time>
      </trkpt>
      <trkpt lat="43.75282" lon="3.70586">
        <ele>247.42669677734</ele>
        <time>2020-10-13T22:23:09Z</time>
      </trkpt>
      <trkpt lat="43.75245" lon="3.70585">
        <ele>246.13163757324</ele>
        <time>2020-10-13T22:23:24Z</time>
      </trkpt>
      <trkpt lat="43.75212" lon="3.70572">
        <ele>246.04765319824</ele>
        <time>2020-10-13T22:23:40Z</time>
      </trkpt>
      <trkpt lat="43.75184" lon="3.70579">
        <ele>245.5011138916</ele>
        <time>2020-10-13T22:23:55Z</time>
      </trkpt>
      <trkpt lat="43.75144" lon="3.706">
        <ele>244.51867675781</ele>
        <time>2020-10-13T22:24:11Z</time>
      </trkpt>
      <trkpt lat="43.75093" lon="3.70634">
        <ele>243.63328552246</ele>
        <time>2020-10-13T22:24:26Z</time>
      </trkpt>
      <trkpt lat="43.75053" lon="3.7067">
        <ele>243.20135498047</ele>
        <time>2020-10-13T22:24:42Z</time>
      </trkpt>
      <trkpt lat="43.75017" lon="3.70745">
        <ele>242.5329284668</ele>
        <time>2020-10-13T22:24:57Z</time>
      </trkpt>
      <trkpt lat="43.75006" lon="3.70759">
        <ele>242.93539428711</ele>
        <time>2020-10-13T22:25:12Z</time>
      </trkpt>
      <trkpt lat="43.74993" lon="3.7081">
        <ele>241.56761169434</ele>
        <time>2020-10-13T22:25:28Z</time>
      </trkpt>
      <trkpt lat="43.74986" lon="3.70854">
        <ele>239.82389831543</ele>
        <time>2020-10-13T22:25:43Z</time>
      </trkpt>
      <trkpt lat="43.74978" lon="3.70868">
        <ele>239.67991638184</ele>
        <time>2020-10-13T22:25:59Z</time>
      </trkpt>
      <trkpt lat="43.74972" lon="3.70871">
        <ele>239.75190734863</ele>
        <time>2020-10-13T22:26:14Z</time>
      </trkpt>
      <trkpt lat="43.74937" lon="3.70857">
        <ele>240.95832824707</ele>
        <time>2020-10-13T22:26:30Z</time>
      </trkpt>
      <trkpt lat="43.74906" lon="3.7085">
        <ele>243.89672851562</ele>
        <time>2020-10-13T22:26:45Z</time>
      </trkpt>
      <trkpt lat="43.74906" lon="3.70844">
        <ele>244.32865905762</ele>
        <time>2020-10-13T22:27:01Z</time>
      </trkpt>
      <trkpt lat="43.74902" lon="3.70841">
        <ele>244.88056945801</ele>
        <time>2020-10-13T22:27:16Z</time>
      </trkpt>
      <trkpt lat="43.74826" lon="3.70803">
        <ele>251.63374328613</ele>
        <time>2020-10-13T22:27:32Z</time>
      </trkpt>
      <trkpt lat="43.74808" lon="3.70799">
        <ele>251.92169189453</ele>
        <time>2020-10-13T22:27:47Z</time>
      </trkpt>
      <trkpt lat="43.74788" lon="3.70788">
        <ele>252.73825073242</ele>
        <time>2020-10-13T22:28:03Z</time>
      </trkpt>
      <trkpt lat="43.74767" lon="3.70788">
        <ele>253.21943664551</ele>
        <time>2020-10-13T22:28:18Z</time>
      </trkpt>
      <trkpt lat="43.74737" lon="3.70772">
        <ele>252.71551513672</ele>
        <time>2020-10-13T22:28:34Z</time>
      </trkpt>
      <trkpt lat="43.74721" lon="3.70768">
        <ele>252.33470153809</ele>
        <time>2020-10-13T22:28:49Z</time>
      </trkpt>
      <trkpt lat="43.747" lon="3.70755">
        <ele>252.35868835449</ele>
        <time>2020-10-13T22:29:05Z</time>
      </trkpt>
      <trkpt lat="43.7467" lon="3.70718">
        <ele>253.28890991211</ele>
        <time>2020-10-13T22:29:20Z</time>
      </trkpt>
      <trkpt lat="43.74608" lon="3.70654">
        <ele>252.57946777344</ele>
        <time>2020-10-13T22:29:36Z</time>
      </trkpt>
      <trkpt lat="43.74596" lon="3.70617">
        <ele>253.03213500977</ele>
        <time>2020-10-13T22:29:51Z</time>
      </trkpt>
      <trkpt lat="43.74579" lon="3.70587">
        <ele>254.19439697266</ele>
        <time>2020-10-13T22:30:07Z</time>
      </trkpt>
      <trkpt lat="43.7456" lon="3.70566">
        <ele>255.40618896484</ele>
        <time>2020-10-13T22:30:22Z</time>
      </trkpt>
      <trkpt lat="43.74513" lon="3.70521">
        <ele>258.06045532227</ele>
        <time>2020-10-13T22:30:38Z</time>
      </trkpt>
      <trkpt lat="43.74484" lon="3.70511">
        <ele>258.55026245117</ele>
        <time>2020-10-13T22:30:53Z</time>
      </trkpt>
      <trkpt lat="43.74478" lon="3.7055">
        <ele>257.43655395508</ele>
        <time>2020-10-13T22:31:09Z</time>
      </trkpt>
      <trkpt lat="43.74468" lon="3.70567">
        <ele>257.53274536133</ele>
        <time>2020-10-13T22:31:25Z</time>
      </trkpt>
      <trkpt lat="43.74347" lon="3.70443">
        <ele>262.92489624023</ele>
        <time>2020-10-13T22:31:40Z</time>
      </trkpt>
      <trkpt lat="43.74333" lon="3.70432">
        <ele>262.88623046875</ele>
        <time>2020-10-13T22:31:56Z</time>
      </trkpt>
      <trkpt lat="43.74314" lon="3.70404">
        <ele>262.21435546875</ele>
        <time>2020-10-13T22:32:11Z</time>
      </trkpt>
      <trkpt lat="43.74295" lon="3.7035">
        <ele>260.54595947266</ele>
        <time>2020-10-13T22:32:27Z</time>
      </trkpt>
      <trkpt lat="43.74267" lon="3.70352">
        <ele>260.73129272461</ele>
        <time>2020-10-13T22:32:42Z</time>
      </trkpt>
      <trkpt lat="43.74226" lon="3.70372">
        <ele>258.22625732422</ele>
        <time>2020-10-13T22:32:58Z</time>
      </trkpt>
      <trkpt lat="43.74225" lon="3.70366">
        <ele>258.01031494141</ele>
        <time>2020-10-13T22:33:14Z</time>
      </trkpt>
      <trkpt lat="43.74203" lon="3.70365">
        <ele>256.40258789062</ele>
        <time>2020-10-13T22:33:29Z</time>
      </trkpt>
      <trkpt lat="43.74167" lon="3.70369">
        <ele>254.02166748047</ele>
        <time>2020-10-13T22:33:45Z</time>
      </trkpt>
      <trkpt lat="43.74133" lon="3.70379">
        <ele>252.38993835449</ele>
        <time>2020-10-13T22:34:01Z</time>
      </trkpt>
      <trkpt lat="43.74117" lon="3.70379">
        <ele>251.47036743164</ele>
        <time>2020-10-13T22:34:16Z</time>
      </trkpt>
      <trkpt lat="43.74099" lon="3.70365">
        <ele>250.6794128418</ele>
        <time>2020-10-13T22:34:32Z</time>
      </trkpt>
      <trkpt lat="43.74102" lon="3.70357">
        <ele>250.8833770752</ele>
        <time>2020-10-13T22:34:47Z</time>
      </trkpt>
      <trkpt lat="43.74096" lon="3.70345">
        <ele>250.91209411621</ele>
        <time>2020-10-13T22:35:03Z</time>
      </trkpt>
      <trkpt lat="43.74086" lon="3.70302">
        <ele>251.583984375</ele>
        <time>2020-10-13T22:35:19Z</time>
      </trkpt>
      <trkpt lat="43.74073" lon="3.7027">
        <ele>251.8833770752</ele>
        <time>2020-10-13T22:35:34Z</time>
      </trkpt>
      <trkpt lat="43.74069" lon="3.70249">
        <ele>251.9913482666</ele>
        <time>2020-10-13T22:35:50Z</time>
      </trkpt>
      <trkpt lat="43.74035" lon="3.70208">
        <ele>251.25947570801</ele>
        <time>2020-10-13T22:36:06Z</time>
      </trkpt>
      <trkpt lat="43.74036" lon="3.70175">
        <ele>251.50772094727</ele>
        <time>2020-10-13T22:36:21Z</time>
      </trkpt>
      <trkpt lat="43.74043" lon="3.70126">
        <ele>252.26359558105</ele>
        <time>2020-10-13T22:36:37Z</time>
      </trkpt>
      <trkpt lat="43.74042" lon="3.70103">
        <ele>252.51556396484</ele>
        <time>2020-10-13T22:36:53Z</time>
      </trkpt>
      <trkpt lat="43.74027" lon="3.70082">
        <ele>252.40757751465</ele>
        <time>2020-10-13T22:37:08Z</time>
      </trkpt>
      <trkpt lat="43.73965" lon="3.70012">
        <ele>250.8994140625</ele>
        <time>2020-10-13T22:37:24Z</time>
      </trkpt>
      <trkpt lat="43.73956" lon="3.69994">
        <ele>250.3595123291</ele>
        <time>2020-10-13T22:37:40Z</time>
      </trkpt>
      <trkpt lat="43.73948" lon="3.69958">
        <ele>249.63963317871</ele>
        <time>2020-10-13T22:37:55Z</time>
      </trkpt>
      <trkpt lat="43.73938" lon="3.6997">
        <ele>249.42366027832</ele>
        <time>2020-10-13T22:38:11Z</time>
      </trkpt>
      <trkpt lat="43.73923" lon="3.69978">
        <ele>248.29136657715</ele>
        <time>2020-10-13T22:38:27Z</time>
      </trkpt>
      <trkpt lat="43.73882" lon="3.70018">
        <ele>244.68789672852</ele>
        <time>2020-10-13T22:38:42Z</time>
      </trkpt>
      <trkpt lat="43.73849" lon="3.70039">
        <ele>242</ele>
        <time>2020-10-13T22:38:58Z</time>
      </trkpt>
      <trkpt lat="43.73815" lon="3.70081">
        <ele>240.80180358887</ele>
        <time>2020-10-13T22:39:14Z</time>
      </trkpt>
      <trkpt lat="43.73797" lon="3.70111">
        <ele>237.80517578125</ele>
        <time>2020-10-13T22:39:30Z</time>
      </trkpt>
      <trkpt lat="43.73779" lon="3.7013">
        <ele>236.50096130371</ele>
        <time>2020-10-13T22:39:45Z</time>
      </trkpt>
      <trkpt lat="43.73761" lon="3.7013">
        <ele>236.34732055664</ele>
        <time>2020-10-13T22:40:01Z</time>
      </trkpt>
      <trkpt lat="43.73735" lon="3.7012">
        <ele>237.28315734863</ele>
        <time>2020-10-13T22:40:17Z</time>
      </trkpt>
      <trkpt lat="43.73694" lon="3.70111">
        <ele>238.69052124023</ele>
        <time>2020-10-13T22:40:33Z</time>
      </trkpt>
      <trkpt lat="43.73643" lon="3.70106">
        <ele>239.34091186523</ele>
        <time>2020-10-13T22:40:48Z</time>
      </trkpt>
      <trkpt lat="43.73631" lon="3.70095">
        <ele>240.17654418945</ele>
        <time>2020-10-13T22:41:04Z</time>
      </trkpt>
      <trkpt lat="43.73581" lon="3.70086">
        <ele>241.31636047363</ele>
        <time>2020-10-13T22:41:20Z</time>
      </trkpt>
      <trkpt lat="43.73561" lon="3.70079">
        <ele>241.97625732422</ele>
        <time>2020-10-13T22:41:36Z</time>
      </trkpt>
      <trkpt lat="43.73532" lon="3.70082">
        <ele>242.14422607422</ele>
        <time>2020-10-13T22:41:51Z</time>
      </trkpt>
      <trkpt lat="43.73518" lon="3.70093">
        <ele>241.65229797363</ele>
        <time>2020-10-13T22:42:07Z</time>
      </trkpt>
      <trkpt lat="43.73509" lon="3.70095">
        <ele>241.64030456543</ele>
        <time>2020-10-13T22:42:23Z</time>
      </trkpt>
      <trkpt lat="43.73469" lon="3.70097">
        <ele>242.00024414062</ele>
        <time>2020-10-13T22:42:39Z</time>
      </trkpt>
      <trkpt lat="43.73457" lon="3.70101">
        <ele>241.90426635742</ele>
        <time>2020-10-13T22:42:54Z</time>
      </trkpt>
      <trkpt lat="43.73361" lon="3.70111">
        <ele>241.58831787109</ele>
        <time>2020-10-13T22:43:10Z</time>
      </trkpt>
      <trkpt lat="43.73188" lon="3.70119">
        <ele>228.92474365234</ele>
        <time>2020-10-13T22:43:26Z</time>
      </trkpt>
      <trkpt lat="43.73158" lon="3.7011">
        <ele>229.97193908691</ele>
        <time>2020-10-13T22:43:42Z</time>
      </trkpt>
      <trkpt lat="43.73145" lon="3.70111">
        <ele>230.42785644531</ele>
        <time>2020-10-13T22:43:58Z</time>
      </trkpt>
      <trkpt lat="43.73115" lon="3.70124">
        <ele>230.6664276123</ele>
        <time>2020-10-13T22:44:13Z</time>
      </trkpt>
      <trkpt lat="43.73102" lon="3.70124">
        <ele>230.19850158691</ele>
        <time>2020-10-13T22:44:29Z</time>
      </trkpt>
      <trkpt lat="43.73057" lon="3.70113">
        <ele>229.50262451172</ele>
        <time>2020-10-13T22:44:45Z</time>
      </trkpt>
      <trkpt lat="43.73017" lon="3.70098">
        <ele>229.32107543945</ele>
        <time>2020-10-13T22:45:01Z</time>
      </trkpt>
      <trkpt lat="43.72964" lon="3.70072">
        <ele>232.0888671875</ele>
        <time>2020-10-13T22:45:17Z</time>
      </trkpt>
      <trkpt lat="43.72914" lon="3.70062">
        <ele>235.72076416016</ele>
        <time>2020-10-13T22:45:33Z</time>
      </trkpt>
      <trkpt lat="43.72881" lon="3.70043">
        <ele>239.11619567871</ele>
        <time>2020-10-13T22:45:49Z</time>
      </trkpt>
      <trkpt lat="43.72869" lon="3.70018">
        <ele>240.64012145996</ele>
        <time>2020-10-13T22:46:04Z</time>
      </trkpt>
      <trkpt lat="43.72868" lon="3.70046">
        <ele>240.04425048828</ele>
        <time>2020-10-13T22:46:20Z</time>
      </trkpt>
      <trkpt lat="43.72828" lon="3.70087">
        <ele>240.48706054688</ele>
        <time>2020-10-13T22:46:36Z</time>
      </trkpt>
      <trkpt lat="43.72804" lon="3.70119">
        <ele>238.47138977051</ele>
        <time>2020-10-13T22:46:52Z</time>
      </trkpt>
      <trkpt lat="43.72789" lon="3.70128">
        <ele>238.07702636719</ele>
        <time>2020-10-13T22:47:08Z</time>
      </trkpt>
      <trkpt lat="43.72768" lon="3.70128">
        <ele>238.58094787598</ele>
        <time>2020-10-13T22:47:24Z</time>
      </trkpt>
      <trkpt lat="43.72746" lon="3.70109">
        <ele>240.24865722656</ele>
        <time>2020-10-13T22:47:40Z</time>
      </trkpt>
      <trkpt lat="43.72728" lon="3.70104">
        <ele>240.98054504395</ele>
        <time>2020-10-13T22:47:56Z</time>
      </trkpt>
      <trkpt lat="43.72718" lon="3.70103">
        <ele>241.28894042969</ele>
        <time>2020-10-13T22:48:12Z</time>
      </trkpt>
      <trkpt lat="43.72699" lon="3.70107">
        <ele>241.49645996094</ele>
        <time>2020-10-13T22:48:27Z</time>
      </trkpt>
      <trkpt lat="43.72664" lon="3.7012">
        <ele>241.2010345459</ele>
        <time>2020-10-13T22:48:43Z</time>
      </trkpt>
      <trkpt lat="43.72628" lon="3.70142">
        <ele>240.14520263672</ele>
        <time>2020-10-13T22:48:59Z</time>
      </trkpt>
      <trkpt lat="43.72608" lon="3.70139">
        <ele>240.28918457031</ele>
        <time>2020-10-13T22:49:15Z</time>
      </trkpt>
      <trkpt lat="43.72588" lon="3.70143">
        <ele>240.28663635254</ele>
        <time>2020-10-13T22:49:31Z</time>
      </trkpt>
      <trkpt lat="43.72542" lon="3.7016">
        <ele>239.60168457031</ele>
        <time>2020-10-13T22:49:47Z</time>
      </trkpt>
      <trkpt lat="43.72515" lon="3.70158">
        <ele>239.72166442871</ele>
        <time>2020-10-13T22:50:03Z</time>
      </trkpt>
      <trkpt lat="43.72494" lon="3.7016">
        <ele>239.60168457031</ele>
        <time>2020-10-13T22:50:19Z</time>
      </trkpt>
      <trkpt lat="43.72458" lon="3.70177">
        <ele>237.94906616211</ele>
        <time>2020-10-13T22:50:35Z</time>
      </trkpt>
      <trkpt lat="43.72441" lon="3.70181">
        <ele>237.45715332031</ele>
        <time>2020-10-13T22:50:51Z</time>
      </trkpt>
      <trkpt lat="43.72418" lon="3.70197">
        <ele>236.73474121094</ele>
        <time>2020-10-13T22:51:07Z</time>
      </trkpt>
      <trkpt lat="43.72407" lon="3.7021">
        <ele>236.24281311035</ele>
        <time>2020-10-13T22:51:23Z</time>
      </trkpt>
      <trkpt lat="43.72401" lon="3.70226">
        <ele>235.54693603516</ele>
        <time>2020-10-13T22:51:39Z</time>
      </trkpt>
      <trkpt lat="43.72395" lon="3.70232">
        <ele>235.37953186035</ele>
        <time>2020-10-13T22:51:55Z</time>
      </trkpt>
      <trkpt lat="43.72389" lon="3.70235">
        <ele>235.41551208496</ele>
        <time>2020-10-13T22:52:11Z</time>
      </trkpt>
      <trkpt lat="43.7237" lon="3.70233">
        <ele>235.94343566895</ele>
        <time>2020-10-13T22:52:27Z</time>
      </trkpt>
      <trkpt lat="43.72338" lon="3.70255">
        <ele>235.3610534668</ele>
        <time>2020-10-13T22:52:43Z</time>
      </trkpt>
      <trkpt lat="43.72304" lon="3.70271">
        <ele>234.9885559082</ele>
        <time>2020-10-13T22:52:59Z</time>
      </trkpt>
      <trkpt lat="43.72292" lon="3.70281">
        <ele>234.8685760498</ele>
        <time>2020-10-13T22:53:15Z</time>
      </trkpt>
      <trkpt lat="43.72268" lon="3.70283">
        <ele>235.31083679199</ele>
        <time>2020-10-13T22:53:31Z</time>
      </trkpt>
      <trkpt lat="43.72253" lon="3.70288">
        <ele>235.43081665039</ele>
        <time>2020-10-13T22:53:47Z</time>
      </trkpt>
      <trkpt lat="43.72235" lon="3.70287">
        <ele>235.4068145752</ele>
        <time>2020-10-13T22:54:03Z</time>
      </trkpt>
      <trkpt lat="43.72196" lon="3.70265">
        <ele>235.060546875</ele>
        <time>2020-10-13T22:54:19Z</time>
      </trkpt>
      <trkpt lat="43.72188" lon="3.70265">
        <ele>235.060546875</ele>
        <time>2020-10-13T22:54:34Z</time>
      </trkpt>
      <trkpt lat="43.72174" lon="3.70257">
        <ele>235.15640258789</ele>
        <time>2020-10-13T22:54:50Z</time>
      </trkpt>
      <trkpt lat="43.72155" lon="3.70262">
        <ele>234.5205078125</ele>
        <time>2020-10-13T22:55:06Z</time>
      </trkpt>
      <trkpt lat="43.72143" lon="3.7026">
        <ele>234.30453491211</ele>
        <time>2020-10-13T22:55:22Z</time>
      </trkpt>
      <trkpt lat="43.72119" lon="3.70271">
        <ele>233.38990783691</ele>
        <time>2020-10-13T22:55:39Z</time>
      </trkpt>
      <trkpt lat="43.72101" lon="3.70285">
        <ele>233.1794128418</ele>
        <time>2020-10-13T22:55:55Z</time>
      </trkpt>
      <trkpt lat="43.72078" lon="3.70287">
        <ele>233.20341491699</ele>
        <time>2020-10-13T22:56:11Z</time>
      </trkpt>
      <trkpt lat="43.72046" lon="3.70312">
        <ele>232.91625976562</ele>
        <time>2020-10-13T22:56:27Z</time>
      </trkpt>
      <trkpt lat="43.72021" lon="3.70327">
        <ele>231.65646362305</ele>
        <time>2020-10-13T22:56:43Z</time>
      </trkpt>
      <trkpt lat="43.71963" lon="3.70351">
        <ele>227.64527893066</ele>
        <time>2020-10-13T22:56:59Z</time>
      </trkpt>
      <trkpt lat="43.71952" lon="3.70352">
        <ele>226.94940185547</ele>
        <time>2020-10-13T22:57:15Z</time>
      </trkpt>
      <trkpt lat="43.7193" lon="3.70347">
        <ele>226.07670593262</ele>
        <time>2020-10-13T22:57:31Z</time>
      </trkpt>
      <trkpt lat="43.71908" lon="3.70348">
        <ele>226.06471252441</ele>
        <time>2020-10-13T22:57:47Z</time>
      </trkpt>
      <trkpt lat="43.71877" lon="3.7034">
        <ele>226.16070556641</ele>
        <time>2020-10-13T22:58:03Z</time>
      </trkpt>
      <trkpt lat="43.71855" lon="3.70391">
        <ele>225.62899780273</ele>
        <time>2020-10-13T22:58:19Z</time>
      </trkpt>
      <trkpt lat="43.71852" lon="3.70409">
        <ele>225.39270019531</ele>
        <time>2020-10-13T22:58:35Z</time>
      </trkpt>
      <trkpt lat="43.71829" lon="3.70434">
        <ele>224.34248352051</ele>
        <time>2020-10-13T22:58:51Z</time>
      </trkpt>
      <trkpt lat="43.71814" lon="3.70462">
        <ele>223.87542724609</ele>
        <time>2020-10-13T22:59:07Z</time>
      </trkpt>
      <trkpt lat="43.71796" lon="3.70478">
        <ele>222.29829406738</ele>
        <time>2020-10-13T22:59:23Z</time>
      </trkpt>
      <trkpt lat="43.71768" lon="3.70513">
        <ele>217.50857543945</ele>
        <time>2020-10-13T22:59:39Z</time>
      </trkpt>
      <trkpt lat="43.71725" lon="3.70528">
        <ele>214.63534545898</ele>
        <time>2020-10-13T22:59:55Z</time>
      </trkpt>
      <trkpt lat="43.71685" lon="3.70563">
        <ele>207.78057861328</ele>
        <time>2020-10-13T23:00:11Z</time>
      </trkpt>
      <trkpt lat="43.71618" lon="3.70683">
        <ele>188.61477661133</ele>
        <time>2020-10-13T23:00:27Z</time>
      </trkpt>
      <trkpt lat="43.71604" lon="3.70751">
        <ele>182.98620605469</ele>
        <time>2020-10-13T23:00:44Z</time>
      </trkpt>
      <trkpt lat="43.71606" lon="3.70837">
        <ele>181.48307800293</ele>
        <time>2020-10-13T23:01:00Z</time>
      </trkpt>
      <trkpt lat="43.71601" lon="3.70848">
        <ele>180.7826385498</ele>
        <time>2020-10-13T23:01:16Z</time>
      </trkpt>
      <trkpt lat="43.71571" lon="3.70879">
        <ele>176.4736328125</ele>
        <time>2020-10-13T23:01:32Z</time>
      </trkpt>
      <trkpt lat="43.71563" lon="3.70892">
        <ele>175.20184326172</ele>
        <time>2020-10-13T23:01:48Z</time>
      </trkpt>
      <trkpt lat="43.71556" lon="3.70925">
        <ele>174.85859680176</ele>
        <time>2020-10-13T23:02:04Z</time>
      </trkpt>
      <trkpt lat="43.71557" lon="3.70936">
        <ele>175.07456970215</ele>
        <time>2020-10-13T23:02:20Z</time>
      </trkpt>
      <trkpt lat="43.7157" lon="3.70972">
        <ele>174.48811340332</ele>
        <time>2020-10-13T23:02:36Z</time>
      </trkpt>
      <trkpt lat="43.71565" lon="3.70978">
        <ele>173.78022766113</ele>
        <time>2020-10-13T23:02:53Z</time>
      </trkpt>
      <trkpt lat="43.71556" lon="3.7098">
        <ele>173.46467590332</ele>
        <time>2020-10-13T23:03:09Z</time>
      </trkpt>
      <trkpt lat="43.71532" lon="3.70978">
        <ele>173.12873840332</ele>
        <time>2020-10-13T23:03:25Z</time>
      </trkpt>
      <trkpt lat="43.71514" lon="3.71016">
        <ele>173.7993927002</ele>
        <time>2020-10-13T23:03:41Z</time>
      </trkpt>
      <trkpt lat="43.71489" lon="3.71056">
        <ele>175.39889526367</ele>
        <time>2020-10-13T23:03:57Z</time>
      </trkpt>
      <trkpt lat="43.71487" lon="3.7116">
        <ele>181.86442565918</ele>
        <time>2020-10-13T23:04:13Z</time>
      </trkpt>
      <trkpt lat="43.715" lon="3.71211">
        <ele>184.64474487305</ele>
        <time>2020-10-13T23:04:30Z</time>
      </trkpt>
      <trkpt lat="43.715" lon="3.71224">
        <ele>185.26863098145</ele>
        <time>2020-10-13T23:04:46Z</time>
      </trkpt>
      <trkpt lat="43.71484" lon="3.7132">
        <ele>190.25981140137</ele>
        <time>2020-10-13T23:05:02Z</time>
      </trkpt>
      <trkpt lat="43.71484" lon="3.71372">
        <ele>192.97662353516</ele>
        <time>2020-10-13T23:05:18Z</time>
      </trkpt>
      <trkpt lat="43.71479" lon="3.71417">
        <ele>196.82157897949</ele>
        <time>2020-10-13T23:05:34Z</time>
      </trkpt>
      <trkpt lat="43.7147" lon="3.71444">
        <ele>200.47007751465</ele>
        <time>2020-10-13T23:05:51Z</time>
      </trkpt>
      <trkpt lat="43.71455" lon="3.7147">
        <ele>205.20999145508</ele>
        <time>2020-10-13T23:06:07Z</time>
      </trkpt>
      <trkpt lat="43.71424" lon="3.71491">
        <ele>212.91857910156</ele>
        <time>2020-10-13T23:06:23Z</time>
      </trkpt>
      <trkpt lat="43.71395" lon="3.71536">
        <ele>220.47190856934</ele>
        <time>2020-10-13T23:06:39Z</time>
      </trkpt>
      <trkpt lat="43.71409" lon="3.71543">
        <ele>219.38009643555</ele>
        <time>2020-10-13T23:06:55Z</time>
      </trkpt>
      <trkpt lat="43.71421" lon="3.71563">
        <ele>219.28410339355</ele>
        <time>2020-10-13T23:07:12Z</time>
      </trkpt>
      <trkpt lat="43.7146" lon="3.71659">
        <ele>218.44866943359</ele>
        <time>2020-10-13T23:07:28Z</time>
      </trkpt>
      <trkpt lat="43.71468" lon="3.71697">
        <ele>217.85302734375</ele>
        <time>2020-10-13T23:07:44Z</time>
      </trkpt>
      <trkpt lat="43.71468" lon="3.71732">
        <ele>218.60969543457</ele>
        <time>2020-10-13T23:08:00Z</time>
      </trkpt>
      <trkpt lat="43.71462" lon="3.71733">
        <ele>218.10578918457</ele>
        <time>2020-10-13T23:08:17Z</time>
      </trkpt>
      <trkpt lat="43.71468" lon="3.71732">
        <ele>218.60969543457</ele>
        <time>2020-10-13T23:08:33Z</time>
      </trkpt>
      <trkpt lat="43.71468" lon="3.71754">
        <ele>218.60969543457</ele>
        <time>2020-10-13T23:08:49Z</time>
      </trkpt>
      <trkpt lat="43.71461" lon="3.71773">
        <ele>217.98936462402</ele>
        <time>2020-10-13T23:09:05Z</time>
      </trkpt>
      <trkpt lat="43.71444" lon="3.71783">
        <ele>216.37406921387</ele>
        <time>2020-10-13T23:09:22Z</time>
      </trkpt>
      <trkpt lat="43.71435" lon="3.71778">
        <ele>215.81513977051</ele>
        <time>2020-10-13T23:09:38Z</time>
      </trkpt>
      <trkpt lat="43.71422" lon="3.71782">
        <ele>215.7191619873</ele>
        <time>2020-10-13T23:09:54Z</time>
      </trkpt>
      <trkpt lat="43.71416" lon="3.7179">
        <ele>215.52719116211</ele>
        <time>2020-10-13T23:10:10Z</time>
      </trkpt>
      <trkpt lat="43.71414" lon="3.71802">
        <ele>215.23924255371</ele>
        <time>2020-10-13T23:10:27Z</time>
      </trkpt>
      <trkpt lat="43.71416" lon="3.71827">
        <ele>214.63934326172</ele>
        <time>2020-10-13T23:10:43Z</time>
      </trkpt>
      <trkpt lat="43.71433" lon="3.71871">
        <ele>213.05302429199</ele>
        <time>2020-10-13T23:10:59Z</time>
      </trkpt>
      <trkpt lat="43.7144" lon="3.71972">
        <ele>206.28094482422</ele>
        <time>2020-10-13T23:11:16Z</time>
      </trkpt>
      <trkpt lat="43.71452" lon="3.72022">
        <ele>202.92556762695</ele>
        <time>2020-10-13T23:11:32Z</time>
      </trkpt>
      <trkpt lat="43.71463" lon="3.72047">
        <ele>201.33903503418</ele>
        <time>2020-10-13T23:11:48Z</time>
      </trkpt>
      <trkpt lat="43.71479" lon="3.72057">
        <ele>201.50979614258</ele>
        <time>2020-10-13T23:12:04Z</time>
      </trkpt>
      <trkpt lat="43.71494" lon="3.72059">
        <ele>202.39765930176</ele>
        <time>2020-10-13T23:12:21Z</time>
      </trkpt>
      <trkpt lat="43.71533" lon="3.72049">
        <ele>205.40161132812</ele>
        <time>2020-10-13T23:12:37Z</time>
      </trkpt>
      <trkpt lat="43.71566" lon="3.72046">
        <ele>203.43748474121</ele>
        <time>2020-10-13T23:12:53Z</time>
      </trkpt>
      <trkpt lat="43.71586" lon="3.72041">
        <ele>200.85792541504</ele>
        <time>2020-10-13T23:13:10Z</time>
      </trkpt>
      <trkpt lat="43.71635" lon="3.7202">
        <ele>195.75735473633</ele>
        <time>2020-10-13T23:13:26Z</time>
      </trkpt>
      <trkpt lat="43.71655" lon="3.72019">
        <ele>194.36558532715</ele>
        <time>2020-10-13T23:13:42Z</time>
      </trkpt>
      <trkpt lat="43.7177" lon="3.72025">
        <ele>194.16021728516</ele>
        <time>2020-10-13T23:13:59Z</time>
      </trkpt>
      <trkpt lat="43.71779" lon="3.72029">
        <ele>194.31257629395</ele>
        <time>2020-10-13T23:14:15Z</time>
      </trkpt>
      <trkpt lat="43.71791" lon="3.72044">
        <ele>194.85168457031</ele>
        <time>2020-10-13T23:14:31Z</time>
      </trkpt>
      <trkpt lat="43.71797" lon="3.72062">
        <ele>195.49957275391</ele>
        <time>2020-10-13T23:14:48Z</time>
      </trkpt>
      <trkpt lat="43.71484" lon="3.72421">
        <ele>189.93670654297</ele>
        <time>2020-10-13T23:15:04Z</time>
      </trkpt>
      <trkpt lat="43.71469" lon="3.72432">
        <ele>189.70874023438</ele>
        <time>2020-10-13T23:15:21Z</time>
      </trkpt>
      <trkpt lat="43.71454" lon="3.72438">
        <ele>189.43190002441</ele>
        <time>2020-10-13T23:15:37Z</time>
      </trkpt>
      <trkpt lat="43.71391" lon="3.72453">
        <ele>188.28009033203</ele>
        <time>2020-10-13T23:15:53Z</time>
      </trkpt>
      <trkpt lat="43.71371" lon="3.72465">
        <ele>187.58393859863</ele>
        <time>2020-10-13T23:16:10Z</time>
      </trkpt>
      <trkpt lat="43.71265" lon="3.72584">
        <ele>185.59992980957</ele>
        <time>2020-10-13T23:16:26Z</time>
      </trkpt>
      <trkpt lat="43.71259" lon="3.72601">
        <ele>185.53907775879</ele>
        <time>2020-10-13T23:16:43Z</time>
      </trkpt>
      <trkpt lat="43.71259" lon="3.72614">
        <ele>185.29356384277</ele>
        <time>2020-10-13T23:16:59Z</time>
      </trkpt>
      <trkpt lat="43.71282" lon="3.72717">
        <ele>182.7064666748</ele>
        <time>2020-10-13T23:17:16Z</time>
      </trkpt>
      <trkpt lat="43.71281" lon="3.72743">
        <ele>182.04656982422</ele>
        <time>2020-10-13T23:17:32Z</time>
      </trkpt>
      <trkpt lat="43.71273" lon="3.72775">
        <ele>180.98149108887</ele>
        <time>2020-10-13T23:17:49Z</time>
      </trkpt>
      <trkpt lat="43.7125" lon="3.7283">
        <ele>178.8709564209</ele>
        <time>2020-10-13T23:18:05Z</time>
      </trkpt>
      <trkpt lat="43.71211" lon="3.72879">
        <ele>174.76530456543</ele>
        <time>2020-10-13T23:18:22Z</time>
      </trkpt>
      <trkpt lat="43.71203" lon="3.72887">
        <ele>173.99743652344</ele>
        <time>2020-10-13T23:18:38Z</time>
      </trkpt>
      <trkpt lat="43.71189" lon="3.72892">
        <ele>173.30154418945</ele>
        <time>2020-10-13T23:18:55Z</time>
      </trkpt>
      <trkpt lat="43.71136" lon="3.72901">
        <ele>169.38948059082</ele>
        <time>2020-10-13T23:19:11Z</time>
      </trkpt>
      <trkpt lat="43.71085" lon="3.72887">
        <ele>168.11032104492</ele>
        <time>2020-10-13T23:19:28Z</time>
      </trkpt>
      <trkpt lat="43.71027" lon="3.72865">
        <ele>165.48445129395</ele>
        <time>2020-10-13T23:19:44Z</time>
      </trkpt>
      <trkpt lat="43.7102" lon="3.72868">
        <ele>165.5107421875</ele>
        <time>2020-10-13T23:20:01Z</time>
      </trkpt>
      <trkpt lat="43.71012" lon="3.72879">
        <ele>165.90667724609</ele>
        <time>2020-10-13T23:20:17Z</time>
      </trkpt>
      <trkpt lat="43.71008" lon="3.72904">
        <ele>166.80651855469</ele>
        <time>2020-10-13T23:20:34Z</time>
      </trkpt>
      <trkpt lat="43.71005" lon="3.72982">
        <ele>172.13941955566</ele>
        <time>2020-10-13T23:20:50Z</time>
      </trkpt>
      <trkpt lat="43.71" lon="3.73003">
        <ele>173.98333740234</ele>
        <time>2020-10-13T23:21:07Z</time>
      </trkpt>
      <trkpt lat="43.70955" lon="3.731">
        <ele>179.78216552734</ele>
        <time>2020-10-13T23:21:24Z</time>
      </trkpt>
      <trkpt lat="43.70957" lon="3.73119">
        <ele>180.1216583252</ele>
        <time>2020-10-13T23:21:40Z</time>
      </trkpt>
      <trkpt lat="43.70977" lon="3.73165">
        <ele>181.23736572266</ele>
        <time>2020-10-13T23:21:57Z</time>
      </trkpt>
      <trkpt lat="43.70977" lon="3.73208">
        <ele>181.28770446777</ele>
        <time>2020-10-13T23:22:13Z</time>
      </trkpt>
      <trkpt lat="43.70916" lon="3.73344">
        <ele>187.37075805664</ele>
        <time>2020-10-13T23:22:30Z</time>
      </trkpt>
      <trkpt lat="43.70905" lon="3.73378">
        <ele>191.9976348877</ele>
        <time>2020-10-13T23:22:46Z</time>
      </trkpt>
      <trkpt lat="43.70902" lon="3.73401">
        <ele>194.27726745605</ele>
        <time>2020-10-13T23:23:03Z</time>
      </trkpt>
      <trkpt lat="43.70908" lon="3.73484">
        <ele>195.03427124023</ele>
        <time>2020-10-13T23:23:20Z</time>
      </trkpt>
      <trkpt lat="43.70907" lon="3.73511">
        <ele>193.71063232422</ele>
        <time>2020-10-13T23:23:36Z</time>
      </trkpt>
      <trkpt lat="43.709" lon="3.73533">
        <ele>194.5505065918</ele>
        <time>2020-10-13T23:23:53Z</time>
      </trkpt>
      <trkpt lat="43.70883" lon="3.7355">
        <ele>197.40603637695</ele>
        <time>2020-10-13T23:24:09Z</time>
      </trkpt>
      <trkpt lat="43.70872" lon="3.73555">
        <ele>196.12455749512</ele>
        <time>2020-10-13T23:24:26Z</time>
      </trkpt>
      <trkpt lat="43.70811" lon="3.73571">
        <ele>197.64694213867</ele>
        <time>2020-10-13T23:24:43Z</time>
      </trkpt>
      <trkpt lat="43.70806" lon="3.73584">
        <ele>195.67926025391</ele>
        <time>2020-10-13T23:24:59Z</time>
      </trkpt>
      <trkpt lat="43.70806" lon="3.73605">
        <ele>192.72314453125</ele>
        <time>2020-10-13T23:25:16Z</time>
      </trkpt>
      <trkpt lat="43.708" lon="3.73619">
        <ele>194.81079101562</ele>
        <time>2020-10-13T23:25:33Z</time>
      </trkpt>
      <trkpt lat="43.70789" lon="3.73626">
        <ele>195.3722076416</ele>
        <time>2020-10-13T23:25:49Z</time>
      </trkpt>
      <trkpt lat="43.70761" lon="3.73635">
        <ele>191.66232299805</ele>
        <time>2020-10-13T23:26:06Z</time>
      </trkpt>
      <trkpt lat="43.70749" lon="3.73643">
        <ele>191.08641052246</ele>
        <time>2020-10-13T23:26:23Z</time>
      </trkpt>
      <trkpt lat="43.70733" lon="3.73665">
        <ele>189.73223876953</ele>
        <time>2020-10-13T23:26:39Z</time>
      </trkpt>
      <trkpt lat="43.70715" lon="3.73674">
        <ele>188.65242004395</ele>
        <time>2020-10-13T23:26:56Z</time>
      </trkpt>
      <trkpt lat="43.70698" lon="3.73668">
        <ele>188.32847595215</ele>
        <time>2020-10-13T23:27:13Z</time>
      </trkpt>
      <trkpt lat="43.70685" lon="3.73657">
        <ele>188.53981018066</ele>
        <time>2020-10-13T23:27:29Z</time>
      </trkpt>
      <trkpt lat="43.70656" lon="3.73621">
        <ele>191.65928649902</ele>
        <time>2020-10-13T23:27:46Z</time>
      </trkpt>
      <trkpt lat="43.70645" lon="3.73617">
        <ele>192.37916564941</ele>
        <time>2020-10-13T23:28:02Z</time>
      </trkpt>
      <trkpt lat="43.70637" lon="3.73619">
        <ele>192.66711425781</ele>
        <time>2020-10-13T23:28:19Z</time>
      </trkpt>
      <trkpt lat="43.7063" lon="3.73624">
        <ele>192.7631072998</ele>
        <time>2020-10-13T23:28:36Z</time>
      </trkpt>
      <trkpt lat="43.70619" lon="3.73686">
        <ele>191.11360168457</ele>
        <time>2020-10-13T23:28:53Z</time>
      </trkpt>
      <trkpt lat="43.7061" lon="3.7371">
        <ele>192.62365722656</ele>
        <time>2020-10-13T23:29:09Z</time>
      </trkpt>
      <trkpt lat="43.70596" lon="3.73721">
        <ele>193.70350646973</ele>
        <time>2020-10-13T23:29:26Z</time>
      </trkpt>
      <trkpt lat="43.70584" lon="3.73725">
        <ele>195.23924255371</ele>
        <time>2020-10-13T23:29:43Z</time>
      </trkpt>
      <trkpt lat="43.7056" lon="3.73726">
        <ele>198.14276123047</ele>
        <time>2020-10-13T23:29:59Z</time>
      </trkpt>
      <trkpt lat="43.7054" lon="3.73734">
        <ele>199.12510681152</ele>
        <time>2020-10-13T23:30:16Z</time>
      </trkpt>
      <trkpt lat="43.70525" lon="3.73756">
        <ele>199.23309326172</ele>
        <time>2020-10-13T23:30:33Z</time>
      </trkpt>
      <trkpt lat="43.705" lon="3.7381">
        <ele>201.40235900879</ele>
        <time>2020-10-13T23:30:49Z</time>
      </trkpt>
      <trkpt lat="43.70481" lon="3.73833">
        <ele>202.19683837891</ele>
        <time>2020-10-13T23:31:06Z</time>
      </trkpt>
      <trkpt lat="43.70468" lon="3.73833">
        <ele>202.5087890625</ele>
        <time>2020-10-13T23:31:23Z</time>
      </trkpt>
      <trkpt lat="43.70456" lon="3.73826">
        <ele>203.21667480469</ele>
        <time>2020-10-13T23:31:39Z</time>
      </trkpt>
      <trkpt lat="43.70447" lon="3.73814">
        <ele>204.15251159668</ele>
        <time>2020-10-13T23:31:56Z</time>
      </trkpt>
      <trkpt lat="43.7043" lon="3.738">
        <ele>206.37362670898</ele>
        <time>2020-10-13T23:32:13Z</time>
      </trkpt>
      <trkpt lat="43.70408" lon="3.73797">
        <ele>210.24897766113</ele>
        <time>2020-10-13T23:32:30Z</time>
      </trkpt>
      <trkpt lat="43.70393" lon="3.73802">
        <ele>212.4686126709</ele>
        <time>2020-10-13T23:32:46Z</time>
      </trkpt>
      <trkpt lat="43.7037" lon="3.73845">
        <ele>211.67254638672</ele>
        <time>2020-10-13T23:33:03Z</time>
      </trkpt>
      <trkpt lat="43.70346" lon="3.73947">
        <ele>211.5316619873</ele>
        <time>2020-10-13T23:33:20Z</time>
      </trkpt>
      <trkpt lat="43.70334" lon="3.73974">
        <ele>214.55516052246</ele>
        <time>2020-10-13T23:33:36Z</time>
      </trkpt>
      <trkpt lat="43.70314" lon="3.73995">
        <ele>216.29917907715</ele>
        <time>2020-10-13T23:33:53Z</time>
      </trkpt>
      <trkpt lat="43.7022" lon="3.74063">
        <ele>215.97938537598</ele>
        <time>2020-10-13T23:34:10Z</time>
      </trkpt>
      <trkpt lat="43.70201" lon="3.74081">
        <ele>211.82806396484</ele>
        <time>2020-10-13T23:34:27Z</time>
      </trkpt>
      <trkpt lat="43.70173" lon="3.74125">
        <ele>207.49378967285</ele>
        <time>2020-10-13T23:34:44Z</time>
      </trkpt>
      <trkpt lat="43.70165" lon="3.74133">
        <ele>207.78173828125</ele>
        <time>2020-10-13T23:35:00Z</time>
      </trkpt>
      <trkpt lat="43.70153" lon="3.7414">
        <ele>208.21366882324</ele>
        <time>2020-10-13T23:35:17Z</time>
      </trkpt>
      <trkpt lat="43.70126" lon="3.74144">
        <ele>208.97731018066</ele>
        <time>2020-10-13T23:35:34Z</time>
      </trkpt>
      <trkpt lat="43.70088" lon="3.74146">
        <ele>209.31188964844</ele>
        <time>2020-10-13T23:35:51Z</time>
      </trkpt>
      <trkpt lat="43.70048" lon="3.74142">
        <ele>209</ele>
        <time>2020-10-13T23:36:07Z</time>
      </trkpt>
      <trkpt lat="43.70029" lon="3.74144">
        <ele>209</ele>
        <time>2020-10-13T23:36:24Z</time>
      </trkpt>
      <trkpt lat="43.69979" lon="3.74176">
        <ele>208.86363220215</ele>
        <time>2020-10-13T23:36:41Z</time>
      </trkpt>
      <trkpt lat="43.6997" lon="3.74179">
        <ele>208.89962768555</ele>
        <time>2020-10-13T23:36:58Z</time>
      </trkpt>
      <trkpt lat="43.69964" lon="3.7422">
        <ele>210.17463684082</ele>
        <time>2020-10-13T23:37:15Z</time>
      </trkpt>
      <trkpt lat="43.69942" lon="3.74264">
        <ele>211.75836181641</ele>
        <time>2020-10-13T23:37:32Z</time>
      </trkpt>
      <trkpt lat="43.69921" lon="3.74355">
        <ele>213.98554992676</ele>
        <time>2020-10-13T23:37:48Z</time>
      </trkpt>
      <trkpt lat="43.6994" lon="3.74455">
        <ele>217.51361083984</ele>
        <time>2020-10-13T23:38:05Z</time>
      </trkpt>
      <trkpt lat="43.69936" lon="3.74512">
        <ele>219.7498626709</ele>
        <time>2020-10-13T23:38:22Z</time>
      </trkpt>
      <trkpt lat="43.6994" lon="3.74541">
        <ele>219.88038635254</ele>
        <time>2020-10-13T23:38:39Z</time>
      </trkpt>
      <trkpt lat="43.6997" lon="3.74596">
        <ele>218.80056762695</ele>
        <time>2020-10-13T23:38:56Z</time>
      </trkpt>
      <trkpt lat="43.69976" lon="3.74618">
        <ele>218.58460998535</ele>
        <time>2020-10-13T23:39:13Z</time>
      </trkpt>
      <trkpt lat="43.69974" lon="3.74638">
        <ele>218.65660095215</ele>
        <time>2020-10-13T23:39:29Z</time>
      </trkpt>
      <trkpt lat="43.6996" lon="3.74671">
        <ele>218.6376953125</ele>
        <time>2020-10-13T23:39:46Z</time>
      </trkpt>
      <trkpt lat="43.69932" lon="3.74707">
        <ele>218.92366027832</ele>
        <time>2020-10-13T23:40:03Z</time>
      </trkpt>
      <trkpt lat="43.69894" lon="3.74747">
        <ele>220.24917602539</ele>
        <time>2020-10-13T23:40:20Z</time>
      </trkpt>
      <trkpt lat="43.69874" lon="3.74762">
        <ele>219.8892364502</ele>
        <time>2020-10-13T23:40:37Z</time>
      </trkpt>
      <trkpt lat="43.69858" lon="3.74779">
        <ele>219.90158081055</ele>
        <time>2020-10-13T23:40:54Z</time>
      </trkpt>
      <trkpt lat="43.6982" lon="3.74835">
        <ele>221.57778930664</ele>
        <time>2020-10-13T23:41:11Z</time>
      </trkpt>
      <trkpt lat="43.69795" lon="3.7485">
        <ele>221.39782714844</ele>
        <time>2020-10-13T23:41:28Z</time>
      </trkpt>
      <trkpt lat="43.69778" lon="3.74867">
        <ele>221.63343811035</ele>
        <time>2020-10-13T23:41:45Z</time>
      </trkpt>
      <trkpt lat="43.69767" lon="3.74889">
        <ele>220.92430114746</ele>
        <time>2020-10-13T23:42:01Z</time>
      </trkpt>
      <trkpt lat="43.69765" lon="3.74901">
        <ele>220.61236572266</ele>
        <time>2020-10-13T23:42:18Z</time>
      </trkpt>
      <trkpt lat="43.69755" lon="3.74908">
        <ele>220.96029663086</ele>
        <time>2020-10-13T23:42:35Z</time>
      </trkpt>
      <trkpt lat="43.69732" lon="3.74939">
        <ele>220.82286071777</ele>
        <time>2020-10-13T23:42:52Z</time>
      </trkpt>
      <trkpt lat="43.69724" lon="3.74955">
        <ele>221.20678710938</ele>
        <time>2020-10-13T23:43:09Z</time>
      </trkpt>
      <trkpt lat="43.69692" lon="3.74993">
        <ele>221.53927612305</ele>
        <time>2020-10-13T23:43:26Z</time>
      </trkpt>
      <trkpt lat="43.69688" lon="3.75013">
        <ele>221.15533447266</ele>
        <time>2020-10-13T23:43:43Z</time>
      </trkpt>
      <trkpt lat="43.69673" lon="3.75047">
        <ele>221.65438842773</ele>
        <time>2020-10-13T23:44:00Z</time>
      </trkpt>
      <trkpt lat="43.69667" lon="3.75081">
        <ele>221.94233703613</ele>
        <time>2020-10-13T23:44:17Z</time>
      </trkpt>
      <trkpt lat="43.69649" lon="3.75121">
        <ele>222.30657958984</ele>
        <time>2020-10-13T23:44:34Z</time>
      </trkpt>
      <trkpt lat="43.69618" lon="3.75143">
        <ele>223.28918457031</ele>
        <time>2020-10-13T23:44:51Z</time>
      </trkpt>
      <trkpt lat="43.69548" lon="3.75214">
        <ele>225.64424133301</ele>
        <time>2020-10-13T23:45:08Z</time>
      </trkpt>
      <trkpt lat="43.69528" lon="3.75243">
        <ele>226.47210693359</ele>
        <time>2020-10-13T23:45:25Z</time>
      </trkpt>
      <trkpt lat="43.69513" lon="3.75257">
        <ele>227.00003051758</ele>
        <time>2020-10-13T23:45:42Z</time>
      </trkpt>
      <trkpt lat="43.69459" lon="3.75278">
        <ele>227.98745727539</ele>
        <time>2020-10-13T23:45:59Z</time>
      </trkpt>
      <trkpt lat="43.69452" lon="3.75276">
        <ele>227.99945068359</ele>
        <time>2020-10-13T23:46:16Z</time>
      </trkpt>
      <trkpt lat="43.69382" lon="3.75284">
        <ele>226.8473815918</ele>
        <time>2020-10-13T23:46:33Z</time>
      </trkpt>
      <trkpt lat="43.69345" lon="3.75285">
        <ele>226.33882141113</ele>
        <time>2020-10-13T23:46:50Z</time>
      </trkpt>
      <trkpt lat="43.69349" lon="3.75297">
        <ele>226.62678527832</ele>
        <time>2020-10-13T23:47:07Z</time>
      </trkpt>
      <trkpt lat="43.6935" lon="3.75314">
        <ele>227.03471374512</ele>
        <time>2020-10-13T23:47:24Z</time>
      </trkpt>
      <trkpt lat="43.69347" lon="3.75314">
        <ele>227.03471374512</ele>
        <time>2020-10-13T23:47:41Z</time>
      </trkpt>
      <trkpt lat="43.6935" lon="3.75314">
        <ele>227.03471374512</ele>
        <time>2020-10-13T23:47:58Z</time>
      </trkpt>
      <trkpt lat="43.69359" lon="3.75374">
        <ele>228.54350280762</ele>
        <time>2020-10-13T23:48:15Z</time>
      </trkpt>
      <trkpt lat="43.69357" lon="3.75392">
        <ele>228.95143127441</ele>
        <time>2020-10-13T23:48:32Z</time>
      </trkpt>
      <trkpt lat="43.69337" lon="3.75468">
        <ele>230.70529174805</ele>
        <time>2020-10-13T23:48:49Z</time>
      </trkpt>
      <trkpt lat="43.69337" lon="3.7549">
        <ele>231.49716186523</ele>
        <time>2020-10-13T23:49:06Z</time>
      </trkpt>
      <trkpt lat="43.69353" lon="3.75562">
        <ele>232.9704284668</ele>
        <time>2020-10-13T23:49:23Z</time>
      </trkpt>
      <trkpt lat="43.69352" lon="3.75621">
        <ele>233.31175231934</ele>
        <time>2020-10-13T23:49:40Z</time>
      </trkpt>
      <trkpt lat="43.69377" lon="3.75672">
        <ele>237.76022338867</ele>
        <time>2020-10-13T23:49:57Z</time>
      </trkpt>
      <trkpt lat="43.69372" lon="3.75704">
        <ele>237.67163085938</ele>
        <time>2020-10-13T23:50:14Z</time>
      </trkpt>
      <trkpt lat="43.69353" lon="3.75732">
        <ele>236.59460449219</ele>
        <time>2020-10-13T23:50:31Z</time>
      </trkpt>
      <trkpt lat="43.69346" lon="3.75751">
        <ele>237.19450378418</ele>
        <time>2020-10-13T23:50:48Z</time>
      </trkpt>
      <trkpt lat="43.69352" lon="3.75857">
        <ele>240.20385742188</ele>
        <time>2020-10-13T23:51:05Z</time>
      </trkpt>
      <trkpt lat="43.69364" lon="3.75917">
        <ele>243.00860595703</ele>
        <time>2020-10-13T23:51:22Z</time>
      </trkpt>
      <trkpt lat="43.69398" lon="3.76027">
        <ele>246.99406433105</ele>
        <time>2020-10-13T23:51:39Z</time>
      </trkpt>
      <trkpt lat="43.69408" lon="3.76072">
        <ele>247.89392089844</ele>
        <time>2020-10-13T23:51:56Z</time>
      </trkpt>
      <trkpt lat="43.69431" lon="3.76127">
        <ele>248.48631286621</ele>
        <time>2020-10-13T23:52:13Z</time>
      </trkpt>
      <trkpt lat="43.6945" lon="3.76159">
        <ele>248.32359313965</ele>
        <time>2020-10-13T23:52:30Z</time>
      </trkpt>
      <trkpt lat="43.69484" lon="3.76191">
        <ele>247.80407714844</ele>
        <time>2020-10-13T23:52:48Z</time>
      </trkpt>
      <trkpt lat="43.69508" lon="3.76206">
        <ele>247.01220703125</ele>
        <time>2020-10-13T23:53:05Z</time>
      </trkpt>
      <trkpt lat="43.69527" lon="3.76224">
        <ele>246.44760131836</ele>
        <time>2020-10-13T23:53:22Z</time>
      </trkpt>
      <trkpt lat="43.69537" lon="3.76236">
        <ele>246.13565063477</ele>
        <time>2020-10-13T23:53:39Z</time>
      </trkpt>
      <trkpt lat="43.69553" lon="3.76268">
        <ele>245.94367980957</ele>
        <time>2020-10-13T23:53:56Z</time>
      </trkpt>
      <trkpt lat="43.69591" lon="3.76318">
        <ele>244.86386108398</ele>
        <time>2020-10-13T23:54:13Z</time>
      </trkpt>
      <trkpt lat="43.69606" lon="3.76353">
        <ele>244.73880004883</ele>
        <time>2020-10-13T23:54:30Z</time>
      </trkpt>
      <trkpt lat="43.69624" lon="3.76384">
        <ele>242.97691345215</ele>
        <time>2020-10-13T23:54:48Z</time>
      </trkpt>
      <trkpt lat="43.6963" lon="3.76425">
        <ele>243.16888427734</ele>
        <time>2020-10-13T23:55:05Z</time>
      </trkpt>
      <trkpt lat="43.69634" lon="3.76435">
        <ele>242.88093566895</ele>
        <time>2020-10-13T23:55:22Z</time>
      </trkpt>
      <trkpt lat="43.69663" lon="3.7647">
        <ele>237.57116699219</ele>
        <time>2020-10-13T23:55:39Z</time>
      </trkpt>
      <trkpt lat="43.6967" lon="3.76498">
        <ele>235.30354309082</ele>
        <time>2020-10-13T23:55:56Z</time>
      </trkpt>
      <trkpt lat="43.69679" lon="3.76516">
        <ele>233.43525695801</ele>
        <time>2020-10-13T23:56:13Z</time>
      </trkpt>
      <trkpt lat="43.69711" lon="3.7655">
        <ele>226.30165100098</ele>
        <time>2020-10-13T23:56:30Z</time>
      </trkpt>
      <trkpt lat="43.69717" lon="3.76573">
        <ele>223.37414550781</ele>
        <time>2020-10-13T23:56:48Z</time>
      </trkpt>
      <trkpt lat="43.69719" lon="3.76607">
        <ele>219.83995056152</ele>
        <time>2020-10-13T23:57:05Z</time>
      </trkpt>
      <trkpt lat="43.69733" lon="3.76647">
        <ele>213.8409576416</ele>
        <time>2020-10-13T23:57:22Z</time>
      </trkpt>
      <trkpt lat="43.69753" lon="3.76665">
        <ele>209.49768066406</ele>
        <time>2020-10-13T23:57:39Z</time>
      </trkpt>
      <trkpt lat="43.69776" lon="3.7668">
        <ele>205.19061279297</ele>
        <time>2020-10-13T23:57:56Z</time>
      </trkpt>
      <trkpt lat="43.6981" lon="3.7672">
        <ele>198.35957336426</ele>
        <time>2020-10-13T23:58:14Z</time>
      </trkpt>
      <trkpt lat="43.69819" lon="3.76738">
        <ele>196.04875183105</ele>
        <time>2020-10-13T23:58:31Z</time>
      </trkpt>
      <trkpt lat="43.69871" lon="3.76805">
        <ele>188.60415649414</ele>
        <time>2020-10-13T23:58:48Z</time>
      </trkpt>
      <trkpt lat="43.69878" lon="3.76845">
        <ele>186.45651245117</ele>
        <time>2020-10-13T23:59:05Z</time>
      </trkpt>
      <trkpt lat="43.69891" lon="3.76846">
        <ele>186.86444091797</ele>
        <time>2020-10-13T23:59:22Z</time>
      </trkpt>
      <trkpt lat="43.69926" lon="3.76837">
        <ele>188.41937255859</ele>
        <time>2020-10-13T23:59:40Z</time>
      </trkpt>
      <trkpt lat="43.6999" lon="3.76831">
        <ele>189.84289550781</ele>
        <time>2020-10-13T23:59:57Z</time>
      </trkpt>
      <trkpt lat="43.70028" lon="3.76824">
        <ele>190.63563537598</ele>
        <time>2020-10-14T00:00:14Z</time>
      </trkpt>
      <trkpt lat="43.70081" lon="3.76809">
        <ele>191.19134521484</ele>
        <time>2020-10-14T00:00:31Z</time>
      </trkpt>
      <trkpt lat="43.70118" lon="3.76815">
        <ele>191.89477539062</ele>
        <time>2020-10-14T00:00:49Z</time>
      </trkpt>
      <trkpt lat="43.70129" lon="3.76822">
        <ele>191.87077331543</ele>
        <time>2020-10-14T00:01:06Z</time>
      </trkpt>
      <trkpt lat="43.70133" lon="3.76835">
        <ele>191.23487854004</ele>
        <time>2020-10-14T00:01:23Z</time>
      </trkpt>
      <trkpt lat="43.70131" lon="3.76878">
        <ele>191.68783569336</ele>
        <time>2020-10-14T00:01:40Z</time>
      </trkpt>
      <trkpt lat="43.70106" lon="3.76961">
        <ele>200.3998260498</ele>
        <time>2020-10-14T00:01:58Z</time>
      </trkpt>
      <trkpt lat="43.70102" lon="3.76999">
        <ele>205.82429504395</ele>
        <time>2020-10-14T00:02:15Z</time>
      </trkpt>
      <trkpt lat="43.70092" lon="3.77045">
        <ele>212.11878967285</ele>
        <time>2020-10-14T00:02:32Z</time>
      </trkpt>
      <trkpt lat="43.70048" lon="3.77144">
        <ele>225.64456176758</ele>
        <time>2020-10-14T00:02:50Z</time>
      </trkpt>
      <trkpt lat="43.70036" lon="3.77183">
        <ele>229.20797729492</ele>
        <time>2020-10-14T00:03:07Z</time>
      </trkpt>
      <trkpt lat="43.70049" lon="3.77213">
        <ele>231.4156036377</ele>
        <time>2020-10-14T00:03:24Z</time>
      </trkpt>
      <trkpt lat="43.70072" lon="3.77233">
        <ele>232.54341125488</ele>
        <time>2020-10-14T00:03:41Z</time>
      </trkpt>
      <trkpt lat="43.70095" lon="3.77246">
        <ele>233.08332824707</ele>
        <time>2020-10-14T00:03:59Z</time>
      </trkpt>
      <trkpt lat="43.70103" lon="3.77258">
        <ele>233.89918518066</ele>
        <time>2020-10-14T00:04:16Z</time>
      </trkpt>
      <trkpt lat="43.70127" lon="3.7728">
        <ele>236.37760925293</ele>
        <time>2020-10-14T00:04:33Z</time>
      </trkpt>
      <trkpt lat="43.70136" lon="3.773">
        <ele>237.90135192871</ele>
        <time>2020-10-14T00:04:51Z</time>
      </trkpt>
      <trkpt lat="43.70148" lon="3.77402">
        <ele>246.51626586914</ele>
        <time>2020-10-14T00:05:08Z</time>
      </trkpt>
      <trkpt lat="43.70159" lon="3.77434">
        <ele>249.5757598877</ele>
        <time>2020-10-14T00:05:25Z</time>
      </trkpt>
      <trkpt lat="43.70154" lon="3.77467">
        <ele>251.92292785645</ele>
        <time>2020-10-14T00:05:43Z</time>
      </trkpt>
      <trkpt lat="43.70148" lon="3.77479">
        <ele>252.85876464844</ele>
        <time>2020-10-14T00:06:00Z</time>
      </trkpt>
      <trkpt lat="43.7014" lon="3.77519">
        <ele>255.54632568359</ele>
        <time>2020-10-14T00:06:17Z</time>
      </trkpt>
      <trkpt lat="43.70139" lon="3.77564">
        <ele>258.02572631836</ele>
        <time>2020-10-14T00:06:35Z</time>
      </trkpt>
      <trkpt lat="43.70142" lon="3.77587">
        <ele>258.57760620117</ele>
        <time>2020-10-14T00:06:52Z</time>
      </trkpt>
      <trkpt lat="43.70148" lon="3.77613">
        <ele>259.30227661133</ele>
        <time>2020-10-14T00:07:10Z</time>
      </trkpt>
      <trkpt lat="43.70169" lon="3.77661">
        <ele>261.0299987793</ele>
        <time>2020-10-14T00:07:27Z</time>
      </trkpt>
      <trkpt lat="43.70197" lon="3.77703">
        <ele>262.18057250977</ele>
        <time>2020-10-14T00:07:44Z</time>
      </trkpt>
      <trkpt lat="43.70199" lon="3.77716">
        <ele>262.33654785156</ele>
        <time>2020-10-14T00:08:02Z</time>
      </trkpt>
      <trkpt lat="43.70194" lon="3.77734">
        <ele>262.55252075195</ele>
        <time>2020-10-14T00:08:19Z</time>
      </trkpt>
      <trkpt lat="43.70194" lon="3.77753">
        <ele>262.78048706055</ele>
        <time>2020-10-14T00:08:36Z</time>
      </trkpt>
      <trkpt lat="43.70196" lon="3.77769">
        <ele>262.97244262695</ele>
        <time>2020-10-14T00:08:54Z</time>
      </trkpt>
      <trkpt lat="43.70202" lon="3.77783">
        <ele>263</ele>
        <time>2020-10-14T00:09:11Z</time>
      </trkpt>
      <trkpt lat="43.70203" lon="3.77817">
        <ele>263.35299682617</ele>
        <time>2020-10-14T00:09:29Z</time>
      </trkpt>
      <trkpt lat="43.70188" lon="3.77856">
        <ele>263.99911499023</ele>
        <time>2020-10-14T00:09:46Z</time>
      </trkpt>
      <trkpt lat="43.70191" lon="3.77853">
        <ele>263.92892456055</ele>
        <time>2020-10-14T00:10:03Z</time>
      </trkpt>
      <trkpt lat="43.70229" lon="3.77847">
        <ele>263.40100097656</ele>
        <time>2020-10-14T00:10:21Z</time>
      </trkpt>
      <trkpt lat="43.70277" lon="3.77812">
        <ele>263.16638183594</ele>
        <time>2020-10-14T00:10:38Z</time>
      </trkpt>
      <trkpt lat="43.70286" lon="3.77811">
        <ele>263.38235473633</ele>
        <time>2020-10-14T00:10:56Z</time>
      </trkpt>
      <trkpt lat="43.70291" lon="3.7782">
        <ele>263.50234985352</ele>
        <time>2020-10-14T00:11:13Z</time>
      </trkpt>
      <trkpt lat="43.70291" lon="3.7824">
        <ele>263.00466918945</ele>
        <time>2020-10-14T00:11:31Z</time>
      </trkpt>
      <trkpt lat="43.70298" lon="3.78256">
        <ele>263.34060668945</ele>
        <time>2020-10-14T00:11:48Z</time>
      </trkpt>
      <trkpt lat="43.70304" lon="3.78287">
        <ele>263.25375366211</ele>
        <time>2020-10-14T00:12:05Z</time>
      </trkpt>
      <trkpt lat="43.70304" lon="3.78388">
        <ele>260.62460327148</ele>
        <time>2020-10-14T00:12:23Z</time>
      </trkpt>
      <trkpt lat="43.7032" lon="3.78511">
        <ele>252.54754638672</ele>
        <time>2020-10-14T00:12:40Z</time>
      </trkpt>
      <trkpt lat="43.7032" lon="3.78536">
        <ele>250.22311401367</ele>
        <time>2020-10-14T00:12:58Z</time>
      </trkpt>
      <trkpt lat="43.70315" lon="3.78546">
        <ele>248.96331787109</ele>
        <time>2020-10-14T00:13:15Z</time>
      </trkpt>
      <trkpt lat="43.70274" lon="3.78586">
        <ele>242.44067382812</ele>
        <time>2020-10-14T00:13:33Z</time>
      </trkpt>
      <trkpt lat="43.70269" lon="3.78597">
        <ele>240.74026489258</ele>
        <time>2020-10-14T00:13:50Z</time>
      </trkpt>
      <trkpt lat="43.7027" lon="3.78606">
        <ele>239.79214477539</ele>
        <time>2020-10-14T00:14:08Z</time>
      </trkpt>
      <trkpt lat="43.7029" lon="3.78632">
        <ele>236.94847106934</ele>
        <time>2020-10-14T00:14:25Z</time>
      </trkpt>
      <trkpt lat="43.7037" lon="3.78681">
        <ele>232.02947998047</ele>
        <time>2020-10-14T00:14:43Z</time>
      </trkpt>
      <trkpt lat="43.70457" lon="3.78777">
        <ele>213.80647277832</ele>
        <time>2020-10-14T00:15:01Z</time>
      </trkpt>
      <trkpt lat="43.70487" lon="3.78798">
        <ele>210.96295166016</ele>
        <time>2020-10-14T00:15:18Z</time>
      </trkpt>
      <trkpt lat="43.70484" lon="3.78815">
        <ele>209.64317321777</ele>
        <time>2020-10-14T00:15:36Z</time>
      </trkpt>
      <trkpt lat="43.70478" lon="3.78818">
        <ele>209.28939819336</ele>
        <time>2020-10-14T00:15:53Z</time>
      </trkpt>
      <trkpt lat="43.7047" lon="3.78818">
        <ele>209.09742736816</ele>
        <time>2020-10-14T00:16:11Z</time>
      </trkpt>
      <trkpt lat="43.70433" lon="3.78796">
        <ele>211.69287109375</ele>
        <time>2020-10-14T00:16:28Z</time>
      </trkpt>
      <trkpt lat="43.70407" lon="3.78798">
        <ele>212.96466064453</ele>
        <time>2020-10-14T00:16:46Z</time>
      </trkpt>
      <trkpt lat="43.70376" lon="3.78809">
        <ele>212.70249938965</ele>
        <time>2020-10-14T00:17:03Z</time>
      </trkpt>
      <trkpt lat="43.70335" lon="3.78836">
        <ele>206.39701843262</ele>
        <time>2020-10-14T00:17:21Z</time>
      </trkpt>
      <trkpt lat="43.70274" lon="3.78858">
        <ele>203.66452026367</ele>
        <time>2020-10-14T00:17:39Z</time>
      </trkpt>
      <trkpt lat="43.70242" lon="3.78863">
        <ele>199.80462646484</ele>
        <time>2020-10-14T00:17:56Z</time>
      </trkpt>
      <trkpt lat="43.702" lon="3.78918">
        <ele>193.35729980469</ele>
        <time>2020-10-14T00:18:14Z</time>
      </trkpt>
      <trkpt lat="43.70181" lon="3.78954">
        <ele>190.50071716309</ele>
        <time>2020-10-14T00:18:31Z</time>
      </trkpt>
      <trkpt lat="43.70176" lon="3.78972">
        <ele>188.94097900391</ele>
        <time>2020-10-14T00:18:49Z</time>
      </trkpt>
      <trkpt lat="43.70178" lon="3.78969">
        <ele>189.3129119873</ele>
        <time>2020-10-14T00:19:07Z</time>
      </trkpt>
      <trkpt lat="43.70221" lon="3.79004">
        <ele>189.2840423584</ele>
        <time>2020-10-14T00:19:24Z</time>
      </trkpt>
      <trkpt lat="43.70233" lon="3.79023">
        <ele>188.55821228027</ele>
        <time>2020-10-14T00:19:42Z</time>
      </trkpt>
      <trkpt lat="43.70284" lon="3.79075">
        <ele>186.31617736816</ele>
        <time>2020-10-14T00:19:59Z</time>
      </trkpt>
      <trkpt lat="43.70319" lon="3.79136">
        <ele>183.83969116211</ele>
        <time>2020-10-14T00:20:17Z</time>
      </trkpt>
      <trkpt lat="43.70347" lon="3.792">
        <ele>182.42135620117</ele>
        <time>2020-10-14T00:20:35Z</time>
      </trkpt>
      <trkpt lat="43.70355" lon="3.79229">
        <ele>181.62661743164</ele>
        <time>2020-10-14T00:20:52Z</time>
      </trkpt>
      <trkpt lat="43.70391" lon="3.79308">
        <ele>178.75588989258</ele>
        <time>2020-10-14T00:21:10Z</time>
      </trkpt>
      <trkpt lat="43.70397" lon="3.79313">
        <ele>178.63591003418</ele>
        <time>2020-10-14T00:21:28Z</time>
      </trkpt>
      <trkpt lat="43.70424" lon="3.79306">
        <ele>180.92752075195</ele>
        <time>2020-10-14T00:21:45Z</time>
      </trkpt>
      <trkpt lat="43.70436" lon="3.79313">
        <ele>180.97550964355</ele>
        <time>2020-10-14T00:22:03Z</time>
      </trkpt>
      <trkpt lat="43.70455" lon="3.79331">
        <ele>179.07456970215</ele>
        <time>2020-10-14T00:22:21Z</time>
      </trkpt>
      <trkpt lat="43.70488" lon="3.79353">
        <ele>176.56700134277</ele>
        <time>2020-10-14T00:22:38Z</time>
      </trkpt>
      <trkpt lat="43.70591" lon="3.79433">
        <ele>171.48750305176</ele>
        <time>2020-10-14T00:22:56Z</time>
      </trkpt>
      <trkpt lat="43.70618" lon="3.79477">
        <ele>170.30296325684</ele>
        <time>2020-10-14T00:23:14Z</time>
      </trkpt>
      <trkpt lat="43.70643" lon="3.79495">
        <ele>170.85487365723</ele>
        <time>2020-10-14T00:23:32Z</time>
      </trkpt>
      <trkpt lat="43.70717" lon="3.79632">
        <ele>168.77630615234</ele>
        <time>2020-10-14T00:23:49Z</time>
      </trkpt>
      <trkpt lat="43.70735" lon="3.79634">
        <ele>169.06425476074</ele>
        <time>2020-10-14T00:24:07Z</time>
      </trkpt>
      <trkpt lat="43.7074" lon="3.79647">
        <ele>168.24839782715</ele>
        <time>2020-10-14T00:24:25Z</time>
      </trkpt>
      <trkpt lat="43.70775" lon="3.79663">
        <ele>167.58724975586</ele>
        <time>2020-10-14T00:24:42Z</time>
      </trkpt>
      <trkpt lat="43.70815" lon="3.79701">
        <ele>163.54235839844</ele>
        <time>2020-10-14T00:25:00Z</time>
      </trkpt>
      <trkpt lat="43.70898" lon="3.79795">
        <ele>161.34829711914</ele>
        <time>2020-10-14T00:25:18Z</time>
      </trkpt>
      <trkpt lat="43.70891" lon="3.79797">
        <ele>161.20433044434</ele>
        <time>2020-10-14T00:25:36Z</time>
      </trkpt>
      <trkpt lat="43.70896" lon="3.7981">
        <ele>161.48028564453</ele>
        <time>2020-10-14T00:25:54Z</time>
      </trkpt>
      <trkpt lat="43.70921" lon="3.79826">
        <ele>162.27215576172</ele>
        <time>2020-10-14T00:26:11Z</time>
      </trkpt>
      <trkpt lat="43.70953" lon="3.79855">
        <ele>163.77510070801</ele>
        <time>2020-10-14T00:26:29Z</time>
      </trkpt>
      <trkpt lat="43.71031" lon="3.79947">
        <ele>165.81741333008</ele>
        <time>2020-10-14T00:26:47Z</time>
      </trkpt>
      <trkpt lat="43.7104" lon="3.79954">
        <ele>165.67343139648</ele>
        <time>2020-10-14T00:27:05Z</time>
      </trkpt>
      <trkpt lat="43.71055" lon="3.79956">
        <ele>165.78141784668</ele>
        <time>2020-10-14T00:27:22Z</time>
      </trkpt>
      <trkpt lat="43.71058" lon="3.79977">
        <ele>165.05114746094</ele>
        <time>2020-10-14T00:27:40Z</time>
      </trkpt>
      <trkpt lat="43.71091" lon="3.79966">
        <ele>165.85340881348</ele>
        <time>2020-10-14T00:27:58Z</time>
      </trkpt>
      <trkpt lat="43.71176" lon="3.80014">
        <ele>161.66793823242</ele>
        <time>2020-10-14T00:28:16Z</time>
      </trkpt>
      <trkpt lat="43.7118" lon="3.80019">
        <ele>161.34399414062</ele>
        <time>2020-10-14T00:28:34Z</time>
      </trkpt>
      <trkpt lat="43.71183" lon="3.80034">
        <ele>159.80859375</ele>
        <time>2020-10-14T00:28:52Z</time>
      </trkpt>
      <trkpt lat="43.7118" lon="3.80043">
        <ele>158.94473266602</ele>
        <time>2020-10-14T00:29:09Z</time>
      </trkpt>
      <trkpt lat="43.71155" lon="3.80074">
        <ele>156.4659576416</ele>
        <time>2020-10-14T00:29:27Z</time>
      </trkpt>
      <trkpt lat="43.71144" lon="3.80074">
        <ele>156.4659576416</ele>
        <time>2020-10-14T00:29:45Z</time>
      </trkpt>
      <trkpt lat="43.71139" lon="3.80077">
        <ele>156.03402709961</ele>
        <time>2020-10-14T00:30:03Z</time>
      </trkpt>
      <trkpt lat="43.71134" lon="3.8009">
        <ele>154.16233825684</ele>
        <time>2020-10-14T00:30:21Z</time>
      </trkpt>
      <trkpt lat="43.71142" lon="3.80197">
        <ele>143.45552062988</ele>
        <time>2020-10-14T00:30:39Z</time>
      </trkpt>
      <trkpt lat="43.71148" lon="3.8021">
        <ele>142.3757019043</ele>
        <time>2020-10-14T00:30:56Z</time>
      </trkpt>
      <trkpt lat="43.71167" lon="3.80229">
        <ele>140.55200195312</ele>
        <time>2020-10-14T00:31:14Z</time>
      </trkpt>
      <trkpt lat="43.71356" lon="3.8036">
        <ele>124.82339477539</ele>
        <time>2020-10-14T00:31:32Z</time>
      </trkpt>
      <trkpt lat="43.71365" lon="3.80372">
        <ele>124.319480896</ele>
        <time>2020-10-14T00:31:50Z</time>
      </trkpt>
      <trkpt lat="43.71391" lon="3.80466">
        <ele>121.43995666504</ele>
        <time>2020-10-14T00:32:08Z</time>
      </trkpt>
      <trkpt lat="43.714" lon="3.80469">
        <ele>121.15200805664</ele>
        <time>2020-10-14T00:32:26Z</time>
      </trkpt>
      <trkpt lat="43.71433" lon="3.80463">
        <ele>120.50411224365</ele>
        <time>2020-10-14T00:32:44Z</time>
      </trkpt>
      <trkpt lat="43.7145" lon="3.80463">
        <ele>120.4098815918</ele>
        <time>2020-10-14T00:33:02Z</time>
      </trkpt>
      <trkpt lat="43.71503" lon="3.80467">
        <ele>120.76358795166</ele>
        <time>2020-10-14T00:33:20Z</time>
      </trkpt>
      <trkpt lat="43.71518" lon="3.80464">
        <ele>121.05154418945</ele>
        <time>2020-10-14T00:33:38Z</time>
      </trkpt>
      <trkpt lat="43.71533" lon="3.80468">
        <ele>121.08753204346</ele>
        <time>2020-10-14T00:33:55Z</time>
      </trkpt>
      <trkpt lat="43.71601" lon="3.8053">
        <ele>119.67176818848</ele>
        <time>2020-10-14T00:34:13Z</time>
      </trkpt>
      <trkpt lat="43.71667" lon="3.80563">
        <ele>117.71875</ele>
        <time>2020-10-14T00:34:31Z</time>
      </trkpt>
      <trkpt lat="43.71701" lon="3.80593">
        <ele>116.32660675049</ele>
        <time>2020-10-14T00:34:49Z</time>
      </trkpt>
      <trkpt lat="43.71736" lon="3.80602">
        <ele>114.64688873291</ele>
        <time>2020-10-14T00:35:07Z</time>
      </trkpt>
      <trkpt lat="43.71776" lon="3.80623">
        <ele>112.51246643066</ele>
        <time>2020-10-14T00:35:25Z</time>
      </trkpt>
      <trkpt lat="43.71793" lon="3.80622">
        <ele>111.70860290527</ele>
        <time>2020-10-14T00:35:43Z</time>
      </trkpt>
      <trkpt lat="43.71824" lon="3.80601">
        <ele>110.37437438965</ele>
        <time>2020-10-14T00:36:01Z</time>
      </trkpt>
      <trkpt lat="43.71835" lon="3.80601">
        <ele>109.84646606445</ele>
        <time>2020-10-14T00:36:19Z</time>
      </trkpt>
      <trkpt lat="43.71938" lon="3.8064">
        <ele>105.56941986084</ele>
        <time>2020-10-14T00:36:37Z</time>
      </trkpt>
      <trkpt lat="43.71968" lon="3.80645">
        <ele>105.14949035645</ele>
        <time>2020-10-14T00:36:55Z</time>
      </trkpt>
      <trkpt lat="43.72049" lon="3.80641">
        <ele>108.33909606934</ele>
        <time>2020-10-14T00:37:13Z</time>
      </trkpt>
      <trkpt lat="43.72107" lon="3.80658">
        <ele>108.94354248047</ele>
        <time>2020-10-14T00:37:31Z</time>
      </trkpt>
      <trkpt lat="43.72122" lon="3.80659">
        <ele>109.15950775146</ele>
        <time>2020-10-14T00:37:49Z</time>
      </trkpt>
      <trkpt lat="43.72169" lon="3.80656">
        <ele>109.78816986084</ele>
        <time>2020-10-14T00:38:07Z</time>
      </trkpt>
      <trkpt lat="43.72182" lon="3.80652">
        <ele>110.00413513184</ele>
        <time>2020-10-14T00:38:25Z</time>
      </trkpt>
      <trkpt lat="43.72202" lon="3.80631">
        <ele>110.33882904053</ele>
        <time>2020-10-14T00:38:43Z</time>
      </trkpt>
      <trkpt lat="43.72271" lon="3.80696">
        <ele>114.72821807861</ele>
        <time>2020-10-14T00:39:01Z</time>
      </trkpt>
      <trkpt lat="43.7231" lon="3.80726">
        <ele>113.672996521</ele>
        <time>2020-10-14T00:39:19Z</time>
      </trkpt>
      <trkpt lat="43.72323" lon="3.80733">
        <ele>113.4930267334</ele>
        <time>2020-10-14T00:39:37Z</time>
      </trkpt>
      <trkpt lat="43.72374" lon="3.80748">
        <ele>113.62804412842</ele>
        <time>2020-10-14T00:39:56Z</time>
      </trkpt>
      <trkpt lat="43.72412" lon="3.80767">
        <ele>113.62804412842</ele>
        <time>2020-10-14T00:40:14Z</time>
      </trkpt>
      <trkpt lat="43.7243" lon="3.80779">
        <ele>113.22478485107</ele>
        <time>2020-10-14T00:40:32Z</time>
      </trkpt>
      <trkpt lat="43.72437" lon="3.80795">
        <ele>112.04898071289</ele>
        <time>2020-10-14T00:40:50Z</time>
      </trkpt>
      <trkpt lat="43.72455" lon="3.80789">
        <ele>113.64621734619</ele>
        <time>2020-10-14T00:41:08Z</time>
      </trkpt>
      <trkpt lat="43.72531" lon="3.80815">
        <ele>116.46148681641</ele>
        <time>2020-10-14T00:41:26Z</time>
      </trkpt>
      <trkpt lat="43.72593" lon="3.80823">
        <ele>115.57283782959</ele>
        <time>2020-10-14T00:41:44Z</time>
      </trkpt>
      <trkpt lat="43.72626" lon="3.80844">
        <ele>114.06871032715</ele>
        <time>2020-10-14T00:42:02Z</time>
      </trkpt>
      <trkpt lat="43.72653" lon="3.80854">
        <ele>113.67278289795</ele>
        <time>2020-10-14T00:42:20Z</time>
      </trkpt>
      <trkpt lat="43.72695" lon="3.80882">
        <ele>112.29453277588</ele>
        <time>2020-10-14T00:42:38Z</time>
      </trkpt>
      <trkpt lat="43.72721" lon="3.80901">
        <ele>110.8427734375</ele>
        <time>2020-10-14T00:42:57Z</time>
      </trkpt>
      <trkpt lat="43.72754" lon="3.80934">
        <ele>108.46717071533</ele>
        <time>2020-10-14T00:43:15Z</time>
      </trkpt>
      <trkpt lat="43.72767" lon="3.80943">
        <ele>107.98768615723</ele>
        <time>2020-10-14T00:43:33Z</time>
      </trkpt>
      <trkpt lat="43.72782" lon="3.80942">
        <ele>108.09608459473</ele>
        <time>2020-10-14T00:43:51Z</time>
      </trkpt>
      <trkpt lat="43.72868" lon="3.80917">
        <ele>109.00565338135</ele>
        <time>2020-10-14T00:44:09Z</time>
      </trkpt>
      <trkpt lat="43.72929" lon="3.80888">
        <ele>108.01358795166</ele>
        <time>2020-10-14T00:44:27Z</time>
      </trkpt>
      <trkpt lat="43.72946" lon="3.80884">
        <ele>107.53791046143</ele>
        <time>2020-10-14T00:44:45Z</time>
      </trkpt>
      <trkpt lat="43.73047" lon="3.80883">
        <ele>105.64656066895</ele>
        <time>2020-10-14T00:45:04Z</time>
      </trkpt>
      <trkpt lat="43.73046" lon="3.80955">
        <ele>102.89988708496</ele>
        <time>2020-10-14T00:45:22Z</time>
      </trkpt>
      <trkpt lat="43.73044" lon="3.80983">
        <ele>102.36957550049</ele>
        <time>2020-10-14T00:45:40Z</time>
      </trkpt>
      <trkpt lat="43.73041" lon="3.80983">
        <ele>102.11762237549</ele>
        <time>2020-10-14T00:45:58Z</time>
      </trkpt>
      <trkpt lat="43.73044" lon="3.80983">
        <ele>102.36957550049</ele>
        <time>2020-10-14T00:46:16Z</time>
      </trkpt>
      <trkpt lat="43.73043" lon="3.81016">
        <ele>101.0977935791</ele>
        <time>2020-10-14T00:46:35Z</time>
      </trkpt>
      <trkpt lat="43.73073" lon="3.81021">
        <ele>103.43740081787</ele>
        <time>2020-10-14T00:46:53Z</time>
      </trkpt>
      <trkpt lat="43.73098" lon="3.8102">
        <ele>105.57304382324</ele>
        <time>2020-10-14T00:47:11Z</time>
      </trkpt>
      <trkpt lat="43.73123" lon="3.81006">
        <ele>105.88893127441</ele>
        <time>2020-10-14T00:47:29Z</time>
      </trkpt>
      <trkpt lat="43.73157" lon="3.81014">
        <ele>106.9927444458</ele>
        <time>2020-10-14T00:47:47Z</time>
      </trkpt>
      <trkpt lat="43.73186" lon="3.81039">
        <ele>108.79438781738</ele>
        <time>2020-10-14T00:48:06Z</time>
      </trkpt>
      <trkpt lat="43.73234" lon="3.81112">
        <ele>113.13361358643</ele>
        <time>2020-10-14T00:48:24Z</time>
      </trkpt>
      <trkpt lat="43.73282" lon="3.81156">
        <ele>116.58177947998</ele>
        <time>2020-10-14T00:48:42Z</time>
      </trkpt>
      <trkpt lat="43.73295" lon="3.81165">
        <ele>116.55778503418</ele>
        <time>2020-10-14T00:49:00Z</time>
      </trkpt>
      <trkpt lat="43.73313" lon="3.81172">
        <ele>116.06587219238</ele>
        <time>2020-10-14T00:49:19Z</time>
      </trkpt>
      <trkpt lat="43.73344" lon="3.81176">
        <ele>114.73069763184</ele>
        <time>2020-10-14T00:49:37Z</time>
      </trkpt>
      <trkpt lat="43.73354" lon="3.8118">
        <ele>114.90283966064</ele>
        <time>2020-10-14T00:49:55Z</time>
      </trkpt>
      <trkpt lat="43.73362" lon="3.81189">
        <ele>115.48513031006</ele>
        <time>2020-10-14T00:50:13Z</time>
      </trkpt>
      <trkpt lat="43.73412" lon="3.81301">
        <ele>119.69692993164</ele>
        <time>2020-10-14T00:50:32Z</time>
      </trkpt>
      <trkpt lat="43.73469" lon="3.81376">
        <ele>121.52325439453</ele>
        <time>2020-10-14T00:50:50Z</time>
      </trkpt>
      <trkpt lat="43.73503" lon="3.81453">
        <ele>123.26950836182</ele>
        <time>2020-10-14T00:51:08Z</time>
      </trkpt>
      <trkpt lat="43.73516" lon="3.81472">
        <ele>122.74159240723</ele>
        <time>2020-10-14T00:51:27Z</time>
      </trkpt>
      <trkpt lat="43.73572" lon="3.81531">
        <ele>121.0719909668</ele>
        <time>2020-10-14T00:51:45Z</time>
      </trkpt>
      <trkpt lat="43.73644" lon="3.81627">
        <ele>116.43753814697</ele>
        <time>2020-10-14T00:52:03Z</time>
      </trkpt>
      <trkpt lat="43.73664" lon="3.81684">
        <ele>114.6145401001</ele>
        <time>2020-10-14T00:52:22Z</time>
      </trkpt>
      <trkpt lat="43.73721" lon="3.81786">
        <ele>113.684715271</ele>
        <time>2020-10-14T00:52:40Z</time>
      </trkpt>
      <trkpt lat="43.73713" lon="3.81865">
        <ele>111.19285583496</ele>
        <time>2020-10-14T00:52:58Z</time>
      </trkpt>
      <trkpt lat="43.73714" lon="3.81883">
        <ele>110.61685180664</ele>
        <time>2020-10-14T00:53:17Z</time>
      </trkpt>
      <trkpt lat="43.73755" lon="3.82028">
        <ele>112.66323852539</ele>
        <time>2020-10-14T00:53:35Z</time>
      </trkpt>
      <trkpt lat="43.73799" lon="3.8208">
        <ele>115.80376434326</ele>
        <time>2020-10-14T00:53:53Z</time>
      </trkpt>
      <trkpt lat="43.73822" lon="3.82121">
        <ele>117.84832000732</ele>
        <time>2020-10-14T00:54:12Z</time>
      </trkpt>
      <trkpt lat="43.7383" lon="3.82144">
        <ele>118.13626861572</ele>
        <time>2020-10-14T00:54:30Z</time>
      </trkpt>
      <trkpt lat="43.73887" lon="3.82241">
        <ele>116.95304107666</ele>
        <time>2020-10-14T00:54:49Z</time>
      </trkpt>
      <trkpt lat="43.73919" lon="3.82314">
        <ele>113.42674255371</ele>
        <time>2020-10-14T00:55:07Z</time>
      </trkpt>
      <trkpt lat="43.7393" lon="3.82325">
        <ele>112.63487243652</ele>
        <time>2020-10-14T00:55:25Z</time>
      </trkpt>
      <trkpt lat="43.73956" lon="3.82339">
        <ele>112.68212127686</ele>
        <time>2020-10-14T00:55:44Z</time>
      </trkpt>
      <trkpt lat="43.73968" lon="3.8235">
        <ele>112.73011779785</ele>
        <time>2020-10-14T00:56:02Z</time>
      </trkpt>
      <trkpt lat="43.73983" lon="3.82372">
        <ele>112.99189758301</ele>
        <time>2020-10-14T00:56:21Z</time>
      </trkpt>
      <trkpt lat="43.74045" lon="3.82485">
        <ele>115.72165679932</ele>
        <time>2020-10-14T00:56:39Z</time>
      </trkpt>
      <trkpt lat="43.74054" lon="3.82495">
        <ele>116.27356719971</ele>
        <time>2020-10-14T00:56:58Z</time>
      </trkpt>
      <trkpt lat="43.74067" lon="3.82503">
        <ele>116.9934463501</ele>
        <time>2020-10-14T00:57:16Z</time>
      </trkpt>
      <trkpt lat="43.74104" lon="3.82551">
        <ele>118.65129089355</ele>
        <time>2020-10-14T00:57:35Z</time>
      </trkpt>
      <trkpt lat="43.74116" lon="3.82558">
        <ele>118.42561340332</ele>
        <time>2020-10-14T00:57:53Z</time>
      </trkpt>
      <trkpt lat="43.74141" lon="3.82564">
        <ele>118.05367279053</ele>
        <time>2020-10-14T00:58:11Z</time>
      </trkpt>
      <trkpt lat="43.74177" lon="3.82586">
        <ele>117.68354034424</ele>
        <time>2020-10-14T00:58:30Z</time>
      </trkpt>
      <trkpt lat="43.74199" lon="3.82607">
        <ele>117.24116516113</ele>
        <time>2020-10-14T00:58:48Z</time>
      </trkpt>
      <trkpt lat="43.7425" lon="3.82666">
        <ele>117.04919433594</ele>
        <time>2020-10-14T00:59:07Z</time>
      </trkpt>
      <trkpt lat="43.74284" lon="3.82687">
        <ele>117.04277801514</ele>
        <time>2020-10-14T00:59:25Z</time>
      </trkpt>
      <trkpt lat="43.74323" lon="3.82728">
        <ele>116.52947235107</ele>
        <time>2020-10-14T00:59:44Z</time>
      </trkpt>
      <trkpt lat="43.7444" lon="3.82812">
        <ele>118.04327392578</ele>
        <time>2020-10-14T01:00:02Z</time>
      </trkpt>
      <trkpt lat="43.7447" lon="3.82839">
        <ele>117.39538574219</ele>
        <time>2020-10-14T01:00:21Z</time>
      </trkpt>
      <trkpt lat="43.74491" lon="3.82848">
        <ele>117.17942047119</ele>
        <time>2020-10-14T01:00:39Z</time>
      </trkpt>
      <trkpt lat="43.74534" lon="3.82846">
        <ele>117.7721862793</ele>
        <time>2020-10-14T01:00:58Z</time>
      </trkpt>
      <trkpt lat="43.74551" lon="3.8285">
        <ele>117.98815155029</ele>
        <time>2020-10-14T01:01:17Z</time>
      </trkpt>
      <trkpt lat="43.74584" lon="3.82871">
        <ele>117.39970397949</ele>
        <time>2020-10-14T01:01:35Z</time>
      </trkpt>
      <trkpt lat="43.74606" lon="3.82879">
        <ele>117.39678955078</ele>
        <time>2020-10-14T01:01:54Z</time>
      </trkpt>
      <trkpt lat="43.7463" lon="3.82896">
        <ele>117.32479858398</ele>
        <time>2020-10-14T01:02:12Z</time>
      </trkpt>
      <trkpt lat="43.74699" lon="3.82913">
        <ele>118.79277038574</ele>
        <time>2020-10-14T01:02:31Z</time>
      </trkpt>
      <trkpt lat="43.74715" lon="3.8292">
        <ele>119.22470092773</ele>
        <time>2020-10-14T01:02:49Z</time>
      </trkpt>
      <trkpt lat="43.74742" lon="3.82942">
        <ele>119.50276184082</ele>
        <time>2020-10-14T01:03:08Z</time>
      </trkpt>
      <trkpt lat="43.74768" lon="3.82937">
        <ele>120.95240783691</ele>
        <time>2020-10-14T01:03:27Z</time>
      </trkpt>
      <trkpt lat="43.74797" lon="3.82949">
        <ele>121.83825683594</ele>
        <time>2020-10-14T01:03:45Z</time>
      </trkpt>
      <trkpt lat="43.74813" lon="3.8297">
        <ele>121.28634643555</ele>
        <time>2020-10-14T01:04:04Z</time>
      </trkpt>
      <trkpt lat="43.749" lon="3.83062">
        <ele>115.1946182251</ele>
        <time>2020-10-14T01:04:22Z</time>
      </trkpt>
      <trkpt lat="43.74921" lon="3.83092">
        <ele>112.53156280518</ele>
        <time>2020-10-14T01:04:41Z</time>
      </trkpt>
      <trkpt lat="43.7498" lon="3.83152">
        <ele>115.03044128418</ele>
        <time>2020-10-14T01:05:00Z</time>
      </trkpt>
      <trkpt lat="43.74993" lon="3.8317">
        <ele>116.21823883057</ele>
        <time>2020-10-14T01:05:18Z</time>
      </trkpt>
      <trkpt lat="43.75032" lon="3.83207">
        <ele>118.58057403564</ele>
        <time>2020-10-14T01:05:37Z</time>
      </trkpt>
      <trkpt lat="43.75069" lon="3.8323">
        <ele>120.00904083252</ele>
        <time>2020-10-14T01:05:55Z</time>
      </trkpt>
      <trkpt lat="43.75075" lon="3.83237">
        <ele>119.86506652832</ele>
        <time>2020-10-14T01:06:14Z</time>
      </trkpt>
      <trkpt lat="43.75099" lon="3.83294">
        <ele>118.94916534424</ele>
        <time>2020-10-14T01:06:33Z</time>
      </trkpt>
      <trkpt lat="43.75112" lon="3.83315">
        <ele>120.07451629639</ele>
        <time>2020-10-14T01:06:51Z</time>
      </trkpt>
      <trkpt lat="43.75113" lon="3.83326">
        <ele>120.27848815918</ele>
        <time>2020-10-14T01:07:10Z</time>
      </trkpt>
      <trkpt lat="43.75127" lon="3.83333">
        <ele>121.37030029297</ele>
        <time>2020-10-14T01:07:29Z</time>
      </trkpt>
      <trkpt lat="43.75152" lon="3.83355">
        <ele>123.43395996094</ele>
        <time>2020-10-14T01:07:47Z</time>
      </trkpt>
      <trkpt lat="43.75159" lon="3.83412">
        <ele>125.25946807861</ele>
        <time>2020-10-14T01:08:06Z</time>
      </trkpt>
      <trkpt lat="43.75199" lon="3.83481">
        <ele>130.7512512207</ele>
        <time>2020-10-14T01:08:25Z</time>
      </trkpt>
      <trkpt lat="43.75212" lon="3.83475">
        <ele>131.93905639648</ele>
        <time>2020-10-14T01:08:43Z</time>
      </trkpt>
      <trkpt lat="43.75221" lon="3.83464">
        <ele>132.21420288086</ele>
        <time>2020-10-14T01:09:02Z</time>
      </trkpt>
      <trkpt lat="43.75234" lon="3.83461">
        <ele>132.93408203125</ele>
        <time>2020-10-14T01:09:21Z</time>
      </trkpt>
      <trkpt lat="43.75243" lon="3.83464">
        <ele>133.79794311523</ele>
        <time>2020-10-14T01:09:39Z</time>
      </trkpt>
      <trkpt lat="43.75252" lon="3.83472">
        <ele>135.02174377441</ele>
        <time>2020-10-14T01:09:58Z</time>
      </trkpt>
      <trkpt lat="43.75264" lon="3.83485">
        <ele>136.82144165039</ele>
        <time>2020-10-14T01:10:17Z</time>
      </trkpt>
      <trkpt lat="43.75271" lon="3.835">
        <ele>138.39791870117</ele>
        <time>2020-10-14T01:10:35Z</time>
      </trkpt>
      <trkpt lat="43.75279" lon="3.83497">
        <ele>138.18196105957</ele>
        <time>2020-10-14T01:10:54Z</time>
      </trkpt>
      <trkpt lat="43.75291" lon="3.83498">
        <ele>138.25393676758</ele>
        <time>2020-10-14T01:11:13Z</time>
      </trkpt>
      <trkpt lat="43.75322" lon="3.83516">
        <ele>139.54972839355</ele>
        <time>2020-10-14T01:11:32Z</time>
      </trkpt>
      <trkpt lat="43.75336" lon="3.83511">
        <ele>139.18978881836</ele>
        <time>2020-10-14T01:11:50Z</time>
      </trkpt>
      <trkpt lat="43.75361" lon="3.83508">
        <ele>139.06382751465</ele>
        <time>2020-10-14T01:12:09Z</time>
      </trkpt>
      <trkpt lat="43.75372" lon="3.8351">
        <ele>139.05181884766</ele>
        <time>2020-10-14T01:12:28Z</time>
      </trkpt>
      <trkpt lat="43.75431" lon="3.8354">
        <ele>140.7823638916</ele>
        <time>2020-10-14T01:12:46Z</time>
      </trkpt>
      <trkpt lat="43.75458" lon="3.83549">
        <ele>140.8325958252</ele>
        <time>2020-10-14T01:13:05Z</time>
      </trkpt>
      <trkpt lat="43.75514" lon="3.83694">
        <ele>140.65097045898</ele>
        <time>2020-10-14T01:13:24Z</time>
      </trkpt>
      <trkpt lat="43.75522" lon="3.83734">
        <ele>138.22595214844</ele>
        <time>2020-10-14T01:13:43Z</time>
      </trkpt>
      <trkpt lat="43.75523" lon="3.83791">
        <ele>134.5583190918</ele>
        <time>2020-10-14T01:14:01Z</time>
      </trkpt>
      <trkpt lat="43.75519" lon="3.83816">
        <ele>131.8263092041</ele>
        <time>2020-10-14T01:14:20Z</time>
      </trkpt>
      <trkpt lat="43.75508" lon="3.83844">
        <ele>128.80055236816</ele>
        <time>2020-10-14T01:14:39Z</time>
      </trkpt>
      <trkpt lat="43.75499" lon="3.8385">
        <ele>127.68473815918</ele>
        <time>2020-10-14T01:14:58Z</time>
      </trkpt>
      <trkpt lat="43.75484" lon="3.83854">
        <ele>126.83288574219</ele>
        <time>2020-10-14T01:15:16Z</time>
      </trkpt>
      <trkpt lat="43.75441" lon="3.83857">
        <ele>125.87814331055</ele>
        <time>2020-10-14T01:15:35Z</time>
      </trkpt>
      <trkpt lat="43.7541" lon="3.83838">
        <ele>129.08303833008</ele>
        <time>2020-10-14T01:15:54Z</time>
      </trkpt>
      <trkpt lat="43.75399" lon="3.83839">
        <ele>129.05903625488</ele>
        <time>2020-10-14T01:16:13Z</time>
      </trkpt>
      <trkpt lat="43.75394" lon="3.8385">
        <ele>127.40331268311</ele>
        <time>2020-10-14T01:16:31Z</time>
      </trkpt>
      <trkpt lat="43.75389" lon="3.83878">
        <ele>123.09603118896</ele>
        <time>2020-10-14T01:16:50Z</time>
      </trkpt>
      <trkpt lat="43.75384" lon="3.83885">
        <ele>122.06420135498</ele>
        <time>2020-10-14T01:17:09Z</time>
      </trkpt>
      <trkpt lat="43.75335" lon="3.83912">
        <ele>117.748046875</ele>
        <time>2020-10-14T01:17:28Z</time>
      </trkpt>
      <trkpt lat="43.75323" lon="3.83927">
        <ele>116.04459381104</ele>
        <time>2020-10-14T01:17:47Z</time>
      </trkpt>
      <trkpt lat="43.75327" lon="3.83988">
        <ele>111.12574005127</ele>
        <time>2020-10-14T01:18:05Z</time>
      </trkpt>
      <trkpt lat="43.75334" lon="3.84013">
        <ele>109.81245422363</ele>
        <time>2020-10-14T01:18:24Z</time>
      </trkpt>
      <trkpt lat="43.75353" lon="3.84121">
        <ele>105.70728302002</ele>
        <time>2020-10-14T01:18:43Z</time>
      </trkpt>
      <trkpt lat="43.7538" lon="3.84231">
        <ele>101.67691040039</ele>
        <time>2020-10-14T01:19:02Z</time>
      </trkpt>
      <trkpt lat="43.75377" lon="3.84259">
        <ele>100.36912536621</ele>
        <time>2020-10-14T01:19:21Z</time>
      </trkpt>
      <trkpt lat="43.75364" lon="3.84318">
        <ele>98.82604217529</ele>
        <time>2020-10-14T01:19:40Z</time>
      </trkpt>
      <trkpt lat="43.75353" lon="3.8435">
        <ele>97.2360458374</ele>
        <time>2020-10-14T01:19:58Z</time>
      </trkpt>
      <trkpt lat="43.75331" lon="3.84398">
        <ele>95.70671081543</ele>
        <time>2020-10-14T01:20:17Z</time>
      </trkpt>
      <trkpt lat="43.75469" lon="3.84532">
        <ele>98.03103637695</ele>
        <time>2020-10-14T01:20:36Z</time>
      </trkpt>
      <trkpt lat="43.75517" lon="3.84574">
        <ele>100.47863006592</ele>
        <time>2020-10-14T01:20:55Z</time>
      </trkpt>
      <trkpt lat="43.75534" lon="3.84594">
        <ele>100.75244903564</ele>
        <time>2020-10-14T01:21:14Z</time>
      </trkpt>
      <trkpt lat="43.75633" lon="3.84857">
        <ele>105.31594085693</ele>
        <time>2020-10-14T01:21:33Z</time>
      </trkpt>
      <trkpt lat="43.75723" lon="3.85046">
        <ele>102.29672241211</ele>
        <time>2020-10-14T01:21:52Z</time>
      </trkpt>
      <trkpt lat="43.7575" lon="3.85074">
        <ele>101.27689361572</ele>
        <time>2020-10-14T01:22:11Z</time>
      </trkpt>
      <trkpt lat="43.75955" lon="3.8521">
        <ele>93.7087097168</ele>
        <time>2020-10-14T01:22:30Z</time>
      </trkpt>
      <trkpt lat="43.75948" lon="3.85222">
        <ele>93.336769104</ele>
        <time>2020-10-14T01:22:49Z</time>
      </trkpt>
      <trkpt lat="43.75941" lon="3.85245">
        <ele>92.70087432861</ele>
        <time>2020-10-14T01:23:08Z</time>
      </trkpt>
      <trkpt lat="43.75936" lon="3.8527">
        <ele>92.12146759033</ele>
        <time>2020-10-14T01:23:27Z</time>
      </trkpt>
      <trkpt lat="43.75935" lon="3.85305">
        <ele>92.09635925293</ele>
        <time>2020-10-14T01:23:46Z</time>
      </trkpt>
      <trkpt lat="43.75941" lon="3.85386">
        <ele>91.63878631592</ele>
        <time>2020-10-14T01:24:05Z</time>
      </trkpt>
      <trkpt lat="43.75951" lon="3.8544">
        <ele>90.98178863525</ele>
        <time>2020-10-14T01:24:24Z</time>
      </trkpt>
      <trkpt lat="43.7595" lon="3.85481">
        <ele>90.35111999512</ele>
        <time>2020-10-14T01:24:43Z</time>
      </trkpt>
      <trkpt lat="43.75962" lon="3.8552">
        <ele>89.73922729492</ele>
        <time>2020-10-14T01:25:02Z</time>
      </trkpt>
      <trkpt lat="43.75978" lon="3.85551">
        <ele>89.51620483398</ele>
        <time>2020-10-14T01:25:21Z</time>
      </trkpt>
      <trkpt lat="43.7598" lon="3.85709">
        <ele>89.45755767822</ele>
        <time>2020-10-14T01:25:40Z</time>
      </trkpt>
      <trkpt lat="43.7597" lon="3.85744">
        <ele>89.46262359619</ele>
        <time>2020-10-14T01:25:59Z</time>
      </trkpt>
      <trkpt lat="43.75963" lon="3.85758">
        <ele>88.9587097168</ele>
        <time>2020-10-14T01:26:18Z</time>
      </trkpt>
      <trkpt lat="43.75913" lon="3.85821">
        <ele>89.17249298096</ele>
        <time>2020-10-14T01:26:37Z</time>
      </trkpt>
      <trkpt lat="43.75887" lon="3.85846">
        <ele>89.1197052002</ele>
        <time>2020-10-14T01:26:56Z</time>
      </trkpt>
      <trkpt lat="43.75818" lon="3.85946">
        <ele>88.91990661621</ele>
        <time>2020-10-14T01:27:15Z</time>
      </trkpt>
      <trkpt lat="43.75814" lon="3.8595">
        <ele>88.87191009521</ele>
        <time>2020-10-14T01:27:34Z</time>
      </trkpt>
      <trkpt lat="43.75805" lon="3.85948">
        <ele>88.89591217041</ele>
        <time>2020-10-14T01:27:54Z</time>
      </trkpt>
      <trkpt lat="43.75779" lon="3.85935">
        <ele>89</ele>
        <time>2020-10-14T01:28:13Z</time>
      </trkpt>
      <trkpt lat="43.75755" lon="3.85954">
        <ele>88.64784240723</ele>
        <time>2020-10-14T01:28:32Z</time>
      </trkpt>
      <trkpt lat="43.75745" lon="3.85971">
        <ele>88.23990631104</ele>
        <time>2020-10-14T01:28:51Z</time>
      </trkpt>
      <trkpt lat="43.75746" lon="3.86002">
        <ele>87.49603271484</ele>
        <time>2020-10-14T01:29:10Z</time>
      </trkpt>
      <trkpt lat="43.75754" lon="3.86042">
        <ele>87.46380615234</ele>
        <time>2020-10-14T01:29:29Z</time>
      </trkpt>
      <trkpt lat="43.75772" lon="3.86058">
        <ele>87.83553314209</ele>
        <time>2020-10-14T01:29:48Z</time>
      </trkpt>
      <trkpt lat="43.75784" lon="3.86083">
        <ele>88.29145812988</ele>
        <time>2020-10-14T01:30:07Z</time>
      </trkpt>
      <trkpt lat="43.75794" lon="3.86083">
        <ele>88.17147827148</ele>
        <time>2020-10-14T01:30:26Z</time>
      </trkpt>
      <trkpt lat="43.75785" lon="3.86091">
        <ele>88.47142791748</ele>
        <time>2020-10-14T01:30:46Z</time>
      </trkpt>
      <trkpt lat="43.75775" lon="3.86116">
        <ele>89.16795349121</ele>
        <time>2020-10-14T01:31:05Z</time>
      </trkpt>
      <trkpt lat="43.76107" lon="3.86319">
        <ele>92.3</ele>
      </trkpt>
      <trkpt lat="43.7635" lon="3.86483">
        <ele>95.4</ele>
      </trkpt>
      <trkpt lat="43.7667" lon="3.867">
        <ele>103.2</ele>
      </trkpt>
      <trkpt lat="43.77419" lon="3.86972">
        <ele>111.5</ele>
      </trkpt>
      <trkpt lat="43.77401" lon="3.87234">
        <ele>108.8</ele>
      </trkpt>
      <trkpt lat="43.7754" lon="3.8765">
        <ele>108.1</ele>
      </trkpt>
      <trkpt lat="43.77726" lon="3.87792">
        <ele>114.3</ele>
      </trkpt>
      <trkpt lat="43.78392" lon="3.8835">
        <ele>128.3</ele>
      </trkpt>
      <trkpt lat="43.78163" lon="3.88676">
        <ele>117.5</ele>
      </trkpt>
      <trkpt lat="43.78485" lon="3.89264">
        <ele>115.9</ele>
      </trkpt>
      <trkpt lat="43.78597" lon="3.89701">
        <ele>113.2</ele>
      </trkpt>
      <trkpt lat="43.78634" lon="3.9004">
        <ele>110.5</ele>
      </trkpt>
      <trkpt lat="43.78783" lon="3.9001">
        <ele>110</ele>
      </trkpt>
      <trkpt lat="43.78907" lon="3.90264">
        <ele>109</ele>
      </trkpt>
      <trkpt lat="43.7909" lon="3.90392">
        <ele>108.7</ele>
        <time>2020-10-13T18:02:28Z</time>
      </trkpt>
    </trkseg>
  </trk>
</gpx>